[[{"header":{"parameterUnit":"m.s-1","parameterCategory":1,"la1":30.6,"la2":29.2853,"lo1":-89.7004,"lo2":-87.6739,"dy":0.0162,"dx":0.0183,"nx":112,"ny":82,"refTime":"2023-05-29T12:00:00:Z","depth":0,"parameterNumber":2,"parameterNumberName":"U-component_of_WINDS"},"data":[0.0,0.0,0.0,0.0,0.0,0.0,0.0,0.0,0.0,0.0,0.0,0.0,0.0,0.0,0.0,0.0,0.0,0.0,0.0,0.0,0.0,0.0,0.0,0.0,0.0,0.0,0.0,0.0,0.0,0.0,0.0,0.0,0.0,0.0,0.0,0.0,0.0,0.0,0.0,0.0,0.0,0.0,0.0,0.0,0.0,0.0,0.0,0.0,0.0,0.0,0.0,0.0,0.0,0.0,0.0,0.0,0.0,0.0,0.0,0.0,0.0,0.0,0.0,0.0,0.0,0.0,0.0,0.0,0.0,0.0,0.0,0.0,0.0,0.0,0.0,0.0,0.0,0.0,0.0,0.0,0.0,0.0,0.0,0.0,0.0,0.0,0.0,0.0,0.0,0.0,2.5809,2.5873,2.6369,2.6998,2.765,2.7727,2.7332,2.646,0.0,0.0,0.0,0.0,0.0,0.0,0.0,0.0,0.0,0.0,0.0,0.0,0.0,0.0,0.0,0.0,0.0,0.0,0.0,0.0,0.0,0.0,0.0,0.0,0.0,0.0,0.0,0.0,0.0,0.0,0.0,0.0,0.0,0.0,0.0,0.0,0.0,0.0,0.0,0.0,0.0,0.0,0.0,0.0,0.0,0.0,0.0,0.0,0.0,0.0,0.0,0.0,0.0,0.0,0.0,0.0,0.0,0.0,0.0,0.0,0.0,0.0,0.0,0.0,0.0,0.0,0.0,0.0,0.0,0.0,0.0,0.0,0.0,0.0,0.0,0.0,0.0,0.0,0.0,0.0,0.0,0.0,0.0,0.0,0.0,0.0,0.0,0.0,0.0,0.0,0.0,0.0,0.0,0.0,0.0,0.0,0.0,0.0,0.0,0.0,0.0,0.0,0.0,0.0,2.6889,2.755,2.7672,2.7701,2.7788,2.7777,2.7397,2.6472,0.0,0.0,0.0,0.0,0.0,0.0,0.0,0.0,0.0,0.0,0.0,0.0,0.0,0.0,0.0,0.0,0.0,0.0,0.0,0.0,0.0,0.0,0.0,0.0,0.0,0.0,0.0,0.0,0.0,0.0,0.0,0.0,0.0,0.0,0.0,0.0,0.0,0.0,0.0,0.0,0.0,0.0,0.0,0.0,0.0,0.0,0.0,0.0,0.0,0.0,0.0,0.0,0.0,0.0,0.0,0.0,0.0,0.0,0.0,0.0,0.0,0.0,0.0,0.0,0.0,0.0,0.0,0.0,0.0,0.0,0.0,0.0,0.0,0.0,0.0,0.0,0.0,0.0,0.0,0.0,0.0,0.0,0.0,0.0,0.0,0.0,0.0,0.0,0.0,0.0,0.0,0.0,0.0,0.0,0.0,0.0,0.0,0.0,0.0,0.0,0.0,0.0,0.0,2.6617,2.7285,2.8576,2.8608,2.8709,2.9125,2.9123,2.8536,2.7186,2.7109,0.0,0.0,0.0,0.0,0.0,0.0,0.0,0.0,0.0,0.0,0.0,0.0,0.0,0.0,0.0,0.0,0.0,0.0,0.0,0.0,0.0,0.0,0.0,0.0,0.0,0.0,0.0,0.0,0.0,0.0,0.0,0.0,0.0,0.0,0.0,0.0,0.0,0.0,0.0,0.0,0.0,0.0,0.0,0.0,0.0,0.0,0.0,0.0,0.0,0.0,0.0,0.0,0.0,0.0,0.0,0.0,0.0,0.0,0.0,0.0,0.0,0.0,0.0,0.0,0.0,0.0,0.0,0.0,0.0,0.0,0.0,0.0,0.0,0.0,0.0,0.0,0.0,0.0,0.0,0.0,0.0,0.0,0.0,0.0,0.0,0.0,0.0,0.0,0.0,0.0,0.0,0.0,0.0,0.0,0.0,0.0,0.0,0.0,0.0,0.0,0.0,0.0,2.7493,2.8204,2.9444,2.9515,2.9679,3.0259,3.026,2.9505,2.7816,2.7701,0.0,0.0,0.0,0.0,0.0,0.0,0.0,0.0,0.0,0.0,0.0,0.0,0.0,0.0,0.0,0.0,0.0,0.0,0.0,0.0,0.0,0.0,0.0,0.0,0.0,0.0,0.0,0.0,0.0,0.0,0.0,0.0,0.0,0.0,0.0,0.0,0.0,0.0,0.0,0.0,0.0,0.0,0.0,0.0,0.0,0.0,0.0,0.0,0.0,0.0,0.0,0.0,0.0,0.0,0.0,0.0,0.0,0.0,0.0,0.0,0.0,0.0,0.0,0.0,0.0,0.0,0.0,0.0,0.0,0.0,0.0,0.0,0.0,0.0,0.0,0.0,0.0,0.0,0.0,0.0,0.0,0.0,0.0,0.0,0.0,0.0,0.0,0.0,0.0,0.0,0.0,0.0,0.0,0.0,0.0,0.0,0.0,0.0,0.0,0.0,0.0,0.0,2.9433,3.0418,3.0424,3.0462,3.0453,3.0309,3.0304,2.9545,2.7797,2.7701,0.0,0.0,0.0,0.0,0.0,0.0,0.0,0.0,0.0,0.0,0.0,0.0,0.0,0.0,0.0,0.0,0.0,0.0,0.0,0.0,0.0,0.0,0.0,0.0,0.0,0.0,0.0,0.0,0.0,0.0,0.0,0.0,0.0,0.0,0.0,0.0,0.0,0.0,0.0,0.0,0.0,0.0,0.0,0.0,0.0,0.0,0.0,0.0,0.0,0.0,0.0,0.0,0.0,0.0,0.0,0.0,0.0,0.0,0.0,0.0,0.0,0.0,0.0,0.0,0.0,0.0,0.0,0.0,0.0,0.0,0.0,0.0,0.0,0.0,0.0,0.0,0.0,0.0,0.0,0.0,0.0,0.0,0.0,0.0,0.0,0.0,0.0,0.0,0.0,0.0,0.0,0.0,0.0,0.0,0.0,0.0,0.0,0.0,0.0,0.0,0.0,0.0,2.921,3.0121,0.0,3.0501,3.0422,3.0316,3.0273,2.9526,2.7865,0.0,0.0,0.0,0.0,0.0,0.0,0.0,0.0,0.0,0.0,0.0,0.0,0.0,0.0,0.0,0.0,0.0,0.0,0.0,0.0,0.0,0.0,0.0,0.0,0.0,0.0,0.0,0.0,0.0,0.0,0.0,0.0,0.0,0.0,0.0,0.0,0.0,0.0,0.0,0.0,0.0,0.0,0.0,0.0,0.0,0.0,0.0,0.0,0.0,0.0,0.0,0.0,0.0,0.0,0.0,0.0,0.0,0.0,0.0,0.0,0.0,0.0,0.0,0.0,0.0,0.0,0.0,0.0,0.0,0.0,0.0,0.0,0.0,0.0,0.0,0.0,0.0,0.0,0.0,0.0,0.0,0.0,0.0,0.0,0.0,0.0,0.0,0.0,0.0,0.0,0.0,0.0,0.0,0.0,0.0,0.0,0.0,0.0,0.0,0.0,0.0,0.0,2.852,2.9347,3.0049,0.0,3.0462,3.0359,3.0267,3.0226,2.9505,2.7865,0.0,0.0,0.0,0.0,0.0,0.0,0.0,0.0,0.0,0.0,0.0,0.0,0.0,0.0,0.0,0.0,0.0,0.0,0.0,0.0,0.0,0.0,0.0,0.0,0.0,0.0,0.0,0.0,0.0,0.0,0.0,0.0,0.0,0.0,0.0,0.0,0.0,0.0,0.0,0.0,0.0,0.0,0.0,0.0,0.0,0.0,0.0,0.0,0.0,0.0,0.0,0.0,0.0,0.0,0.0,0.0,0.0,0.0,0.0,0.0,0.0,0.0,0.0,0.0,0.0,0.0,0.0,0.0,0.0,0.0,0.0,0.0,0.0,0.0,0.0,0.0,0.0,0.0,0.0,0.0,0.0,0.0,0.0,0.0,0.0,0.0,0.0,0.0,0.0,0.0,0.0,0.0,0.0,0.0,0.0,0.0,0.0,0.0,0.0,0.0,0.0,0.0,2.9396,3.0211,3.0626,3.0423,3.0402,3.0356,3.0213,3.0185,2.9478,0.0,0.0,0.0,0.0,0.0,0.0,0.0,0.0,0.0,0.0,0.0,0.0,0.0,0.0,0.0,0.0,0.0,0.0,0.0,0.0,0.0,0.0,0.0,0.0,0.0,0.0,0.0,0.0,0.0,0.0,0.0,0.0,0.0,0.0,0.0,0.0,0.0,0.0,0.0,0.0,0.0,0.0,0.0,0.0,0.0,0.0,0.0,0.0,0.0,0.0,0.0,0.0,0.0,0.0,0.0,0.0,0.0,0.0,0.0,0.0,0.0,0.0,0.0,0.0,0.0,0.0,0.0,0.0,0.0,0.0,0.0,0.0,0.0,0.0,0.0,0.0,0.0,0.0,0.0,0.0,0.0,0.0,0.0,0.0,0.0,0.0,0.0,0.0,0.0,0.0,0.0,0.0,0.0,0.0,0.0,0.0,0.0,0.0,0.0,0.0,0.0,0.0,0.0,2.9382,3.02,3.0665,3.0543,3.0548,3.0462,3.0279,3.0267,2.9545,2.7877,0.0,0.0,0.0,0.0,0.0,0.0,0.0,0.0,0.0,0.0,0.0,0.0,0.0,0.0,0.0,0.0,0.0,0.0,0.0,0.0,0.0,0.0,0.0,0.0,0.0,0.0,0.0,0.0,0.0,0.0,0.0,0.0,0.0,0.0,0.0,0.0,0.0,0.0,0.0,0.0,0.0,0.0,0.0,0.0,0.0,0.0,0.0,0.0,0.0,0.0,0.0,0.0,0.0,0.0,0.0,0.0,0.0,0.0,0.0,0.0,0.0,0.0,0.0,0.0,0.0,0.0,0.0,0.0,0.0,0.0,0.0,0.0,0.0,0.0,0.0,0.0,0.0,0.0,0.0,0.0,0.0,0.0,0.0,0.0,0.0,0.0,0.0,0.0,0.0,0.0,0.0,0.0,0.0,0.0,0.0,0.0,0.0,0.0,0.0,0.0,0.0,0.0,2.992,3.0424,3.0665,3.061,3.0602,3.053,3.0356,3.0344,2.9763,2.8403,0.0,0.0,0.0,0.0,0.0,0.0,0.0,0.0,0.0,0.0,0.0,0.0,0.0,0.0,0.0,0.0,0.0,0.0,0.0,0.0,0.0,0.0,0.0,0.0,0.0,0.0,0.0,0.0,0.0,0.0,0.0,0.0,0.0,0.0,0.0,0.0,0.0,0.0,0.0,0.0,0.0,0.0,0.0,0.0,0.0,0.0,0.0,0.0,0.0,0.0,0.0,0.0,0.0,0.0,0.0,0.0,0.0,0.0,0.0,0.0,0.0,0.0,0.0,0.0,0.0,0.0,0.0,0.0,0.0,0.0,0.0,0.0,0.0,0.0,0.0,0.0,0.0,0.0,0.0,0.0,0.0,0.0,0.0,0.0,0.0,0.0,0.0,0.0,0.0,0.0,0.0,0.0,0.0,0.0,0.0,0.0,0.0,0.0,0.0,0.0,0.0,0.0,3.068,3.074,3.0691,3.0618,3.061,3.0558,3.0423,3.0413,3.0023,2.9152,0.0,0.0,0.0,0.0,0.0,0.0,0.0,0.0,0.0,0.0,0.0,0.0,0.0,0.0,0.0,0.0,0.0,0.0,0.0,0.0,0.0,0.0,0.0,0.0,0.0,0.0,0.0,0.0,0.0,0.0,0.0,0.0,0.0,0.0,0.0,0.0,0.0,0.0,0.0,0.0,0.0,0.0,0.0,0.0,0.0,0.0,0.0,0.0,0.0,0.0,0.0,0.0,0.0,0.0,0.0,0.0,0.0,0.0,0.0,0.0,2.5026,2.4223,0.0,0.0,0.0,0.0,0.0,0.0,0.0,0.0,0.0,0.0,0.0,0.0,0.0,0.0,0.0,0.0,0.0,0.0,0.0,0.0,0.0,0.0,0.0,0.0,0.0,0.0,0.0,0.0,0.0,0.0,0.0,0.0,0.0,0.0,0.0,0.0,0.0,0.0,0.0,0.0,3.0684,3.0793,3.0745,3.0691,3.0678,3.0653,3.0567,3.0462,3.0023,2.9152,2.9647,0.0,0.0,0.0,0.0,0.0,0.0,0.0,0.0,0.0,0.0,0.0,0.0,0.0,0.0,0.0,0.0,0.0,0.0,0.0,0.0,0.0,0.0,0.0,0.0,0.0,0.0,0.0,0.0,0.0,0.0,0.0,0.0,0.0,0.0,0.0,0.0,0.0,0.0,0.0,0.0,0.0,0.0,0.0,0.0,0.0,0.0,0.0,0.0,0.0,0.0,0.0,0.0,0.0,0.0,0.0,0.0,0.0,0.0,0.0,2.6848,2.6267,0.0,0.0,0.0,0.0,0.0,0.0,0.0,0.0,0.0,0.0,0.0,0.0,0.0,0.0,0.0,0.0,0.0,0.0,0.0,0.0,0.0,0.0,0.0,0.0,0.0,0.0,0.0,0.0,0.0,0.0,0.0,0.0,0.0,0.0,0.0,0.0,0.0,0.0,0.0,0.0,3.0742,3.0769,3.0739,3.0703,3.0691,3.0668,3.0604,3.0549,3.0258,2.9721,3.0043,0.0,0.0,0.0,0.0,0.0,0.0,0.0,0.0,0.0,0.0,0.0,0.0,0.0,0.0,0.0,0.0,0.0,0.0,0.0,0.0,0.0,0.0,0.0,0.0,0.0,0.0,0.0,0.0,0.0,0.0,0.0,0.0,0.0,0.0,0.0,0.0,0.0,0.0,0.0,0.0,0.0,0.0,0.0,0.0,0.0,0.0,0.0,0.0,0.0,0.0,0.0,0.0,0.0,2.6887,2.7355,2.7383,2.826,2.8649,2.8654,2.8706,2.8574,2.825,2.7516,0.0,0.0,0.0,0.0,0.0,0.0,0.0,0.0,0.0,0.0,0.0,0.0,0.0,0.0,0.0,0.0,0.0,0.0,0.0,0.0,0.0,0.0,3.088,3.088,3.0841,3.0801,3.0801,0.0,0.0,0.0,0.0,0.0,0.0,0.0,0.0,0.0,0.0,0.0,3.079,3.073,3.0697,3.0697,3.0711,3.0676,3.0621,3.0604,3.0521,3.0321,3.0316,3.0228,0.0,0.0,0.0,0.0,0.0,0.0,0.0,0.0,0.0,0.0,0.0,0.0,0.0,0.0,0.0,0.0,0.0,0.0,0.0,0.0,0.0,0.0,0.0,0.0,0.0,0.0,0.0,0.0,0.0,0.0,0.0,0.0,2.2719,2.2886,0.0,0.0,0.0,0.0,0.0,0.0,0.0,0.0,0.0,0.0,0.0,0.0,0.0,2.5757,2.6556,2.7316,2.7374,2.6771,2.8388,2.916,2.9185,3.0066,3.0456,3.0469,3.0468,0.0,2.8299,2.8182,0.0,0.0,0.0,0.0,0.0,0.0,0.0,0.0,0.0,0.0,0.0,0.0,0.0,0.0,0.0,0.0,0.0,0.0,0.0,0.0,0.0,0.0,3.0801,3.0801,3.0801,3.0801,3.0801,3.0801,3.0801,3.0801,3.0801,3.0801,0.0,0.0,0.0,0.0,0.0,0.0,3.072,3.0709,3.0691,3.0704,3.0697,3.071,3.0683,3.0629,3.054,3.0392,3.0333,3.0228,3.0102,2.9269,0.0,0.0,0.0,0.0,0.0,0.0,0.0,0.0,0.0,0.0,0.0,0.0,0.0,0.0,0.0,0.0,0.0,0.0,0.0,0.0,0.0,0.0,0.0,0.0,0.0,0.0,0.0,0.0,0.0,2.2064,2.231,2.2251,2.1903,2.1479,0.0,0.0,0.0,0.0,0.0,0.0,0.0,0.0,0.0,2.6346,2.6848,2.7511,2.8349,2.8734,2.8987,2.9104,3.0355,3.0969,3.0981,3.1861,3.1992,3.1537,3.1522,3.084,2.9667,2.9214,2.8818,2.8403,0.0,0.0,0.0,0.0,2.7737,2.7854,2.8732,2.9025,2.9025,2.9025,0.0,0.0,0.0,0.0,0.0,0.0,0.0,3.0899,3.086,3.0821,3.0801,3.0801,3.0801,3.0801,3.0801,3.0801,3.0801,3.0801,3.0801,3.0801,3.0801,3.0794,0.0,0.0,0.0,3.073,3.0703,3.0704,3.0711,3.0697,3.069,3.0683,3.0645,3.0613,3.0549,3.0413,3.037,3.0285,3.0113,2.9303,2.8812,0.0,0.0,0.0,0.0,0.0,0.0,0.0,0.0,0.0,0.0,0.0,0.0,0.0,0.0,0.0,0.0,0.0,0.0,0.0,0.0,0.0,0.0,0.0,0.0,0.0,0.0,0.0,0.0,2.2105,2.2345,2.1989,2.2191,2.2013,0.0,0.0,0.0,0.0,0.0,0.0,2.5054,2.6279,2.7153,2.7554,2.8407,2.9284,3.0161,3.0394,3.0823,3.1466,3.2109,3.2426,3.2445,3.3095,3.3054,3.2419,3.2434,3.205,3.1382,3.0343,2.9791,2.9533,2.8889,2.8498,2.8323,2.8557,2.8635,2.8752,2.9611,2.9904,2.9904,2.9901,2.9921,2.9921,2.9921,0.0,0.0,0.0,0.0,3.088,3.0821,3.0801,3.0801,3.0801,3.0801,3.0801,3.0801,3.0801,3.0801,3.0801,3.0801,3.0799,3.0796,3.0807,0.0,0.0,0.0,3.0697,3.0691,3.0711,3.069,3.069,3.069,3.0676,3.0629,3.0621,3.0576,3.0462,3.0452,3.0367,3.0161,2.9589,2.9159,2.8941,0.0,0.0,0.0,0.0,0.0,0.0,0.0,0.0,0.0,0.0,0.0,0.0,0.0,0.0,0.0,0.0,0.0,0.0,0.0,0.0,0.0,0.0,0.0,0.0,0.0,0.0,0.0,0.0,0.0,2.3038,2.3653,0.0,0.0,0.0,0.0,2.4168,2.5083,2.5993,2.6838,2.6899,2.7651,2.932,3.0204,3.1096,3.1958,3.2791,3.322,3.3259,3.3317,3.3336,3.3341,3.338,3.3376,3.3333,3.3335,3.3301,3.3146,3.144,3.0287,2.9593,2.9552,2.9025,2.8401,2.922,2.9533,2.965,3.047,3.0743,3.0743,3.0743,3.0782,3.0841,3.0841,3.088,0.0,0.0,3.0899,3.088,3.0821,3.0801,3.0801,3.0801,3.0801,3.0801,3.0801,3.0801,3.0801,3.0801,3.0801,3.0796,3.0801,0.0,3.0786,3.0714,3.0703,3.0691,3.0697,3.0697,3.069,3.069,3.069,3.069,3.071,3.069,3.0661,3.0595,3.0595,3.0501,3.0304,3.0247,3.019,3.0112,2.9956,0.0,0.0,0.0,0.0,0.0,0.0,0.0,0.0,0.0,0.0,0.0,0.0,0.0,0.0,0.0,0.0,0.0,0.0,0.0,0.0,0.0,0.0,0.0,0.0,0.0,0.0,0.0,0.0,2.3942,2.5098,0.0,2.4763,2.5457,2.5999,2.6035,2.7348,2.8538,2.939,2.9944,3.0798,3.1971,3.2313,3.262,3.2922,3.3244,3.3395,3.3414,3.3921,3.4174,3.4199,3.4807,3.4771,3.4233,3.4237,3.3916,3.3358,3.2739,3.2309,3.2051,3.2051,3.1504,3.0782,3.1094,3.0841,3.0411,3.0704,3.0801,3.0801,3.0801,3.0821,3.0841,3.0841,3.0841,3.0841,3.0841,3.0841,3.0841,3.0801,3.0801,3.0801,3.0801,3.0801,3.0801,3.0801,3.0801,3.0801,3.0801,3.0801,3.0799,3.0794,3.0794,3.0789,3.0769,3.0736,3.0704,3.0697,3.069,3.069,3.069,3.069,3.069,3.069,3.069,3.0683,3.0661,3.0661,3.0565,3.037,3.0359,3.029,3.0136,3.0011,3.0026,0.0,0.0,0.0,0.0,0.0,0.0,0.0,0.0,0.0,0.0,0.0,0.0,0.0,0.0,0.0,0.0,0.0,0.0,0.0,0.0,0.0,0.0,0.0,0.0,0.0,0.0,2.5718,2.4842,2.6303,2.7023,2.6131,2.7355,2.8226,2.8279,2.9854,3.1077,3.1656,3.2229,3.279,3.3379,3.3682,3.3838,3.3843,3.4106,3.4233,3.4252,3.4778,3.5032,3.5056,3.5676,3.5654,3.5131,3.5134,3.481,3.4276,3.4276,3.4276,3.4217,3.3632,3.3046,3.2539,3.2539,3.2168,3.168,3.168,3.168,3.168,3.168,3.168,3.168,3.168,3.168,3.168,3.168,3.168,3.168,3.168,3.168,3.168,3.168,3.168,3.168,3.168,3.168,3.168,3.168,3.1192,3.0799,3.0794,3.0806,3.0896,3.1193,3.093,3.0911,3.1508,3.1319,3.1254,3.1545,3.1584,3.1584,3.1584,3.1584,3.1584,3.1584,3.1523,3.1426,3.1251,3.1281,3.1172,3.0949,3.0551,3.0402,3.0505,0.0,0.0,0.0,0.0,0.0,0.0,0.0,0.0,0.0,0.0,0.0,0.0,0.0,0.0,0.0,0.0,0.0,0.0,0.0,0.0,0.0,0.0,0.0,2.4507,2.5874,2.6669,2.5863,2.7323,2.8062,2.7195,2.9383,3.088,3.088,3.2446,3.3415,3.3434,3.3442,3.3457,3.3477,3.4311,3.4759,3.474,3.5549,3.5928,3.5908,3.5908,3.5889,3.5894,3.5908,3.5938,3.5992,3.5996,3.6009,3.5991,3.5991,3.5991,3.5835,3.4139,3.3456,3.3437,3.3437,3.3417,3.3398,3.3398,3.3398,3.3398,3.3398,3.3398,3.3398,3.3398,3.3398,3.3398,3.3398,3.3398,3.3398,3.3398,3.3398,3.3398,3.3398,3.3398,3.3398,3.3398,3.3398,3.3398,3.3398,3.2051,3.0875,3.0879,3.0856,3.1135,3.2016,3.1364,0.0,3.307,3.2557,3.238,3.3235,3.3332,3.3332,3.3332,3.3332,3.3313,3.3293,3.3169,3.3044,3.2899,3.296,3.2858,3.2592,3.1708,3.121,3.1138,0.0,0.0,0.0,0.0,0.0,0.0,0.0,0.0,0.0,0.0,0.0,0.0,0.0,0.0,0.0,0.0,0.0,0.0,0.0,0.0,0.0,0.0,2.7184,2.6314,2.7738,2.8996,2.9322,3.0367,3.1209,3.1574,3.226,3.2695,3.2695,3.3135,3.3675,3.4308,3.4347,3.4636,3.5279,3.609,3.6226,3.565,3.6445,3.6532,3.5908,3.5908,3.5904,3.5892,3.5957,3.5972,3.5996,3.6009,3.5999,3.5991,3.5991,3.5991,3.5952,3.5464,3.4901,3.4334,3.4334,3.3944,3.3398,3.3398,3.3398,3.3398,3.3398,3.3398,3.3398,3.3398,3.3398,3.3398,3.3398,3.3398,3.3398,3.3398,3.3398,3.3398,3.3398,3.3398,3.3398,3.3398,3.3398,3.3398,3.3398,3.3007,3.2692,3.269,3.2155,3.2031,3.2849,3.274,3.2757,3.323,3.3087,3.3254,3.407,3.4167,3.4167,3.4167,3.4167,3.3879,3.3199,3.3064,3.2979,3.2827,3.2749,3.2622,3.2476,3.2196,3.2048,0.0,0.0,0.0,0.0,0.0,0.0,0.0,0.0,0.0,0.0,0.0,0.0,0.0,0.0,0.0,0.0,0.0,0.0,0.0,0.0,0.0,0.0,2.7857,2.9277,2.9104,2.9977,3.0958,3.1797,3.2343,3.2831,3.3358,3.3729,3.3944,3.3944,3.4622,3.5236,3.5713,3.6083,3.6512,3.7039,3.7498,3.7518,3.7058,3.7508,3.7492,3.6999,3.6999,3.6982,3.6976,3.6648,3.6522,3.6521,3.6157,3.6208,3.654,3.654,3.6755,3.7028,0.0,0.0,0.0,0.0,3.492,3.4491,3.4491,3.4491,3.4491,3.4491,3.4491,3.4491,3.4491,3.4491,3.4491,3.4491,3.4491,3.4491,3.4491,3.4491,3.4491,3.4491,3.4491,3.4491,3.4491,3.4491,3.4491,3.4491,3.4198,0.0,3.4432,3.3446,3.2893,3.376,3.355,3.3553,3.4307,3.4046,3.4128,3.4964,3.5041,3.5041,3.5041,3.5041,0.0,0.0,0.0,3.4017,3.3848,3.3646,0.0,0.0,0.0,3.2882,3.2826,3.2449,0.0,0.0,3.0897,3.0932,0.0,0.0,0.0,0.0,0.0,0.0,0.0,0.0,0.0,0.0,0.0,0.0,0.0,0.0,0.0,0.0,2.9859,3.1344,3.226,3.2383,3.2675,3.3459,3.3554,3.3593,3.369,3.4471,3.4998,3.4998,3.6515,3.7422,3.7351,0.0,0.0,0.0,0.0,3.8599,3.8502,3.861,3.8594,3.85,3.85,3.8507,3.8466,3.7704,3.7382,3.7398,3.6626,3.6735,3.7458,3.7458,3.7906,3.8456,3.6891,3.6228,3.615,3.615,3.6069,3.5991,3.5991,0.0,0.0,3.5991,3.5991,3.5991,3.5991,3.5991,3.5991,3.5991,3.5991,3.5991,3.5991,3.5991,3.5991,3.5991,3.5991,3.5991,3.5991,3.5991,3.5991,3.5991,3.5389,3.5096,3.5876,3.4577,3.3756,3.4694,3.4121,3.4144,3.5696,3.5162,3.4983,3.5857,3.5954,0.0,3.5954,3.5954,3.5907,3.5801,3.5649,3.547,3.5266,3.5018,3.4889,3.487,3.4112,3.3658,3.3531,3.2762,3.2386,3.2367,3.2374,3.2372,0.0,0.0,0.0,0.0,0.0,0.0,0.0,0.0,0.0,0.0,0.0,0.0,0.0,0.0,0.0,2.9051,3.0728,3.2417,3.3986,3.4198,3.4256,3.4432,3.4452,3.4725,3.5428,3.6286,3.6794,3.6794,3.777,3.831,3.8241,3.8466,3.8561,3.8502,3.9173,3.9213,3.8502,3.9195,3.9204,3.8502,3.8505,0.0,3.8487,3.8332,3.8281,3.8341,3.8163,3.818,3.8355,3.8355,3.8456,3.8573,3.8238,3.7672,3.7048,3.7048,3.6599,3.5991,3.5991,3.5991,3.5991,3.5991,3.5991,3.5991,3.5991,3.5991,0.0,3.5991,3.5991,3.5991,3.5991,3.5991,3.5991,3.5991,3.5991,3.5991,3.5991,3.5991,3.5991,3.5991,3.5857,3.5798,3.5971,3.5084,3.4642,3.5524,3.5463,3.5449,3.5788,3.5663,3.5877,3.677,3.6848,3.6848,3.6848,3.6848,3.653,3.5776,3.5476,3.5239,3.4982,3.4945,3.4812,3.4647,3.4478,3.4381,3.4358,3.4189,3.4113,3.4076,3.2765,3.2164,0.0,0.0,0.0,0.0,0.0,0.0,0.0,0.0,0.0,0.0,0.0,2.5527,0.0,0.0,2.9414,3.1179,3.2557,3.3711,3.4586,3.5089,3.5357,3.5349,3.5349,3.5681,3.6579,3.7048,3.7477,3.7926,3.8726,3.9192,3.9142,3.9595,3.9845,3.9809,4.0223,4.0242,3.9809,4.0233,4.0223,3.9789,3.9803,3.9798,3.9799,3.9348,3.918,3.9175,3.8765,3.8824,3.9234,3.9663,3.9839,3.9839,3.9839,3.9078,3.7946,3.7946,3.7672,3.7301,3.7301,3.7301,3.7223,3.6794,3.6657,3.6579,3.613,3.5991,3.5991,3.5991,3.5991,3.5991,3.5991,3.5991,3.5991,3.5991,3.5991,3.5991,3.5991,3.5991,3.5991,3.5991,3.5991,3.5991,3.5962,3.5563,3.5402,3.583,3.5852,3.5799,3.5799,3.5799,3.5974,3.6401,3.6459,3.6459,3.6459,3.6459,3.6239,3.5728,3.5519,3.5311,3.5168,3.5049,3.4926,3.4751,3.4751,3.471,3.4602,3.4602,3.4602,3.4583,3.3738,3.3344,0.0,0.0,0.0,0.0,0.0,0.0,0.0,0.0,2.4351,2.6092,2.6578,2.7375,2.9605,3.0141,3.1005,3.3281,3.4238,3.4766,3.4922,3.5565,3.6007,3.5994,3.5991,3.6345,3.7223,3.7458,3.7906,3.8765,3.9585,4.005,4.0044,4.0727,4.109,4.1096,4.1096,4.1096,4.1091,4.1091,4.1111,4.11,4.1095,4.109,4.1089,4.0365,4.0059,4.0015,3.937,3.9449,4.0112,4.0815,4.1108,4.1108,4.1108,4.0268,3.9081,3.8902,3.8726,3.8593,3.8593,3.8593,3.8475,3.777,3.7555,3.7419,3.6716,3.6501,3.6462,3.6306,3.6247,3.6208,3.603,3.5991,3.5991,3.5991,3.5991,3.5991,3.5991,3.5991,3.5991,3.5991,3.5991,3.5988,3.5912,3.5909,3.5908,3.5903,3.5845,3.5799,3.5799,3.5799,3.5799,3.5799,3.5799,3.5799,3.5799,3.5799,3.5773,3.5708,3.5566,3.5457,3.5364,3.5146,3.4997,3.4831,3.485,3.4771,3.4602,3.4602,3.4602,3.4602,3.4602,3.4602,2.0976,2.1209,0.0,2.3749,2.41,2.4746,0.0,0.0,2.7068,2.8799,2.9734,3.0554,3.1608,3.2438,3.332,3.4373,3.4648,3.4961,3.5742,3.5936,3.6007,3.5994,3.5991,3.6345,3.7223,3.8004,3.8785,3.9605,4.0464,4.0952,4.0952,4.1049,4.1104,4.1094,4.109,4.1105,4.1096,4.1091,4.1091,4.1091,4.11,4.1094,4.1091,4.0991,4.0957,4.0952,4.0854,4.0873,4.0952,4.1049,4.1108,4.1108,4.1108,4.0991,4.0737,3.9956,3.9214,3.8593,3.8593,3.8593,3.8573,3.8495,3.8456,3.8436,3.8336,3.8316,3.8141,3.7379,3.7145,3.6989,3.6208,3.5991,3.5991,3.5991,3.5991,3.5991,3.5991,3.5991,3.5991,3.5991,3.5991,3.5988,3.5912,3.5909,3.5903,3.5892,3.585,3.5799,3.5799,3.5799,3.5799,3.5799,3.5799,3.5799,3.5799,3.5799,3.5773,3.5708,3.5566,3.5386,3.5146,3.4999,3.4831,3.4626,3.4626,3.4604,3.4602,3.4602,3.4602,3.4602,3.4602,3.4602,2.283,0.0,0.0,0.0,2.5545,2.6463,2.858,2.8761,2.9135,3.135,3.207,3.2578,3.3456,3.391,3.4443,0.0,3.5469,3.5586,3.5957,3.5996,3.5992,3.5996,3.5991,3.654,3.7926,3.8394,3.9136,4.0464,4.0893,4.1108,4.1108,4.1108,4.1104,4.1094,4.1094,4.1109,4.1096,4.1091,4.1091,4.1091,4.11,4.1094,4.1091,4.1108,4.1094,4.1108,4.1108,4.1108,4.1108,4.1108,4.1108,4.1108,4.1108,4.1108,4.1049,4.0698,4.0346,4.0054,4.0054,4.0054,3.9976,3.9468,3.9292,3.9214,3.8746,3.8593,3.8514,3.816,3.8063,3.7965,3.7614,3.7145,3.6755,3.6755,3.6364,3.5991,3.5991,3.5991,3.5991,3.5991,3.5991,3.5985,3.5914,3.5899,3.5891,3.5857,3.5826,3.5799,3.5799,3.5799,3.5799,3.5799,3.5799,3.5799,3.5799,3.5799,3.5736,3.5577,3.5531,3.5386,3.5114,3.5049,3.4944,3.4791,3.4771,3.471,3.4602,3.4602,3.4602,3.4602,3.4602,3.4602,2.3745,0.0,0.0,2.6379,2.7415,2.8492,3.0259,3.0652,3.1161,3.3027,3.3593,3.3947,3.4588,3.4901,3.5276,3.5897,3.5996,3.5996,3.5996,3.5996,3.5995,3.6005,3.6216,3.6953,3.8456,3.8593,3.9295,4.0971,4.1108,4.1108,4.1108,4.1108,4.1104,4.1097,4.1094,4.1109,4.11,4.1096,4.1091,4.1096,4.1081,4.1088,4.1092,4.1093,4.1091,4.1108,4.1108,4.1108,4.1108,4.1108,4.1108,4.1108,4.1108,4.1108,4.1108,4.1108,4.1108,4.1108,4.1108,4.1108,4.0991,4.0366,4.0151,4.0054,3.9468,3.9295,3.9234,3.9,3.8921,3.8882,3.8671,3.8121,3.7653,3.7653,3.7184,3.6716,3.6716,3.6716,3.6716,3.6716,3.6716,3.6707,3.6631,3.642,3.6242,3.6173,3.5962,3.5799,3.5799,3.5799,3.5799,3.5799,3.5799,3.5799,3.5799,3.5799,3.5718,3.5507,3.5451,3.5311,3.5066,3.4978,3.4907,3.4831,3.4831,3.4751,3.4602,3.4602,3.4602,3.4602,3.4602,3.4733,0.0,0.0,2.5224,2.8632,3.0095,3.1149,3.2892,3.328,3.3319,3.3378,3.4061,3.4666,3.4705,3.5389,3.5977,3.601,3.5992,3.5993,3.5996,3.5996,3.5996,3.5996,3.6755,3.7606,0.0,3.8593,3.9295,4.0971,4.1108,4.1108,4.1108,4.1108,4.1108,4.1108,4.1097,4.1094,4.1094,4.11,4.1091,4.1096,4.1035,4.103,4.1092,4.1105,4.1091,4.1108,4.1108,4.1108,4.1108,4.1108,4.1108,4.1108,4.1108,4.1108,4.1108,4.1108,4.1108,4.1108,4.1108,4.1108,4.1108,4.1069,4.1049,4.1049,4.103,4.101,4.0854,3.9995,3.9761,3.9585,3.8804,3.8573,3.8553,3.8553,3.8534,3.8514,3.8514,3.8514,3.8514,3.8514,3.8514,3.8509,3.8428,3.7722,3.7144,3.7072,3.6328,3.5799,3.5799,3.5799,3.5799,3.5799,3.5799,3.5799,3.5799,3.5799,3.5718,3.5507,3.532,3.5127,3.4908,3.473,3.4604,3.4623,3.4623,3.4623,3.4602,3.4602,3.4602,3.4602,3.4602,3.5052,2.3657,0.0,2.8205,2.9961,3.1464,3.2829,3.4007,3.3827,3.3554,3.4139,3.358,3.2962,3.2962,3.3695,3.4273,3.4278,3.5245,3.601,3.6005,3.5994,3.5996,3.5996,3.6775,0.0,0.0,0.0,0.0,4.101,4.1108,4.1108,4.1108,4.1108,4.1108,4.1108,4.1104,4.1101,4.1094,4.1109,4.11,4.1096,4.1087,4.1074,4.1093,4.1111,4.1097,4.1108,4.1108,4.1108,4.1108,4.1108,4.1108,4.1108,4.1108,4.1108,4.1108,4.1108,4.1108,4.1108,4.1108,4.1108,4.1108,4.1108,4.1108,4.1108,4.1108,4.1108,4.103,4.0756,4.0659,4.06,4.0327,3.9819,3.939,3.939,3.898,3.8593,3.8593,3.8593,3.8593,3.8593,3.8561,3.8526,3.8502,3.8215,3.7987,3.7969,3.672,3.5799,3.5799,3.5799,3.5799,3.5799,3.5799,3.5799,3.5799,3.5756,3.5607,3.532,3.5193,3.4997,3.471,3.4645,3.4602,3.4602,3.4602,3.4602,3.4602,3.5184,3.5465,3.5484,3.601,3.6404,2.5657,2.7813,2.9889,3.171,3.3005,3.3984,3.4564,3.4261,3.3944,3.4178,3.3096,3.2107,3.2103,3.2567,3.2836,3.2556,3.3951,3.5066,3.5076,3.5341,3.578,3.6387,3.7226,3.8119,0.0,0.0,0.0,4.1052,4.1108,4.1108,4.1108,4.1108,4.1108,4.1108,4.1108,4.1104,4.1101,4.1094,4.1101,4.1094,4.1073,4.1071,4.1099,4.109,4.1109,4.1108,4.1108,4.1108,4.1108,4.1108,4.1108,4.1108,4.1108,4.1108,4.1108,4.1108,4.1108,4.1108,4.1108,4.1108,4.1108,4.1108,4.1108,4.1108,4.1108,4.1108,4.1108,4.1108,4.1108,4.1108,4.1108,4.0678,4.0268,4.0268,3.9878,3.9488,3.9488,3.9484,3.9497,3.9497,3.9438,3.9394,3.9396,3.9091,3.8762,3.8449,3.745,3.6731,3.6731,3.6459,3.6265,3.6265,3.5993,3.5799,3.5799,3.5728,3.5697,3.5676,3.5572,3.5515,3.5487,3.5484,3.5484,3.5484,3.5484,3.5484,3.5484,3.6047,3.6329,3.6329,3.6855,3.7249,2.8365,2.9576,3.0464,3.3766,3.4605,3.4615,3.4687,3.4621,3.4315,3.3456,3.2549,3.189,0.0,0.0,3.1714,3.0901,3.2285,3.3453,3.3412,3.4195,3.5396,0.0,0.0,0.0,0.0,0.0,0.0,4.1091,0.0,4.1111,4.1091,4.1091,4.1108,4.1108,4.1108,4.1108,4.1108,4.1101,4.1101,4.1092,4.1035,4.1047,4.1091,4.1091,4.1109,4.1108,4.1108,4.1108,4.1108,4.1108,4.1108,4.1108,4.1108,4.1108,4.1108,4.1108,4.1108,4.1108,4.1108,4.1108,4.1108,4.1108,4.1108,4.1108,4.1108,4.1108,4.1108,4.1108,4.1108,4.1108,4.1108,4.1108,4.1108,4.1108,4.1108,4.1108,4.1108,4.109,4.1091,4.1091,4.105,4.1007,4.1007,4.0317,3.9482,3.8644,3.8518,3.8499,3.8402,3.7683,3.7178,3.7178,3.644,3.5926,3.5926,3.5863,3.6033,3.6527,3.6434,3.6577,3.7084,3.7099,3.7099,3.7099,3.7099,3.7099,3.7099,3.7136,3.7155,3.7155,3.7192,3.7643,2.9129,3.1274,3.3437,3.4374,3.4594,3.4615,3.4686,3.369,3.2513,3.1643,3.0284,2.906,0.0,0.0,0.0,2.9097,3.1999,0.0,3.3492,3.4703,0.0,3.7165,0.0,3.8945,3.9823,4.0621,0.0,0.0,4.1097,4.1099,4.1092,4.1101,4.1108,4.1108,4.1108,4.1108,4.1108,4.1101,4.1091,4.1094,4.1023,4.1042,4.1091,4.1091,4.1096,4.1105,4.1101,4.1108,4.1108,4.1108,4.1108,4.1108,4.1108,4.1108,4.1108,4.1108,4.1108,4.1108,4.1108,4.1108,4.1108,4.1108,4.1108,4.1108,4.1108,4.1108,4.1108,4.1108,4.1108,4.1108,4.1108,4.1108,4.1108,4.1108,4.1097,4.1105,4.1105,4.1061,4.1025,4.1025,4.1013,4.0984,4.0932,4.074,4.0509,4.0305,4.0266,3.98,3.8557,3.8207,3.8071,3.8071,3.7877,3.7695,3.7598,3.753,3.7434,3.7332,3.7186,3.7102,3.7103,3.7099,3.7099,3.7099,3.7099,3.7099,3.7099,3.7699,3.8,3.8019,3.8657,3.9051,3.1231,3.302,3.4563,3.501,3.4841,3.4369,3.3717,3.2519,3.1072,2.9469,2.8378,0.0,2.658,0.0,0.0,0.0,0.0,0.0,3.2324,3.3768,3.5606,0.0,3.8299,0.0,4.0312,4.0858,4.115,0.0,4.1116,4.1097,4.1108,4.1099,4.1108,4.1108,4.1108,4.1108,4.1108,4.1107,4.1093,4.1092,4.1033,4.1022,4.1056,4.1056,4.1061,4.1096,4.1109,4.1101,4.1108,4.1108,4.1108,4.1108,4.1108,4.1108,4.1108,4.1108,4.1108,4.1108,4.1108,4.1108,4.1108,4.1108,4.1108,4.1108,4.1108,4.1108,4.1108,4.1108,4.1108,4.1108,4.1108,4.1108,4.1108,4.1097,4.1105,4.1091,4.1061,4.1033,4.0986,4.0964,4.096,4.0935,4.0907,4.0907,4.0907,4.0907,4.0907,4.0558,3.9625,3.9198,3.8965,3.8965,3.8635,3.8355,3.8205,3.8143,3.8104,3.8136,3.804,3.8042,3.8193,3.8188,3.8188,3.8188,3.8188,3.8188,3.8188,3.8638,3.8863,3.8882,3.9352,3.9602,3.3634,3.4536,3.4749,3.5454,3.4975,3.3899,3.228,3.1242,2.9941,2.7499,0.0,2.6737,2.5858,2.7031,2.7637,2.6122,0.0,3.0723,3.0938,3.2363,3.4686,3.818,3.8607,3.9257,4.0937,4.1152,4.1191,4.1188,4.1138,4.1108,4.1108,4.1108,4.1108,4.1108,4.1108,4.1091,4.1097,4.1091,4.1093,4.1084,4.1019,4.1008,4.0994,4.0994,4.1025,4.1086,4.1091,4.1105,4.1104,4.1108,4.1108,4.1108,4.1108,4.1108,4.1108,4.1108,4.1108,4.1108,4.1108,4.1108,4.1108,4.1108,4.1108,4.1108,4.1108,4.1108,4.1108,4.1108,4.1108,4.1108,4.1108,4.1108,4.1101,4.11,4.1086,4.1075,4.1013,4.0991,4.0971,4.0917,4.0907,4.0907,4.0907,4.0907,4.0907,4.0907,4.0907,4.0907,4.0907,4.0286,3.9858,3.9858,3.917,3.8666,3.8531,3.8447,3.8554,3.8918,3.8893,3.9082,3.9583,3.9602,3.9602,3.9602,3.9602,3.9602,3.9602,3.9602,3.9602,3.9602,3.9602,3.9602,3.4061,3.4921,3.5358,3.4855,3.4068,3.3002,3.1315,3.031,0.0,0.0,2.7009,2.6737,2.5859,2.6542,2.7127,2.6823,0.0,0.0,0.0,0.0,3.4686,0.0,0.0,0.0,0.0,0.0,0.0,0.0,4.1103,4.1108,4.1108,4.1108,4.1108,4.1108,4.1108,4.1103,4.1093,4.1047,4.1013,4.1027,4.1013,4.0993,4.0994,4.0994,4.1013,4.1019,4.1086,4.1096,4.11,4.1101,4.1108,4.1108,4.1108,4.1108,4.1108,4.1108,4.1108,4.1108,4.1108,4.1108,4.1108,4.1108,4.1108,4.1108,4.1108,4.1108,4.1108,4.1108,4.1108,4.1108,4.1108,4.1097,4.11,4.1096,4.1058,4.1011,4.1003,4.0952,4.0917,4.0907,4.0907,4.0907,4.0907,4.0907,4.0907,4.0907,4.0907,4.0907,4.0907,4.0771,4.0694,4.0694,4.0518,4.0343,4.0204,4.0072,3.9921,3.9707,3.9702,3.9668,3.9602,3.9602,3.9602,3.9602,3.9602,3.9602,3.9602,3.9602,3.9602,3.9602,3.9602,3.9602,3.4156,3.4698,3.4951,3.4594,3.3535,3.214,3.0467,0.0,0.0,0.0,2.6019,2.5929,2.4586,0.0,0.0,0.0,0.0,0.0,0.0,0.0,0.0,0.0,0.0,0.0,0.0,0.0,0.0,4.1094,4.1108,4.1099,4.1099,4.1099,4.1097,4.1108,4.1108,4.1094,4.109,4.1023,4.1008,4.0992,4.1006,4.0976,4.0957,4.0972,4.1006,4.1006,4.102,4.1058,4.1056,4.1081,4.1094,4.1094,4.1104,4.1108,4.1108,4.1108,4.1101,4.1094,4.1094,4.1085,4.1057,4.1057,4.1074,4.1108,4.1108,4.1108,4.1108,4.1108,4.1108,4.1108,4.1108,4.1094,4.1091,4.1056,4.0999,4.0943,4.0943,4.0926,4.0907,4.0907,4.0907,4.0907,4.0907,4.0907,4.0907,4.0907,4.0868,4.0848,4.0848,4.0784,4.0776,4.0898,4.0837,4.0764,4.0602,4.0545,4.0319,3.9933,3.9889,3.9819,3.9602,3.9602,3.9602,3.9602,3.9602,3.9602,3.9602,3.9602,3.9602,3.9602,3.9602,3.9602,3.3789,3.4118,3.4089,3.3964,3.279,3.1258,2.957,2.8535,0.0,0.0,2.5074,2.4993,2.3632,0.0,0.0,0.0,0.0,0.0,0.0,0.0,0.0,0.0,0.0,0.0,0.0,0.0,0.0,4.1092,4.1093,4.1108,4.1105,4.1105,4.1103,4.1099,4.1093,4.108,4.1072,4.1003,4.0981,4.0986,4.0976,4.0971,4.0926,4.0971,4.0988,4.0996,4.0996,4.0991,4.1,4.1056,4.1086,4.1096,4.1097,4.1104,4.1108,4.1108,4.1097,4.1091,4.1091,4.1056,4.0994,4.0994,4.1047,4.1101,4.1101,4.1104,4.1108,4.1108,4.1108,4.1108,4.1108,4.109,4.1056,4.1,4.0941,4.0907,4.0907,4.0907,4.0907,4.0907,4.0907,4.0907,4.0907,4.0907,4.0907,4.0907,4.0837,4.08,4.08,4.0648,4.0642,4.0868,4.0804,4.0707,4.0559,4.0545,4.0353,3.9933,3.9867,3.9777,3.962,3.9602,3.9602,3.9602,3.9602,3.9602,3.9602,3.9602,3.9602,3.9602,3.9602,3.9602,3.257,3.3218,3.3035,3.2242,3.1381,3.0285,2.8618,0.0,0.0,2.5769,2.5021,2.4466,2.4313,2.3764,2.3828,0.0,0.0,2.661,0.0,0.0,0.0,0.0,0.0,0.0,0.0,0.0,0.0,4.1094,4.1091,4.1091,4.1094,4.1091,4.1101,4.1093,4.103,4.1007,4.1002,4.0933,4.0906,4.0897,4.0917,4.0935,4.0988,4.0935,4.0935,4.0996,4.0996,4.0996,4.1003,4.1,4.105,4.1096,4.1096,4.1094,4.1108,4.1108,4.1097,4.1091,4.1091,4.1056,4.0994,4.0994,4.1056,4.1096,4.1096,4.1094,4.1108,4.1108,4.1108,4.1108,4.1108,4.1057,4.1,4.0924,4.0897,4.0907,4.0907,4.0907,4.0907,4.0907,4.0907,4.0907,4.0907,4.0907,4.0907,4.0907,4.0837,4.08,4.08,4.0579,4.0515,4.0769,4.0688,4.0559,4.0438,4.0375,4.0196,3.9911,3.9781,3.9689,3.9602,3.9602,3.9602,3.9602,3.9602,3.9602,3.9602,3.9602,3.9602,3.9602,3.9602,3.9602,3.1768,3.2309,3.2126,3.1294,3.0442,2.9373,2.7699,0.0,2.6495,2.5184,2.4647,2.4089,2.3032,2.2557,2.2729,2.3942,2.4557,0.0,0.0,0.0,0.0,0.0,0.0,0.0,0.0,0.0,4.1108,4.1108,4.1105,4.1072,4.1032,4.1081,4.1081,4.1035,4.0961,4.0935,4.0934,4.0917,4.0897,4.0898,4.0898,4.0917,4.0935,4.0917,4.0917,4.0935,4.0935,4.0935,4.0943,4.0984,4.1025,4.1039,4.1045,4.1067,4.1109,4.1109,4.1105,4.1091,4.1056,4.1026,4.0991,4.0949,4.0991,4.1046,4.1045,4.1072,4.1109,4.1109,4.1101,4.1108,4.1094,4.105,4.0984,4.0926,4.0907,4.0907,4.0907,4.0907,4.0907,4.0907,4.0907,4.0907,4.0907,4.0868,4.0837,4.0837,4.0688,4.0564,4.0564,4.0469,4.0425,4.0495,4.0489,4.045,4.0415,4.0339,4.0158,3.9804,3.9717,3.9665,3.9602,3.9602,3.9602,3.9602,3.9602,3.9602,3.9602,3.9602,3.9602,3.9602,3.9602,3.9602,2.9815,3.0472,3.0598,3.0288,2.9201,2.8,0.0,0.0,2.5498,2.4585,2.3988,2.3251,2.2029,2.1806,2.2097,2.2968,2.4249,2.5679,2.7211,0.0,0.0,0.0,0.0,0.0,0.0,3.9819,4.1108,4.1108,4.1088,4.1055,4.0992,4.1004,4.1013,4.1003,4.0915,4.0876,4.0912,4.0884,4.0886,4.0907,4.0908,4.0898,4.0907,4.0907,4.0907,4.0907,4.0907,4.0907,4.0888,4.0943,4.098,4.0996,4.1006,4.1039,4.1061,4.1061,4.1075,4.1064,4.1026,4.0991,4.0952,4.0917,4.0935,4.096,4.0972,4.1013,4.1061,4.1061,4.1076,4.1066,4.1075,4.1032,4.0988,4.0917,4.0907,4.0907,4.0907,4.0907,4.0907,4.0907,4.0888,4.0868,4.0868,4.0804,4.0732,4.0732,4.0564,4.0406,4.0406,4.0392,4.0342,4.031,4.0307,4.0321,4.0317,4.0232,4.0041,3.9717,3.9689,3.9637,3.9602,3.9602,3.9602,3.9602,3.9602,3.9602,3.9602,3.9602,3.9602,3.9602,3.9602,3.9602,2.6292,2.7381,2.8238,2.9089,2.7412,2.5996,0.0,0.0,2.329,2.4214,2.3036,2.1818,2.1798,2.1805,2.2089,2.2968,2.5213,0.0,2.5746,0.0,0.0,0.0,0.0,0.0,0.0,3.9091,4.1108,4.1108,4.1031,0.0,4.0994,4.0866,4.0862,4.1007,4.0859,4.0839,4.0886,4.0823,4.0823,4.0907,4.0907,4.0898,4.0907,4.0907,4.0907,4.0907,4.0907,4.0907,4.0907,4.0907,4.0935,4.0996,4.0996,4.0999,4.0994,4.0994,4.1006,4.0996,4.0996,4.0963,4.0907,4.0907,4.0907,4.0907,4.0907,4.0949,4.0994,4.0994,4.0994,4.1007,4.1003,4.0996,4.0988,4.0917,4.0907,4.0907,4.0907,4.0907,4.0907,4.0907,4.0837,4.08,4.08,4.0688,4.0588,4.0588,4.0485,4.0406,4.0406,4.0344,4.031,4.0307,4.0196,4.0098,4.0098,3.9979,3.9857,3.9717,3.9631,3.9602,3.9602,3.9602,3.9602,3.9602,3.9602,3.9602,3.9602,3.9602,3.9602,3.9602,3.9602,3.9602,2.5329,2.6047,2.6207,2.5898,2.5212,2.4607,2.4605,0.0,2.2925,2.2682,2.2185,2.1801,2.1791,2.18,2.2279,2.375,2.5125,0.0,0.0,0.0,0.0,0.0,0.0,0.0,0.0,0.0,4.1078,4.1047,4.1019,4.0937,4.0787,4.075,4.0769,4.0862,4.0815,4.0823,4.0839,4.082,4.0812,4.0823,4.0886,4.0907,4.0898,4.0898,4.0907,4.0907,4.0907,4.0907,4.0907,4.0907,4.0917,4.0926,4.0926,4.096,4.0991,4.0991,4.1006,4.0993,4.1003,4.0988,4.0971,4.0917,4.0907,4.0907,4.0907,4.0952,4.0999,4.1007,4.0993,4.0991,4.0996,4.0971,4.0926,4.0907,4.0907,4.0907,4.0907,4.0907,4.0888,4.0837,4.0812,4.0776,4.0675,4.0545,4.0469,4.0469,4.0394,4.0327,4.0327,4.0308,4.0272,4.0177,4.004,3.996,3.996,3.9832,3.9717,3.9631,3.9602,3.9602,3.9602,3.9602,3.9602,3.9602,3.9602,3.9602,3.9602,3.9602,3.9602,3.9602,3.9602,3.9602,0.0,2.425,2.4467,2.4249,2.3722,0.0,0.0,0.0,2.2002,2.1844,2.1795,2.1806,2.1796,2.2344,2.3132,2.4215,2.5347,0.0,0.0,0.0,0.0,0.0,0.0,0.0,0.0,4.068,4.1033,4.0994,4.0937,4.084,4.0711,4.0681,4.0681,4.0723,4.0739,4.0771,4.0796,4.0796,4.0808,4.08,4.0834,4.0886,4.0907,4.0898,4.0898,4.0907,4.0907,4.0907,0.0,4.0907,4.0907,4.0907,4.0907,4.0926,4.0952,4.0952,4.0968,4.0964,4.096,4.0952,4.0963,4.0917,4.0907,4.0907,4.0907,4.0926,4.096,4.0964,4.0949,4.0952,4.0952,4.0926,4.0907,4.0907,4.0907,4.0907,4.0907,4.0907,4.0888,4.0837,4.0781,4.0707,4.0602,4.0473,4.036,4.036,4.0327,4.0291,4.0234,4.0215,4.0158,3.9975,3.9854,3.9813,3.9807,3.9712,3.9637,3.9602,3.9602,3.9602,3.9602,3.9602,3.9602,3.9602,3.9602,3.9602,3.9602,3.9602,3.9602,3.9602,3.9602,3.9602,0.0,2.2105,0.0,0.0,0.0,0.0,0.0,0.0,0.0,2.1623,2.1798,2.185,2.1969,2.3302,2.4417,2.4475,2.5799,0.0,0.0,0.0,0.0,0.0,0.0,0.0,3.8161,3.9973,4.0987,4.0981,4.08,4.0694,4.0681,4.0626,4.0607,4.0607,4.066,4.0726,4.0788,4.0803,4.0803,4.0788,4.08,4.0823,4.0897,4.0897,4.0898,4.0907,4.0907,4.0907,4.0907,4.0907,4.0907,4.0907,4.0907,4.0907,4.0907,4.0907,4.0907,4.0907,4.0907,4.0907,4.0907,4.0907,4.0907,4.0907,4.0907,4.0907,4.0907,4.0907,4.0907,4.0878,4.0907,4.0907,4.0878,4.0907,4.0907,4.0907,4.0907,4.0907,4.0907,4.0878,4.0718,4.0607,4.0574,4.0413,4.0291,4.0291,4.0291,4.0234,4.0117,4.0077,3.9975,3.9717,3.9693,3.9665,3.9602,3.9602,3.9602,3.9602,3.9602,3.9602,3.9602,3.9602,3.9602,3.9602,3.9602,3.9602,3.9602,3.9602,3.9602,3.9602,3.9677,3.9695,2.0634,0.0,2.105,2.1241,2.1036,2.089,0.0,0.0,0.0,0.0,0.0,2.2209,2.3536,2.4124,2.4614,2.5297,0.0,0.0,0.0,0.0,0.0,0.0,0.0,3.6767,3.7439,3.9572,4.0902,4.0849,4.0754,4.0655,4.0564,4.0519,4.0558,4.0607,4.0612,4.0668,4.0726,4.0759,4.0803,4.0803,4.0808,4.08,4.0823,4.0826,4.0848,4.0898,4.0898,4.0908,4.0907,4.0907,4.0907,4.0907,4.0907,4.0907,4.0907,4.0907,4.0907,4.0907,4.0907,4.0907,4.0907,4.0907,4.0907,4.0907,4.0907,4.0907,4.0907,4.0907,4.0858,4.0846,4.0888,4.0858,4.0846,4.0888,4.0907,4.0907,4.0907,4.0907,4.0849,4.0694,4.0629,4.0549,4.0415,4.0253,4.0137,4.0137,4.0057,3.9975,3.9954,3.9848,3.9762,3.9717,3.9661,3.9626,3.9602,3.9602,3.9602,3.9602,3.9602,3.9602,3.9602,3.9602,3.9602,3.9602,3.9602,3.9602,3.9602,3.9602,3.9602,3.962,4.0215,4.0516,2.0439,2.0448,2.0452,2.0448,2.0473,2.05,0.0,0.0,0.0,0.0,0.0,0.0,2.4236,2.5038,0.0,0.0,0.0,0.0,0.0,0.0,0.0,0.0,0.0,3.6715,0.0,4.0042,4.078,4.0711,4.0648,4.0583,4.0504,4.0489,4.0523,4.0539,4.0579,4.0621,4.07,4.0778,4.079,4.079,4.0796,4.0808,4.08,4.0792,4.0826,4.0848,4.0848,4.0858,4.0908,4.0908,4.0898,4.0907,4.0907,4.0907,4.0907,4.0907,4.0907,4.0907,4.0907,4.0907,4.0907,4.0907,4.0907,4.0907,4.0907,4.0907,4.0907,4.0907,4.0848,4.0812,4.0837,4.0834,4.0812,4.0856,4.0878,4.0898,4.0858,4.0848,4.0796,4.0629,4.0534,4.0425,4.0308,4.0138,4.0015,4.0015,3.9951,3.9889,3.9826,3.9739,3.9693,3.9661,3.9607,3.9602,3.9602,3.9602,3.9602,3.9602,3.9602,3.9602,3.9602,3.9602,3.9602,3.9602,3.9602,3.9602,3.9602,3.9952,4.014,4.0159,4.0985,4.136,2.0458,2.0603,2.0666,2.0521,2.0495,2.0535,2.0672,0.0,0.0,0.0,0.0,0.0,0.0,0.0,0.0,0.0,0.0,0.0,0.0,0.0,0.0,0.0,3.5154,0.0,3.9857,4.051,4.0674,4.0577,4.0523,4.0499,4.0508,4.0508,4.0508,4.0489,4.0579,4.0621,4.0668,4.0759,4.079,4.079,4.079,4.0803,4.0788,4.0788,4.0812,4.0796,4.0796,4.0837,4.0897,4.0897,4.0898,4.0898,4.0907,4.0907,4.0907,4.0907,4.0907,4.0907,4.0907,4.0907,4.0907,4.0907,4.0907,4.0907,4.0907,4.0907,4.0907,4.0888,4.0826,4.0776,4.0776,4.0776,4.0776,4.0788,4.0837,4.0878,4.0834,4.0788,4.072,4.0588,4.0406,4.0252,4.0233,4.0039,3.9867,3.9867,3.9867,3.9823,3.9712,3.967,3.9642,3.9602,3.9602,3.9602,3.9602,3.9602,3.9602,3.9602,3.9602,3.9602,3.9602,3.9602,3.9602,3.9602,3.9733,3.9765,3.9808,4.0591,4.0985,4.1004,4.183,4.2205,2.0294,2.1032,2.1413,2.0679,2.0504,2.0698,0.0,0.0,0.0,0.0,0.0,0.0,0.0,0.0,0.0,0.0,0.0,0.0,0.0,0.0,0.0,3.3576,0.0,3.691,3.7456,3.9431,4.0654,4.0515,4.0444,4.0449,4.0499,4.0499,4.0495,4.0489,4.0579,4.0602,4.0621,4.0746,4.079,4.079,4.079,4.0803,4.0803,4.0803,4.0796,4.08,4.08,4.0804,4.0818,4.0877,4.0907,4.0888,4.0898,4.0907,4.0907,4.0907,4.0907,4.0907,4.0907,4.0907,4.0907,4.0907,4.0907,4.0907,4.0907,4.0907,4.0898,4.0826,4.0732,4.0635,4.0635,4.0635,4.0662,4.0776,4.0812,4.0834,4.0878,4.0655,4.0457,4.0442,4.0266,4.01,3.9977,3.9848,3.9717,3.9717,3.9684,3.965,3.9626,3.9626,3.9602,3.9602,3.9602,3.9602,3.9602,3.9602,3.9602,3.9602,3.9602,3.9602,3.9602,3.9602,3.9602,3.9602,4.0272,4.0609,4.0609,4.1436,4.183,4.1849,4.2712,4.3106,1.9724,2.0133,2.0684,2.1662,2.2603,2.341,0.0,0.0,0.0,0.0,0.0,0.0,0.0,0.0,0.0,0.0,0.0,0.0,0.0,3.2251,3.3229,0.0,0.0,3.7475,3.8722,3.987,4.0504,4.0392,4.036,4.0379,4.0432,4.0485,4.0499,4.0495,4.0573,4.0598,4.0598,4.0706,4.0759,4.079,4.079,4.079,4.079,4.079,4.0803,4.0796,4.0796,4.0788,4.0804,4.0834,4.0846,4.0848,4.0839,4.0828,4.0807,4.0837,4.0837,4.0848,4.0888,4.0907,4.0907,4.0907,4.0907,4.0907,4.0907,4.0907,4.0859,4.0725,4.0648,4.0574,4.0515,4.0545,4.0621,4.0675,4.0769,4.0846,4.0807,4.0596,4.0383,4.0317,4.0081,3.9854,3.9804,3.9708,3.9637,3.9637,3.9607,3.9602,3.9602,3.9602,3.9602,3.9602,3.9602,3.9602,3.9602,3.9602,3.9602,3.9602,3.9602,3.9602,3.9602,3.9602,3.9783,4.0234,4.0609,4.1004,4.1454,4.2299,4.2712,4.2731,4.3557,4.3951,1.9236,1.9597,2.0419,2.2564,0.0,0.0,0.0,0.0,0.0,0.0,0.0,0.0,0.0,0.0,0.0,0.0,0.0,3.0172,3.1244,3.2135,3.3247,3.4803,3.6474,3.828,4.0292,4.0438,4.0356,4.0308,4.0308,4.0326,4.0379,4.0432,4.037,4.0194,4.0273,4.0207,4.001,4.0081,4.0314,4.0778,4.079,4.079,4.079,4.079,4.079,4.079,4.079,4.0803,4.0808,4.0788,4.0792,4.0796,4.0807,4.0742,4.0649,4.0668,4.07,4.0738,4.0818,4.0859,4.0898,4.0907,4.0907,4.0907,4.0907,4.0907,4.0859,4.0655,4.0588,4.0579,4.0425,4.0454,4.0559,4.0588,4.0713,4.0804,4.075,4.0554,4.0372,4.0232,3.996,3.9717,3.9689,3.9631,3.9602,3.9602,3.9602,3.9602,3.9602,3.9602,3.9602,3.9602,3.9602,3.9602,3.9602,3.9602,3.9602,3.9602,3.9602,3.9602,3.9602,3.9765,4.0159,4.0797,4.1191,4.1698,4.2318,4.3163,4.3576,4.3567,4.4186,4.4487,1.9087,2.0486,2.1947,2.2877,2.2019,0.0,2.591,2.5607,0.0,2.7446,0.0,0.0,0.0,0.0,0.0,0.0,0.0,3.21,3.3785,0.0,3.567,3.6613,3.8214,3.956,4.0408,4.0438,4.0375,4.031,4.031,4.0291,4.0307,4.0307,3.9996,3.9314,3.9358,3.9037,3.829,3.8279,3.911,4.07,4.0778,4.079,4.079,4.079,4.079,4.079,4.079,4.079,4.0803,4.0808,4.08,4.08,4.0796,4.068,4.0491,4.0323,4.0354,4.0524,4.0604,4.0742,4.0888,4.0898,4.0907,4.0907,4.0907,4.0907,4.0859,4.0655,4.0588,4.0564,4.0363,4.036,4.0454,4.0559,4.0602,4.0675,4.0846,4.0615,4.0353,4.0229,4.0022,3.9826,3.965,3.9602,3.9602,3.9602,3.9602,3.9602,3.9602,3.9602,3.9602,3.9602,3.9602,3.9602,3.9602,3.9602,3.9602,3.9602,3.9602,3.9602,3.9602,4.0309,4.0741,4.0797,4.2337,4.3144,4.32,4.4026,4.4393,4.4336,4.4393,4.4411,1.9059,2.0565,2.2087,2.2901,2.2612,0.0,0.0,2.7108,2.6904,2.7786,2.8401,0.0,0.0,0.0,0.0,0.0,3.1573,3.2883,3.4075,3.5025,3.5917,3.6791,3.8271,3.955,4.0412,4.0323,4.0234,4.031,4.031,4.0291,4.0291,3.983,3.9423,3.9147,3.8677,3.83,3.8036,3.8078,3.8433,3.9102,3.9657,4.0236,4.079,4.079,4.079,4.079,4.079,4.079,4.079,4.0803,4.0796,4.0784,4.07,4.0549,4.0361,4.0332,4.0298,4.0281,4.0468,4.0584,4.0667,4.0798,4.0839,4.0839,4.0839,4.0746,4.0623,4.0511,4.0386,4.0304,4.031,4.0362,4.0422,4.0469,4.0574,4.0688,4.0764,4.0621,4.045,4.0386,4.0213,4.006,3.9979,3.987,3.9777,3.9777,3.9679,3.9602,3.9602,3.9602,3.9602,3.9602,4.0046,4.0347,4.0347,4.0797,4.1098,4.1098,4.0609,4.0347,4.0347,4.1116,4.1785,4.2275,4.2893,4.3474,4.3905,4.4223,4.4373,4.4344,4.4344,4.4344,1.9961,2.1171,2.2538,2.3613,0.0,0.0,2.7214,2.7611,2.7554,2.8499,2.9147,0.0,0.0,0.0,0.0,0.0,3.2396,3.3609,3.4513,3.5186,3.5912,3.6742,3.792,3.9035,3.9876,3.9776,3.9831,4.0215,3.9986,3.9834,3.989,3.9104,3.8527,3.829,3.7782,3.739,3.7185,3.7247,3.7429,3.7693,3.8292,3.9213,4.0352,4.0352,4.0507,4.079,4.079,4.079,4.079,4.079,4.0746,4.0687,4.053,4.0353,4.0176,4.0158,4.0101,4.0061,4.0243,4.0389,4.0511,4.0655,4.0711,4.0711,4.0711,4.0565,4.0389,4.0317,4.0213,4.012,4.0157,4.0215,4.025,4.0304,4.0466,4.0615,4.0621,4.0602,4.0651,4.0847,4.0773,4.071,4.0863,4.0821,4.0758,4.0691,4.0552,4.0476,4.0476,4.0421,4.0347,4.0347,4.0854,4.1191,4.1191,4.1698,4.1991,4.1965,4.1728,4.1447,4.1166,4.1927,4.2612,4.3138,4.3418,4.3801,4.4285,4.4285,4.4285,4.4274,4.4274,4.4274,2.1891,2.2498,2.3526,0.0,0.0,0.0,2.716,2.6678,2.6437,2.9748,0.0,3.0687,3.1542,0.0,0.0,3.3005,3.3672,3.4532,3.5476,3.5589,3.5854,3.6612,3.7352,3.8049,3.8728,3.8743,3.9062,4.0001,3.9298,3.8842,3.8992,3.8151,3.7309,3.6517,3.6565,3.6213,3.5398,3.546,3.5925,3.6787,3.6787,3.77,3.9387,3.9387,3.9902,4.0771,4.079,4.079,4.079,4.079,4.0673,4.0489,4.0286,4.008,3.987,3.9679,3.9727,3.9914,3.9899,4.0156,4.0492,4.0496,4.0491,4.0491,4.0491,4.0354,4.017,4.012,4.0101,4.0061,3.9914,3.9889,3.9914,4.008,4.025,4.0422,4.0481,4.0662,4.0984,4.1594,4.1716,4.1869,4.2335,4.2557,4.262,4.2443,4.2397,4.2397,4.2416,4.2178,4.1991,4.1991,4.1991,4.1991,4.1991,4.201,4.1983,4.193,4.2735,4.2828,4.1948,4.2754,4.3156,4.3015,4.3855,4.4285,4.4285,4.4285,4.4255,4.4184,4.4184,4.4184,2.082,2.2873,0.0,0.0,0.0,0.0,0.0,2.7603,0.0,0.0,3.1314,3.1376,3.1578,0.0,0.0,3.3038,3.3635,3.4507,3.54,3.4988,3.5117,3.6474,3.6687,3.7066,3.7871,3.7809,3.786,3.8172,3.8061,3.7966,3.8004,3.7276,3.6755,3.6498,3.5978,3.5588,3.5398,3.5412,3.5575,3.5886,3.5886,3.6719,3.8281,3.842,3.8882,3.96,3.9747,4.0153,4.0733,4.0778,4.0759,4.0687,4.0489,4.0286,4.008,3.9892,3.9754,3.975,4.0001,4.0101,4.012,4.0419,4.0399,4.03,4.03,4.0157,3.9982,3.996,3.9848,3.9731,3.9703,3.9698,3.9727,3.9914,4.008,4.0232,4.0334,4.0958,4.1586,4.1865,4.2405,4.2859,4.3018,4.2972,4.2831,4.2638,4.2487,4.2328,4.2153,4.207,4.1991,4.1991,4.2562,4.2892,4.2856,4.3362,4.3652,4.3596,4.381,4.3567,4.2707,4.3511,4.393,4.3841,4.4084,4.4195,4.4097,4.4097,4.4085,4.4055,4.4055,4.4055,2.3062,0.0,0.0,0.0,0.0,0.0,0.0,0.0,0.0,0.0,0.0,3.2763,3.3083,3.4013,0.0,3.4026,3.4366,3.4912,3.5425,3.5001,3.4971,3.586,3.581,3.6027,3.6821,3.6791,3.692,3.733,3.7126,3.6996,3.7072,3.6365,3.5959,3.5968,3.5525,3.5308,3.5354,3.5383,3.5412,3.546,3.5417,3.5841,3.6661,3.7218,3.7862,3.8623,3.9166,3.9889,4.07,4.0778,4.0746,4.066,4.0457,4.0269,4.006,3.9848,3.9703,3.9626,3.987,3.9916,3.9956,4.0196,4.0177,4.008,4.008,3.9956,3.9777,3.9777,3.9703,3.9602,3.9602,3.9602,3.9626,3.975,3.9914,4.0041,4.012,4.0989,4.1898,4.2319,4.3167,4.3877,4.4129,4.4137,4.4039,4.3828,4.3693,4.3547,4.3293,4.319,4.3114,4.3114,4.3498,4.3727,4.3671,4.4092,4.4344,4.4255,4.4274,4.4002,4.3401,4.3946,4.4214,4.4135,4.4135,4.4085,4.4005,4.4005,4.4005,4.4005,4.4005,4.4005,2.6815,0.0,0.0,0.0,0.0,0.0,0.0,0.0,0.0,3.378,0.0,3.4485,3.5339,3.5493,3.5493,3.5493,3.5495,3.5502,3.5502,3.5374,3.5219,3.5015,3.487,3.5013,3.5623,3.5739,3.613,3.6996,3.6335,3.5965,3.6178,3.5492,3.5127,3.5209,3.5261,3.5293,3.5312,3.5339,3.535,3.5364,3.5207,3.5054,3.487,3.5885,3.6875,3.7859,3.8907,3.9863,4.07,4.0759,4.066,4.0473,4.0269,4.006,3.9848,3.9656,3.9596,3.9596,3.9626,3.975,3.987,3.9892,3.9892,3.987,3.987,3.9731,3.9602,3.9602,3.9602,3.9602,3.9602,3.9602,3.9602,3.9602,3.9731,3.9889,3.9987,4.096,4.205,4.2931,4.3979,4.4887,4.5426,4.5692,4.5737,4.5524,4.5472,4.5399,4.5222,4.4985,4.48,4.4776,4.4576,4.4411,4.4383,4.4314,4.4255,4.4184,4.4184,4.4135,4.4005,4.4104,4.4135,4.4005,4.4005,4.4005,4.4005,4.4005,4.4005,4.4005,4.4005,4.4005,0.0,2.5701,0.0,0.0,0.0,0.0,0.0,0.0,3.2842,3.3955,3.4712,3.5229,3.5388,3.546,3.5493,3.5493,3.5507,3.5501,3.5501,3.5335,3.5138,3.4962,3.4813,3.4727,3.478,3.4843,3.4961,3.5171,3.5105,3.5094,3.5192,3.5152,3.5127,3.5209,3.5209,3.5261,3.5312,3.5122,3.5032,3.5086,3.4908,3.4655,3.4464,3.5002,3.6136,3.7775,3.8687,3.9662,4.0621,4.0635,4.053,4.0317,4.012,3.988,3.966,3.9558,3.9495,3.9476,3.9754,3.975,3.9607,3.9826,3.98,3.9656,3.9656,3.9626,3.9602,3.9602,3.9602,3.9602,3.9602,3.9602,3.9602,3.9602,3.9626,3.9873,4.0662,4.1701,4.2774,4.3747,4.4812,4.5573,4.5708,4.5757,4.5737,4.5524,4.5362,4.5263,4.5201,4.5096,4.4943,4.4726,4.4674,4.4524,4.4274,4.4244,4.4165,4.4055,4.4036,4.4036,4.4005,4.4036,4.4036,4.4005,4.4005,4.4005,4.4005,4.4005,4.4005,4.4005,4.4005,4.4005,0.0,0.0,0.0,0.0,0.0,0.0,0.0,0.0,3.3058,3.3915,3.4798,3.5379,3.5364,3.5412,3.546,3.546,3.5493,3.5479,3.5369,3.5174,3.4982,3.4793,3.463,3.4542,3.4473,3.4539,3.4602,3.4602,3.4666,3.4749,3.4849,3.4946,3.5056,3.5143,3.5176,3.5176,3.5108,3.4962,3.487,3.4813,3.4614,3.4398,3.4184,3.4545,3.5681,3.7394,3.8075,3.9147,4.0415,4.0559,4.0481,4.0283,4.0082,3.984,3.9595,3.9489,3.9444,3.9425,3.9588,3.9558,3.9495,3.9631,3.9583,3.9502,3.9502,3.9502,3.9502,3.9502,3.9502,3.9502,3.9502,3.9502,3.9502,3.9502,3.9546,3.9802,4.0715,4.1684,4.2745,4.3788,4.4878,4.5642,4.5781,4.581,4.5742,4.5613,4.551,4.5437,4.5437,4.5323,4.5201,4.5052,4.4789,4.4541,4.4364,4.4207,4.4085,4.4005,4.4005,4.4005,4.4005,4.4005,4.4005,4.4005,4.4005,4.4005,4.4005,4.4005,4.4005,4.4005,4.4005,4.4005,0.0,0.0,0.0,0.0,0.0,0.0,0.0,0.0,3.2819,3.3608,3.4596,3.5315,3.5315,3.5345,3.5412,3.5412,3.546,3.5432,3.5226,3.5037,3.4831,3.4626,3.4473,3.4404,3.4386,3.4517,3.4602,3.4602,3.4602,3.4666,3.4788,3.4849,3.4964,3.5111,3.5143,3.5089,3.4889,3.4851,3.4735,3.4526,3.433,3.4117,3.3998,3.4269,3.5379,3.7081,3.7471,3.8625,4.0283,4.045,4.0419,4.0193,3.9983,3.9754,3.95,3.9413,3.9346,3.9346,3.9391,3.9373,3.9373,3.9391,3.9391,3.9391,3.9391,3.9391,3.9391,3.9391,3.9391,3.9391,3.9391,3.9391,3.9391,3.9391,3.9425,3.9713,4.0686,4.1525,4.2446,4.3681,4.4706,4.5454,4.575,4.5781,4.5765,4.5715,4.57,4.57,4.57,4.5547,4.5438,4.54,4.4938,4.4591,4.4484,4.424,4.4048,4.4005,4.4005,4.4005,4.4005,4.4005,4.4005,4.4005,4.4005,4.4005,4.4005,4.4005,4.4005,4.4005,4.4005,4.4005,0.0,0.0,0.0,0.0,0.0,0.0,0.0,0.0,3.1924,0.0,3.4212,3.5315,3.5315,3.5345,3.5412,3.5412,3.546,3.5432,3.5226,3.5037,3.4831,3.4626,3.4427,3.434,3.4386,3.4473,3.4539,3.4602,3.4602,3.4666,3.4788,3.4809,3.4907,3.5092,3.511,3.5038,3.4908,3.4674,3.4442,3.425,3.3979,3.3895,3.3921,3.4023,3.5226,3.7272,3.7394,3.8592,4.0438,4.0321,4.0101,3.984,3.9656,3.9408,3.9165,3.921,3.9202,3.9156,3.9346,3.9328,3.9256,3.9373,3.9391,3.9391,3.9391,3.9391,3.9391,3.9391,3.9391,3.9391,3.9391,3.9391,3.9391,3.9391,3.9328,3.9666,4.1315,4.1893,4.2542,4.412,4.489,4.54,4.5684,4.5715,4.5715,4.57,4.57,4.57,4.57,4.5671,4.5568,4.5342,4.5201,4.4919,4.4438,4.4374,4.425,4.4017,4.4005,4.4005,4.4005,4.4005,4.4005,4.4005,4.4005,4.4005,4.4005,4.4005,4.4005,4.4005,4.4005,4.4005,2.3687,0.0,0.0,0.0,0.0,0.0,0.0,0.0,3.1475,3.136,3.2675,3.3991,3.4466,3.499,3.5364,3.5379,3.5369,3.5258,3.5054,3.487,3.4628,3.4386,3.4316,3.4316,3.434,3.445,3.4517,3.4539,3.458,3.4623,3.4687,3.4768,3.4829,3.4927,3.5039,3.4946,3.4628,3.4548,3.433,3.3972,3.386,3.3834,3.386,3.3921,3.4779,3.6279,3.7062,3.8116,3.9316,3.9948,3.9982,3.9632,3.9532,3.935,3.9101,3.9129,3.9129,3.9101,3.9202,3.9202,3.9156,3.9202,3.9229,3.9229,3.9229,3.9229,3.9229,3.9229,3.9229,3.9229,3.9229,3.9229,3.9229,3.9229,3.9574,4.0216,4.1417,4.1754,4.2404,4.4329,4.503,4.5381,4.5654,4.5706,4.5687,4.5654,4.5635,4.5635,4.5635,4.5637,4.5586,4.5495,4.5302,4.5096,4.4872,4.4572,4.4346,4.4221,4.4079,4.4005,4.4005,4.4005,4.4228,4.4711,4.4246,4.4005,4.4005,4.4005,4.4005,4.4005,4.4506,4.4729,0.0,0.0,0.0,0.0,0.0,0.0,0.0,0.0,3.0987,0.0,3.1149,3.2241,3.3127,3.4202,3.4975,3.4994,3.5089,3.5107,3.4889,3.473,3.4495,3.4221,3.4245,3.4293,3.4316,3.4427,3.4495,3.4517,3.4561,3.4602,3.4602,3.4687,3.4768,3.4788,3.4927,3.4791,3.4386,3.4348,3.416,3.3807,3.3807,3.3807,3.3788,3.3868,3.4297,3.5118,3.6691,3.7764,3.8459,3.9619,3.9857,3.9483,3.9408,3.9272,3.9101,3.9101,3.9101,3.9101,3.9101,3.9101,3.9101,3.9101,3.9101,3.9101,3.9101,3.9101,3.9101,3.9101,3.9101,3.9101,3.9101,3.9101,3.9101,3.9101,3.977,4.068,4.1683,4.2073,4.2743,4.4524,4.503,4.5282,4.5622,4.5657,4.5657,4.5622,4.5586,4.5586,4.5586,4.5586,4.5586,4.5586,4.5419,4.5243,4.5096,4.4726,4.4551,4.4607,4.4426,4.4413,4.4636,4.4636,4.4934,4.5584,4.4971,4.4636,4.4636,4.4636,4.4636,4.4655,4.5305,4.5602,0.0,0.0,0.0,0.0,0.0,0.0,0.0,0.0,0.0,3.0204,3.0122,3.0311,3.1178,3.2829,3.4018,3.3887,3.4573,3.5016,3.4832,3.4689,3.4495,3.4221,3.4197,3.4245,3.4386,3.4386,3.4473,3.4602,3.4602,3.4602,3.4602,3.4623,3.4666,3.4788,3.4687,3.4539,3.4386,3.4023,3.3815,3.3807,3.3807,3.3807,3.3788,3.3868,3.3931,3.4094,3.634,3.7807,3.8662,3.9477,3.9683,3.9458,3.9219,3.9129,3.9101,3.9101,3.9101,3.9101,3.9101,3.9101,3.9101,3.9101,3.9101,3.9101,3.9101,3.9101,3.9101,3.9101,3.9101,3.9101,3.9101,3.9101,3.9101,3.9101,3.977,4.0828,4.2389,4.3336,4.4058,4.4682,4.48,4.5007,4.5513,4.5622,4.5603,4.5586,4.5586,4.5586,4.5586,4.5586,4.5586,4.5586,4.5586,4.5362,4.4849,4.4819,4.4904,4.522,4.5231,4.5565,4.6345,4.6364,4.6382,4.6438,4.6382,4.6364,4.6364,4.6364,4.6364,4.6364,4.642,4.6438,0.0,0.0,0.0,0.0,0.0,2.8217,2.8523,2.9421,3.0004,2.933,2.9573,2.959,2.8629,3.0445,3.2403,3.3392,3.3734,3.4031,3.4532,3.4454,3.4293,3.4221,3.4197,3.4221,3.4269,3.4316,3.434,3.4386,3.4495,3.4539,3.4539,3.458,3.4623,3.4666,3.4727,3.4623,3.4386,3.3998,3.3807,3.3807,3.3807,3.3807,3.3807,3.3815,3.3842,3.3976,3.5506,3.6574,3.7368,3.8852,3.9331,3.9101,3.9007,3.8979,3.8979,3.8979,3.9007,3.9036,3.9036,3.9045,3.9101,3.9101,3.9101,3.9101,3.9101,3.9101,3.9101,3.9101,3.9101,3.9101,3.9101,3.9101,3.9361,4.0438,4.133,4.224,4.3336,4.3801,4.4151,4.4701,4.48,4.4985,4.5513,4.5586,4.5586,4.5586,4.5586,4.5586,4.5586,4.5586,4.5586,4.5586,4.6105,4.6358,4.6165,4.6321,4.6467,4.6572,4.6265,4.6197,4.6494,4.6494,4.6735,4.7256,4.7274,4.7014,4.6494,4.6494,4.6494,4.6513,4.7033,4.7274,0.0,0.0,0.0,0.0,0.0,2.7058,2.7826,0.0,2.9521,2.9044,2.913,2.8968,2.7904,2.8689,3.0095,3.1788,3.2478,3.2994,3.3574,3.3515,3.338,3.338,3.338,3.3403,3.3445,3.3469,3.3469,3.3385,3.356,3.3739,3.3933,3.4083,3.428,3.4539,3.4539,3.4473,3.4221,3.3895,3.3726,3.3726,3.3753,3.378,3.378,3.3807,3.3815,3.3923,3.4907,3.5784,3.6629,3.8223,3.8896,3.891,3.891,3.891,3.891,3.891,3.8939,3.8968,3.8968,3.9007,3.9017,3.9017,3.9045,3.9073,3.9073,3.9073,3.9101,3.9101,3.9101,3.9101,3.9101,3.9324,3.9881,4.1256,4.2203,4.302,4.3806,4.3974,4.4121,4.4572,4.4726,4.4943,4.54,4.5531,4.5586,4.5586,4.5586,4.5586,4.5586,4.5586,4.5701,4.6009,4.6547,4.6954,4.7047,4.7196,4.7337,4.7419,4.7105,4.7014,4.7293,4.7311,4.7553,4.8091,4.8091,4.785,4.7311,4.7311,4.7311,4.7311,4.785,4.8091,0.0,0.0,0.0,0.0,0.0,0.0,2.8002,0.0,2.878,2.9438,2.8801,2.8346,2.9126,2.7827,2.7269,2.9058,3.0818,3.1942,3.1979,3.189,3.1782,3.1782,3.1782,3.1846,3.189,3.1912,3.1827,3.1612,3.1853,3.2229,3.2741,3.3109,3.363,3.433,3.4179,3.4023,3.3895,3.3698,3.3605,3.3605,3.3671,3.3698,3.3698,3.378,3.3807,3.3844,3.4605,3.5533,3.6565,3.7564,3.8329,3.8892,3.8892,3.8892,3.8892,3.8892,3.891,3.891,3.891,3.891,3.891,3.891,3.8921,3.8997,3.8997,3.9036,3.9101,3.9101,3.9101,3.9101,3.912,3.977,4.0624,4.1441,4.224,4.3027,4.373,4.3961,4.4079,4.4346,4.4599,4.4872,4.5159,4.5419,4.5586,4.5586,4.5586,4.5586,4.5586,4.5605,4.5951,4.6817,4.6951,4.7086,4.7334,4.7359,4.7495,4.775,4.7738,4.8091,4.8872,4.8909,4.8909,4.8909,4.8909,4.8909,4.8909,4.8909,4.8909,4.8909,4.8909,4.8909,2.3441,0.0,0.0,0.0,0.0,0.0,0.0,0.0,2.8609,2.8649,2.8819,2.8806,2.8304,2.8316,2.839,2.8329,2.9265,3.0401,3.1593,3.1782,3.1782,3.1782,3.1782,3.1823,3.1846,3.1846,3.1805,3.176,3.1849,3.2005,3.2143,3.2876,3.3347,3.3459,3.3876,3.4023,3.3815,3.3671,3.3605,3.3605,3.3633,3.3633,3.3633,3.3661,3.3671,3.3744,3.3908,3.4879,3.6425,3.7284,3.8085,3.875,3.875,3.875,3.875,3.875,3.881,3.8822,3.8822,3.8881,3.891,3.891,3.8892,3.8939,3.8939,3.8921,3.895,3.895,3.895,3.9079,3.9671,4.0411,4.1243,4.2057,4.2908,4.3592,4.3781,4.3851,4.3929,4.4192,4.4336,4.4519,4.5052,4.5201,4.5322,4.5568,4.5586,4.5586,4.5586,4.6144,4.6624,4.6874,4.799,4.8662,4.8529,4.8821,4.8909,4.8781,4.8519,4.8473,4.8804,4.8822,4.8839,4.8909,4.8909,4.8909,4.8909,4.8909,4.8909,4.8909,4.8909,4.8909,0.0,0.0,0.0,0.0,0.0,0.0,2.5796,2.7021,2.8082,0.0,2.8936,2.9034,2.8441,2.8478,2.8555,2.847,2.8544,2.9141,3.0461,3.0691,3.0713,3.0713,3.0735,3.0757,3.0757,3.0779,3.0757,3.065,3.0672,3.0865,3.1225,3.2154,3.2642,3.2598,3.3148,3.3397,3.3266,3.3441,3.3538,3.3538,3.3549,3.3549,3.3549,3.3577,3.3633,3.3661,3.3661,3.443,3.5779,3.6652,3.7661,3.8707,3.8707,3.8707,3.8707,3.8707,3.8719,3.875,3.875,3.8762,3.884,3.884,3.8822,3.8851,3.8851,3.8881,3.891,3.891,3.891,3.9095,3.9889,4.0702,4.1496,4.2327,4.3176,4.3771,4.3719,4.3719,4.3767,4.3986,4.4121,4.4318,4.4701,4.4849,4.5052,4.5381,4.5419,4.5554,4.605,4.6512,4.7069,4.778,4.8721,4.9288,4.9264,4.9473,4.9405,4.8986,4.8713,4.8642,4.8787,4.8787,4.8822,4.8839,4.8874,4.8909,4.8909,4.8909,4.8909,4.8909,4.8909,4.8909,0.0,0.0,0.0,0.0,0.0,0.0,2.6395,2.6892,2.7252,0.0,2.8713,2.8832,2.8832,2.8242,2.8025,2.8809,2.8359,2.8209,2.9067,2.9218,2.92,2.92,2.9262,2.9323,2.9323,2.9365,2.9283,2.9026,2.898,2.9301,3.012,3.1102,3.1675,3.1719,3.2152,3.2426,3.2464,3.3019,3.3302,3.3393,3.3452,3.3509,3.3509,3.3549,3.3577,3.3605,3.3643,3.4128,3.496,3.5878,3.7154,3.8579,3.867,3.8707,3.8707,3.8707,3.8707,3.8707,3.8707,3.8707,3.8707,3.8707,3.875,3.8792,3.8792,3.8822,3.8881,3.8881,3.8936,3.9195,3.9988,4.08,4.1612,4.2424,4.3199,4.3719,4.3615,4.3582,4.3615,4.3753,4.3974,4.4162,4.426,4.4511,4.4776,4.5118,4.514,4.5528,4.6647,4.6819,4.7452,4.9043,4.9252,4.9377,4.9599,4.9569,4.9265,4.8623,4.8587,4.8642,4.8751,4.8751,4.8751,4.8787,4.8839,4.8874,4.8874,4.8909,4.8909,4.8909,4.8909,4.8909,0.0,0.0,0.0,0.0,0.0,0.0,2.5064,2.5551,2.595,0.0,2.6718,2.7093,2.7093,2.7006,2.6993,2.7161,2.7601,2.8209,2.9067,2.924,2.928,2.928,2.9344,2.9386,2.9386,2.9386,2.9283,2.9026,2.8761,2.8821,2.9326,3.0124,3.0609,3.0609,3.137,3.1928,3.2264,3.2389,3.2759,3.3393,3.3393,3.3422,3.3422,3.3422,3.3481,3.3538,3.3481,3.3975,3.4874,3.5654,3.6687,3.779,3.845,3.8707,3.8707,3.8707,3.8707,3.8707,3.8707,3.8707,3.8707,3.8707,3.8707,3.8719,3.8719,3.8719,3.8719,3.8719,3.9228,3.9908,4.0685,4.1493,4.2334,4.3125,4.3437,4.3566,4.3532,4.3513,4.3532,4.3566,4.3615,4.3712,4.3986,4.4308,4.465,4.4985,4.5222,4.5687,4.6589,4.7317,4.8123,4.91,4.9595,4.9772,4.9608,4.924,4.89,4.855,4.8438,4.8438,4.8532,4.855,4.8606,4.8642,4.866,4.866,4.866,4.882,4.8909,4.8909,4.8909,4.8909,0.0,0.0,0.0,2.399,0.0,0.0,0.0,2.539,2.569,2.602,2.6383,2.6636,2.6636,2.6677,2.6698,2.6698,2.7377,2.7911,2.7893,2.8658,2.9218,2.924,2.9323,2.9344,2.9344,2.9386,2.9222,2.8785,2.8621,2.8578,2.8652,2.9174,2.9483,2.9502,3.0283,3.0979,3.1582,3.1999,3.2596,3.3393,3.3393,3.3393,3.3393,3.3393,3.3422,3.3452,3.3452,3.3728,3.424,3.5442,3.6279,3.6863,3.8071,3.8546,3.8546,3.8578,3.8609,3.8609,3.8658,3.8707,3.8707,3.8707,3.8707,3.8707,3.8707,3.8707,3.8781,3.9184,3.9588,4.0175,4.1387,4.2011,4.2506,4.3296,4.3497,4.3497,4.3497,4.3497,4.3497,4.3497,4.3497,4.3563,4.3758,4.3931,4.4202,4.4546,4.5016,4.571,4.6668,4.7517,4.8371,4.9169,4.9473,4.9541,4.9227,4.9001,4.8711,4.8401,4.8363,4.8363,4.8494,4.8513,4.8513,4.8587,4.8569,4.8587,4.8587,4.8714,4.875,4.875,4.875,4.875,0.0,0.0,0.0,0.0,0.0,2.4731,0.0,0.0,0.0,2.6027,2.6176,2.6217,2.6217,2.6217,2.6217,2.6217,0.0,0.0,0.0,2.7687,0.0,2.8716,2.9077,2.9249,2.9079,2.8934,2.8743,2.8535,2.8232,2.8095,2.8192,2.8482,2.8669,2.8694,2.9286,3.0077,3.0985,3.1636,3.2451,3.3393,3.3393,3.3393,3.3393,3.3393,3.3393,3.3393,3.3452,3.3481,3.359,3.5296,3.5964,3.6128,3.7763,3.8382,3.8415,3.8478,3.851,3.851,3.8609,3.8658,3.8707,3.8707,3.8658,3.8658,3.8707,3.8658,3.8823,3.9662,4.001,4.0469,4.1919,4.2415,4.269,4.3332,4.3497,4.3497,4.3497,4.3497,4.3497,4.3497,4.3497,4.3532,4.3548,4.3615,4.3795,4.4121,4.4692,4.5548,4.675,4.7473,4.8251,4.9189,4.9221,4.908,4.8816,4.8746,4.8586,4.8306,4.8306,4.8363,4.8457,4.8457,4.8476,4.855,4.8476,4.8476,4.855,4.855,4.855,4.8587,4.8587,4.8587,0.0,0.0,0.0,0.0,2.3732,0.0,0.0,0.0,2.4393,2.4447,0.0,2.4484,2.4484,0.0,0.0,0.0,2.5164,2.568,2.5628,2.6401,2.6974,2.6974,2.8413,2.9087,2.8301,2.7382,2.7277,2.842,2.6971,2.6657,2.8112,2.8342,2.8533,2.8694,2.8883,2.9642,3.0985,3.1075,3.189,3.3393,3.3393,3.3393,3.3393,3.3393,3.3393,3.3393,3.3411,3.3393,3.3538,3.5181,3.5833,3.5978,3.7717,3.8382,3.8382,3.8415,3.8446,3.851,3.851,3.8609,3.8707,3.8707,3.8609,3.8541,3.8658,3.8609,3.8724,3.9662,4.0414,4.1185,4.2066,4.2818,4.3387,4.3461,4.3497,4.3497,4.3497,4.3497,4.3497,4.3497,4.3497,4.3479,4.3532,4.3749,4.3974,4.4036,4.4296,4.5068,4.6703,4.6985,4.7612,4.9133,4.9015,4.8832,4.8816,4.8532,4.8344,4.8306,4.8306,4.8306,4.8306,4.8306,4.8306,4.8344,4.8306,4.8306,4.8344,4.8344,4.842,4.8587,4.8587,4.8587,0.0,0.0,0.0,0.0,0.0,0.0,2.4243,0.0,2.419,0.0,0.0,0.0,0.0,0.0,0.0,0.0,2.4209,2.4431,0.0,0.0,2.5668,2.6646,2.7428,2.7908,2.7871,2.7748,2.7828,2.8244,2.7549,2.7371,2.8037,2.821,2.837,2.8536,2.8662,2.9232,3.0278,3.0649,3.1405,3.2541,3.301,3.3226,3.3226,3.3334,3.3393,3.3393,3.3393,3.3393,3.352,3.515,3.582,3.5965,3.7638,3.8289,3.8289,3.8322,3.8354,3.8401,3.8415,3.8496,3.8546,3.8546,3.8496,3.8446,3.8496,3.8825,3.9323,4.0262,4.1137,4.1944,4.2782,4.324,4.3497,4.3497,4.3497,4.3497,4.3497,4.3497,4.3497,4.3497,4.3497,4.3497,4.3497,4.3615,4.3716,4.3716,4.4216,4.4819,4.5537,4.6038,4.678,4.7877,4.7884,4.7979,4.8458,4.8364,4.8306,4.8306,4.8306,4.8306,4.8306,4.8306,4.8306,4.8306,4.8306,4.8306,4.8306,4.8306,4.8344,4.842,4.842,4.842,2.6242,0.0,0.0,0.0,0.0,0.0,0.0,0.0,0.0,0.0,0.0,0.0,0.0,0.0,2.3933,0.0,0.0,2.3437,0.0,2.2848,0.0,2.5575,2.6148,2.6718,2.7383,2.762,2.7779,2.786,2.7691,2.7674,2.7904,2.8081,2.8191,2.8273,2.8432,2.8889,2.9665,3.0348,3.1052,3.1841,3.2709,3.3086,3.3117,3.3304,3.3393,3.3393,3.3393,3.3393,3.352,3.515,3.582,3.5965,3.7558,3.8192,3.8225,3.8241,3.8274,3.8307,3.8354,3.8382,3.8382,3.8382,3.8401,3.8405,3.8656,3.913,3.979,4.0949,4.1695,4.2335,4.3191,4.3428,4.3428,4.3428,4.3428,4.3428,4.3428,4.3428,4.3428,4.3428,4.3463,4.3463,4.3463,4.3497,4.3497,4.3497,4.3993,4.4452,4.4672,4.5223,4.5883,4.6709,4.6783,4.7113,4.7921,4.7976,4.8086,4.8306,4.8306,4.8306,4.8306,4.8306,4.8306,4.8306,4.8306,4.8306,4.8306,4.8306,4.8306,4.8306,4.8306,4.8306,0.0,0.0,0.0,2.5468,0.0,0.0,0.0,0.0,2.419,0.0,0.0,0.0,2.419,2.419,2.3933,0.0,0.0,0.0,0.0,0.0,2.2188,2.3015,2.4561,2.5892,2.6763,2.6209,2.6221,2.7254,2.6609,2.6616,2.7643,2.7911,2.8014,2.7996,2.8136,2.8594,2.9408,3.0118,3.0903,3.1737,3.2647,3.3086,3.3117,3.3304,3.3393,3.3393,3.3393,3.3393,3.352,3.515,3.582,3.5965,3.7558,3.8192,3.8192,3.8192,3.8241,3.8307,3.8307,3.8354,3.8382,3.8382,3.8354,3.8467,3.9298,3.9537,3.9833,4.1502,4.1993,4.2175,4.2996,4.3196,4.3196,4.3196,4.3196,4.3196,4.3196,4.3196,4.3196,4.3196,4.3286,4.3394,4.3394,4.3481,4.3497,4.3497,4.3516,4.3809,4.4617,4.4727,4.5057,4.5847,4.5938,4.6269,4.7076,4.715,4.748,4.8251,4.8306,4.8306,4.8306,4.8306,4.8306,4.8306,4.8306,4.8306,4.8306,4.8306,4.8306,4.8306,4.8306,4.8306,2.7112,2.6987,2.6757,2.5403,2.5104,2.4964,0.0,0.0,0.0,0.0,0.0,0.0,0.0,0.0,0.0,0.0,0.0,0.0,0.0,2.1454,2.1913,2.2171,0.0,0.0,0.0,2.6227,2.676,2.6756,2.7192,2.7567,2.7876,2.7968,2.8025,2.8136,2.8191,2.8326,2.8612,2.9769,3.049,3.0774,3.2115,3.277,3.277,3.2979,3.3073,3.3073,3.3165,3.3196,3.3352,3.5069,3.582,3.5965,3.7558,3.8192,3.8192,3.8192,3.8225,3.8241,3.8241,3.8241,3.8274,3.8274,3.8241,3.8404,3.9236,3.9783,4.0418,4.1596,4.2305,4.2941,4.3761,4.3616,4.3342,4.3889,4.3597,4.3214,4.3214,4.3214,4.3214,4.3214,4.3305,4.3394,4.3394,4.3446,4.3497,4.3497,4.3497,4.3589,4.3864,4.3901,4.4213,4.5021,4.5112,4.5443,4.625,4.6801,4.7462,4.8251,4.8306,4.8306,4.8306,4.8306,4.8306,4.8306,4.8306,4.8306,4.8306,4.8306,4.8306,4.8306,4.8306,4.8306,2.7091,2.7058,2.6865,2.5825,2.5579,2.5394,2.4581,2.4395,2.4415,0.0,0.0,0.0,0.0,0.0,0.0,0.0,0.0,0.0,0.0,2.1711,2.2226,2.2226,0.0,0.0,0.0,0.0,2.6291,2.6619,2.7023,2.745,2.7876,2.7893,2.7922,2.8035,2.8035,2.8035,2.8035,2.9483,3.0215,3.0264,3.1848,3.2606,3.2606,3.2802,3.2916,3.2916,3.2993,3.3024,3.3149,3.4893,3.5591,3.5753,3.7338,3.8003,3.7985,3.8158,3.8192,3.8192,3.8192,3.8192,3.8192,3.8192,3.8192,3.8391,3.946,4.013,4.0745,4.1923,4.265,4.3231,4.4049,4.3705,4.3287,4.4105,4.3669,4.3087,4.3087,4.3087,4.3087,4.3087,4.3178,4.3287,4.3287,4.3376,4.3428,4.3497,4.3497,4.3497,4.3497,4.3497,4.3699,4.4213,4.4268,4.4709,4.581,4.6654,4.7462,4.8251,4.8306,4.8306,4.8306,4.8306,4.8306,4.8306,4.8306,4.8306,4.8306,4.8306,4.8306,4.8306,4.8306,4.8306]},{"header":{"parameterUnit":"m.s-1","parameterCategory":1,"la1":30.6,"la2":29.2853,"lo1":-89.7004,"lo2":-87.6739,"dy":0.0162,"dx":0.0183,"nx":112,"ny":82,"refTime":"2023-05-29T12:00:00:Z","depth":0,"parameterNumber":3,"parameterNumberName":"V-component_of_WINDS"},"data":[0.0,0.0,0.0,0.0,0.0,0.0,0.0,0.0,0.0,0.0,0.0,0.0,0.0,0.0,0.0,0.0,0.0,0.0,0.0,0.0,0.0,0.0,0.0,0.0,0.0,0.0,0.0,0.0,0.0,0.0,0.0,0.0,0.0,0.0,0.0,0.0,0.0,0.0,0.0,0.0,0.0,0.0,0.0,0.0,0.0,0.0,0.0,0.0,0.0,0.0,0.0,0.0,0.0,0.0,0.0,0.0,0.0,0.0,0.0,0.0,0.0,0.0,0.0,0.0,0.0,0.0,0.0,0.0,0.0,0.0,0.0,0.0,0.0,0.0,0.0,0.0,0.0,0.0,0.0,0.0,0.0,0.0,0.0,0.0,0.0,0.0,0.0,0.0,0.0,0.0,0.2145,0.2719,0.4059,0.5126,0.5751,0.5767,0.5747,0.5624,0.0,0.0,0.0,0.0,0.0,0.0,0.0,0.0,0.0,0.0,0.0,0.0,0.0,0.0,0.0,0.0,0.0,0.0,0.0,0.0,0.0,0.0,0.0,0.0,0.0,0.0,0.0,0.0,0.0,0.0,0.0,0.0,0.0,0.0,0.0,0.0,0.0,0.0,0.0,0.0,0.0,0.0,0.0,0.0,0.0,0.0,0.0,0.0,0.0,0.0,0.0,0.0,0.0,0.0,0.0,0.0,0.0,0.0,0.0,0.0,0.0,0.0,0.0,0.0,0.0,0.0,0.0,0.0,0.0,0.0,0.0,0.0,0.0,0.0,0.0,0.0,0.0,0.0,0.0,0.0,0.0,0.0,0.0,0.0,0.0,0.0,0.0,0.0,0.0,0.0,0.0,0.0,0.0,0.0,0.0,0.0,0.0,0.0,0.0,0.0,0.0,0.0,0.0,0.0,0.2767,0.3811,0.4197,0.4636,0.515,0.5211,0.5325,0.5566,0.0,0.0,0.0,0.0,0.0,0.0,0.0,0.0,0.0,0.0,0.0,0.0,0.0,0.0,0.0,0.0,0.0,0.0,0.0,0.0,0.0,0.0,0.0,0.0,0.0,0.0,0.0,0.0,0.0,0.0,0.0,0.0,0.0,0.0,0.0,0.0,0.0,0.0,0.0,0.0,0.0,0.0,0.0,0.0,0.0,0.0,0.0,0.0,0.0,0.0,0.0,0.0,0.0,0.0,0.0,0.0,0.0,0.0,0.0,0.0,0.0,0.0,0.0,0.0,0.0,0.0,0.0,0.0,0.0,0.0,0.0,0.0,0.0,0.0,0.0,0.0,0.0,0.0,0.0,0.0,0.0,0.0,0.0,0.0,0.0,0.0,0.0,0.0,0.0,0.0,0.0,0.0,0.0,0.0,0.0,0.0,0.0,0.0,0.0,0.0,0.0,0.0,0.0,0.2095,0.2928,0.3952,0.4531,0.4998,0.5332,0.5661,0.5806,0.5778,0.5762,0.0,0.0,0.0,0.0,0.0,0.0,0.0,0.0,0.0,0.0,0.0,0.0,0.0,0.0,0.0,0.0,0.0,0.0,0.0,0.0,0.0,0.0,0.0,0.0,0.0,0.0,0.0,0.0,0.0,0.0,0.0,0.0,0.0,0.0,0.0,0.0,0.0,0.0,0.0,0.0,0.0,0.0,0.0,0.0,0.0,0.0,0.0,0.0,0.0,0.0,0.0,0.0,0.0,0.0,0.0,0.0,0.0,0.0,0.0,0.0,0.0,0.0,0.0,0.0,0.0,0.0,0.0,0.0,0.0,0.0,0.0,0.0,0.0,0.0,0.0,0.0,0.0,0.0,0.0,0.0,0.0,0.0,0.0,0.0,0.0,0.0,0.0,0.0,0.0,0.0,0.0,0.0,0.0,0.0,0.0,0.0,0.0,0.0,0.0,0.0,0.0,0.0,0.2405,0.2964,0.3942,0.4675,0.5233,0.554,0.5951,0.6137,0.5912,0.5888,0.0,0.0,0.0,0.0,0.0,0.0,0.0,0.0,0.0,0.0,0.0,0.0,0.0,0.0,0.0,0.0,0.0,0.0,0.0,0.0,0.0,0.0,0.0,0.0,0.0,0.0,0.0,0.0,0.0,0.0,0.0,0.0,0.0,0.0,0.0,0.0,0.0,0.0,0.0,0.0,0.0,0.0,0.0,0.0,0.0,0.0,0.0,0.0,0.0,0.0,0.0,0.0,0.0,0.0,0.0,0.0,0.0,0.0,0.0,0.0,0.0,0.0,0.0,0.0,0.0,0.0,0.0,0.0,0.0,0.0,0.0,0.0,0.0,0.0,0.0,0.0,0.0,0.0,0.0,0.0,0.0,0.0,0.0,0.0,0.0,0.0,0.0,0.0,0.0,0.0,0.0,0.0,0.0,0.0,0.0,0.0,0.0,0.0,0.0,0.0,0.0,0.0,0.264,0.3197,0.4411,0.4281,0.4483,0.5481,0.5617,0.5743,0.5908,0.5888,0.0,0.0,0.0,0.0,0.0,0.0,0.0,0.0,0.0,0.0,0.0,0.0,0.0,0.0,0.0,0.0,0.0,0.0,0.0,0.0,0.0,0.0,0.0,0.0,0.0,0.0,0.0,0.0,0.0,0.0,0.0,0.0,0.0,0.0,0.0,0.0,0.0,0.0,0.0,0.0,0.0,0.0,0.0,0.0,0.0,0.0,0.0,0.0,0.0,0.0,0.0,0.0,0.0,0.0,0.0,0.0,0.0,0.0,0.0,0.0,0.0,0.0,0.0,0.0,0.0,0.0,0.0,0.0,0.0,0.0,0.0,0.0,0.0,0.0,0.0,0.0,0.0,0.0,0.0,0.0,0.0,0.0,0.0,0.0,0.0,0.0,0.0,0.0,0.0,0.0,0.0,0.0,0.0,0.0,0.0,0.0,0.0,0.0,0.0,0.0,0.0,0.0,0.2491,0.3033,0.0,0.4422,0.4818,0.555,0.5885,0.594,0.5479,0.0,0.0,0.0,0.0,0.0,0.0,0.0,0.0,0.0,0.0,0.0,0.0,0.0,0.0,0.0,0.0,0.0,0.0,0.0,0.0,0.0,0.0,0.0,0.0,0.0,0.0,0.0,0.0,0.0,0.0,0.0,0.0,0.0,0.0,0.0,0.0,0.0,0.0,0.0,0.0,0.0,0.0,0.0,0.0,0.0,0.0,0.0,0.0,0.0,0.0,0.0,0.0,0.0,0.0,0.0,0.0,0.0,0.0,0.0,0.0,0.0,0.0,0.0,0.0,0.0,0.0,0.0,0.0,0.0,0.0,0.0,0.0,0.0,0.0,0.0,0.0,0.0,0.0,0.0,0.0,0.0,0.0,0.0,0.0,0.0,0.0,0.0,0.0,0.0,0.0,0.0,0.0,0.0,0.0,0.0,0.0,0.0,0.0,0.0,0.0,0.0,0.0,0.2057,0.2503,0.3158,0.0,0.4553,0.508,0.5815,0.6218,0.6137,0.5479,0.0,0.0,0.0,0.0,0.0,0.0,0.0,0.0,0.0,0.0,0.0,0.0,0.0,0.0,0.0,0.0,0.0,0.0,0.0,0.0,0.0,0.0,0.0,0.0,0.0,0.0,0.0,0.0,0.0,0.0,0.0,0.0,0.0,0.0,0.0,0.0,0.0,0.0,0.0,0.0,0.0,0.0,0.0,0.0,0.0,0.0,0.0,0.0,0.0,0.0,0.0,0.0,0.0,0.0,0.0,0.0,0.0,0.0,0.0,0.0,0.0,0.0,0.0,0.0,0.0,0.0,0.0,0.0,0.0,0.0,0.0,0.0,0.0,0.0,0.0,0.0,0.0,0.0,0.0,0.0,0.0,0.0,0.0,0.0,0.0,0.0,0.0,0.0,0.0,0.0,0.0,0.0,0.0,0.0,0.0,0.0,0.0,0.0,0.0,0.0,0.0,0.0,0.212,0.271,0.3625,0.4683,0.4815,0.5216,0.6284,0.6416,0.6266,0.0,0.0,0.0,0.0,0.0,0.0,0.0,0.0,0.0,0.0,0.0,0.0,0.0,0.0,0.0,0.0,0.0,0.0,0.0,0.0,0.0,0.0,0.0,0.0,0.0,0.0,0.0,0.0,0.0,0.0,0.0,0.0,0.0,0.0,0.0,0.0,0.0,0.0,0.0,0.0,0.0,0.0,0.0,0.0,0.0,0.0,0.0,0.0,0.0,0.0,0.0,0.0,0.0,0.0,0.0,0.0,0.0,0.0,0.0,0.0,0.0,0.0,0.0,0.0,0.0,0.0,0.0,0.0,0.0,0.0,0.0,0.0,0.0,0.0,0.0,0.0,0.0,0.0,0.0,0.0,0.0,0.0,0.0,0.0,0.0,0.0,0.0,0.0,0.0,0.0,0.0,0.0,0.0,0.0,0.0,0.0,0.0,0.0,0.0,0.0,0.0,0.0,0.0,0.1733,0.2377,0.3088,0.3818,0.409,0.4688,0.5749,0.5815,0.5743,0.5419,0.0,0.0,0.0,0.0,0.0,0.0,0.0,0.0,0.0,0.0,0.0,0.0,0.0,0.0,0.0,0.0,0.0,0.0,0.0,0.0,0.0,0.0,0.0,0.0,0.0,0.0,0.0,0.0,0.0,0.0,0.0,0.0,0.0,0.0,0.0,0.0,0.0,0.0,0.0,0.0,0.0,0.0,0.0,0.0,0.0,0.0,0.0,0.0,0.0,0.0,0.0,0.0,0.0,0.0,0.0,0.0,0.0,0.0,0.0,0.0,0.0,0.0,0.0,0.0,0.0,0.0,0.0,0.0,0.0,0.0,0.0,0.0,0.0,0.0,0.0,0.0,0.0,0.0,0.0,0.0,0.0,0.0,0.0,0.0,0.0,0.0,0.0,0.0,0.0,0.0,0.0,0.0,0.0,0.0,0.0,0.0,0.0,0.0,0.0,0.0,0.0,0.0,0.1568,0.2261,0.2885,0.342,0.3825,0.4359,0.5216,0.5282,0.5315,0.5264,0.0,0.0,0.0,0.0,0.0,0.0,0.0,0.0,0.0,0.0,0.0,0.0,0.0,0.0,0.0,0.0,0.0,0.0,0.0,0.0,0.0,0.0,0.0,0.0,0.0,0.0,0.0,0.0,0.0,0.0,0.0,0.0,0.0,0.0,0.0,0.0,0.0,0.0,0.0,0.0,0.0,0.0,0.0,0.0,0.0,0.0,0.0,0.0,0.0,0.0,0.0,0.0,0.0,0.0,0.0,0.0,0.0,0.0,0.0,0.0,0.0,0.0,0.0,0.0,0.0,0.0,0.0,0.0,0.0,0.0,0.0,0.0,0.0,0.0,0.0,0.0,0.0,0.0,0.0,0.0,0.0,0.0,0.0,0.0,0.0,0.0,0.0,0.0,0.0,0.0,0.0,0.0,0.0,0.0,0.0,0.0,0.0,0.0,0.0,0.0,0.0,0.0,0.1608,0.2217,0.282,0.3353,0.3758,0.4159,0.4683,0.4749,0.4957,0.5403,0.0,0.0,0.0,0.0,0.0,0.0,0.0,0.0,0.0,0.0,0.0,0.0,0.0,0.0,0.0,0.0,0.0,0.0,0.0,0.0,0.0,0.0,0.0,0.0,0.0,0.0,0.0,0.0,0.0,0.0,0.0,0.0,0.0,0.0,0.0,0.0,0.0,0.0,0.0,0.0,0.0,0.0,0.0,0.0,0.0,0.0,0.0,0.0,0.0,0.0,0.0,0.0,0.0,0.0,0.0,0.0,0.0,0.0,0.0,0.0,-0.0819,-0.0846,0.0,0.0,0.0,0.0,0.0,0.0,0.0,0.0,0.0,0.0,0.0,0.0,0.0,0.0,0.0,0.0,0.0,0.0,0.0,0.0,0.0,0.0,0.0,0.0,0.0,0.0,0.0,0.0,0.0,0.0,0.0,0.0,0.0,0.0,0.0,0.0,0.0,0.0,0.0,0.0,0.1541,0.2018,0.242,0.282,0.3157,0.356,0.4092,0.4553,0.4957,0.5403,0.583,0.0,0.0,0.0,0.0,0.0,0.0,0.0,0.0,0.0,0.0,0.0,0.0,0.0,0.0,0.0,0.0,0.0,0.0,0.0,0.0,0.0,0.0,0.0,0.0,0.0,0.0,0.0,0.0,0.0,0.0,0.0,0.0,0.0,0.0,0.0,0.0,0.0,0.0,0.0,0.0,0.0,0.0,0.0,0.0,0.0,0.0,0.0,0.0,0.0,0.0,0.0,0.0,0.0,0.0,0.0,0.0,0.0,0.0,0.0,-0.0644,-0.0344,0.0,0.0,0.0,0.0,0.0,0.0,0.0,0.0,0.0,0.0,0.0,0.0,0.0,0.0,0.0,0.0,0.0,0.0,0.0,0.0,0.0,0.0,0.0,0.0,0.0,0.0,0.0,0.0,0.0,0.0,0.0,0.0,0.0,0.0,0.0,0.0,0.0,0.0,0.0,0.0,0.1544,0.2084,0.2487,0.2686,0.3023,0.3426,0.3961,0.4225,0.4725,0.5441,0.584,0.0,0.0,0.0,0.0,0.0,0.0,0.0,0.0,0.0,0.0,0.0,0.0,0.0,0.0,0.0,0.0,0.0,0.0,0.0,0.0,0.0,0.0,0.0,0.0,0.0,0.0,0.0,0.0,0.0,0.0,0.0,0.0,0.0,0.0,0.0,0.0,0.0,0.0,0.0,0.0,0.0,0.0,0.0,0.0,0.0,0.0,0.0,0.0,0.0,0.0,0.0,0.0,0.0,-0.188,-0.1913,-0.1795,-0.1852,-0.1564,-0.1001,-0.0501,0.0125,0.0801,0.042,0.0,0.0,0.0,0.0,0.0,0.0,0.0,0.0,0.0,0.0,0.0,0.0,0.0,0.0,0.0,0.0,0.0,0.0,0.0,0.0,0.0,0.0,0.1078,0.1078,0.1077,0.1076,0.1076,0.0,0.0,0.0,0.0,0.0,0.0,0.0,0.0,0.0,0.0,0.0,0.1748,0.2351,0.2753,0.2753,0.3025,0.336,0.3828,0.3961,0.4425,0.5415,0.555,0.6013,0.0,0.0,0.0,0.0,0.0,0.0,0.0,0.0,0.0,0.0,0.0,0.0,0.0,0.0,0.0,0.0,0.0,0.0,0.0,0.0,0.0,0.0,0.0,0.0,0.0,0.0,0.0,0.0,0.0,0.0,0.0,0.0,-0.1838,-0.1701,0.0,0.0,0.0,0.0,0.0,0.0,0.0,0.0,0.0,0.0,0.0,0.0,0.0,-0.1801,-0.1857,-0.191,-0.1914,-0.1872,-0.1985,-0.1847,-0.1402,-0.1378,-0.0864,0.0066,0.0199,0.0,0.0309,0.0246,0.0,0.0,0.0,0.0,0.0,0.0,0.0,0.0,0.0,0.0,0.0,0.0,0.0,0.0,0.0,0.0,0.0,0.0,0.0,0.0,0.0,0.0,0.1076,0.1076,0.1076,0.1076,0.1076,0.1076,0.1076,0.1076,0.1076,0.1076,0.0,0.0,0.0,0.0,0.0,0.0,0.2485,0.2619,0.282,0.3092,0.3159,0.3228,0.3293,0.3761,0.4292,0.4882,0.5348,0.6013,0.6881,0.6757,0.0,0.0,0.0,0.0,0.0,0.0,0.0,0.0,0.0,0.0,0.0,0.0,0.0,0.0,0.0,0.0,0.0,0.0,0.0,0.0,0.0,0.0,0.0,0.0,0.0,0.0,0.0,0.0,0.0,-0.193,-0.1805,-0.2241,-0.2544,-0.2637,0.0,0.0,0.0,0.0,0.0,0.0,0.0,0.0,0.0,-0.1785,-0.1877,-0.1924,-0.1982,-0.2072,-0.2091,-0.2099,-0.2123,-0.203,-0.1827,-0.1461,-0.1117,-0.0619,-0.0275,0.0,0.0259,0.051,0.0755,0.093,0.0,0.0,0.0,0.0,0.0969,0.0973,0.1003,0.1014,0.1014,0.1014,0.0,0.0,0.0,0.0,0.0,0.0,0.0,0.1079,0.1078,0.1076,0.1076,0.1076,0.1076,0.1076,0.1076,0.1076,0.1076,0.1076,0.1076,0.1076,0.1076,0.1277,0.0,0.0,0.0,0.2351,0.2686,0.2889,0.3025,0.3159,0.3226,0.3293,0.3627,0.3894,0.4225,0.4749,0.5014,0.5613,0.6745,0.6429,0.6387,0.0,0.0,0.0,0.0,0.0,0.0,0.0,0.0,0.0,0.0,0.0,0.0,0.0,0.0,0.0,0.0,0.0,0.0,0.0,0.0,0.0,0.0,0.0,0.0,0.0,0.0,0.0,0.0,-0.2128,-0.1857,-0.2651,-0.243,-0.2265,0.0,0.0,0.0,0.0,0.0,0.0,-0.1478,-0.1607,-0.172,-0.1866,-0.1986,-0.2048,-0.2109,-0.2125,-0.2155,-0.22,-0.2245,-0.2196,-0.2198,-0.1807,-0.1443,-0.1203,-0.0708,-0.014,0.0548,0.0728,0.091,0.1031,0.1009,0.0995,0.0989,0.0997,0.1,0.1004,0.1034,0.1044,0.1044,0.1109,0.111,0.111,0.111,0.0,0.0,0.0,0.0,0.1078,0.1076,0.1076,0.1076,0.1076,0.1076,0.1076,0.1076,0.1076,0.1076,0.1076,0.1076,0.1143,0.121,0.1412,0.0,0.0,0.0,0.2753,0.282,0.3025,0.3226,0.3226,0.3226,0.336,0.3761,0.3828,0.4025,0.4553,0.4619,0.515,0.6342,0.602,0.6264,0.7283,0.0,0.0,0.0,0.0,0.0,0.0,0.0,0.0,0.0,0.0,0.0,0.0,0.0,0.0,0.0,0.0,0.0,0.0,0.0,0.0,0.0,0.0,0.0,0.0,0.0,0.0,0.0,0.0,0.0,-0.2218,-0.1913,0.0,0.0,0.0,0.0,-0.1849,-0.1644,-0.1476,-0.1407,-0.1704,-0.1873,-0.1793,-0.2046,-0.2174,-0.2165,-0.2293,-0.2323,-0.2326,-0.233,-0.2331,-0.2258,-0.2261,-0.1676,-0.0655,-0.0582,0.0073,0.1085,0.0549,0.0595,0.0969,0.1032,0.1014,0.0992,0.102,0.1031,0.1035,0.1064,0.1074,0.1074,0.1074,0.1075,0.1077,0.1077,0.1078,0.0,0.0,0.1079,0.1078,0.1076,0.1076,0.1076,0.1076,0.1076,0.1076,0.1076,0.1076,0.1076,0.1076,0.1076,0.121,0.1547,0.0,0.1816,0.2552,0.2686,0.282,0.3159,0.3159,0.3226,0.3226,0.3226,0.3226,0.3228,0.3226,0.3493,0.4028,0.4028,0.4558,0.5617,0.5606,0.58,0.6195,0.6641,0.0,0.0,0.0,0.0,0.0,0.0,0.0,0.0,0.0,0.0,0.0,0.0,0.0,0.0,0.0,0.0,0.0,0.0,0.0,0.0,0.0,0.0,0.0,0.0,0.0,0.0,0.0,0.0,-0.22,-0.1975,0.0,-0.2003,-0.1892,-0.1704,-0.1421,-0.1373,-0.1433,-0.1605,-0.1831,-0.1951,-0.1955,-0.2118,-0.221,-0.2086,-0.2252,-0.2335,-0.2337,-0.2372,-0.239,-0.2316,-0.1596,-0.0986,-0.0598,0.0224,0.0814,0.1165,0.1,0.0987,0.1119,0.1119,0.11,0.1075,0.1086,0.1077,0.1062,0.1072,0.1076,0.1076,0.1076,0.1076,0.1077,0.1077,0.1077,0.1077,0.1077,0.1077,0.1077,0.1076,0.1076,0.1076,0.1076,0.1076,0.1076,0.1076,0.1076,0.1076,0.1076,0.1076,0.1143,0.1277,0.1681,0.2085,0.2354,0.2757,0.3092,0.3159,0.3226,0.3226,0.3226,0.3226,0.3226,0.3226,0.3226,0.3293,0.3493,0.3493,0.3956,0.5014,0.508,0.5477,0.6268,0.6929,0.6863,0.0,0.0,0.0,0.0,0.0,0.0,0.0,0.0,0.0,0.0,0.0,0.0,0.0,0.0,0.0,0.0,0.0,0.0,0.0,0.0,0.0,0.0,0.0,0.0,0.0,0.0,-0.1798,-0.2228,-0.1839,-0.1594,-0.177,-0.1613,-0.1418,-0.1111,-0.1303,-0.1493,-0.1659,-0.1901,-0.2006,-0.1968,-0.2134,-0.2144,-0.207,-0.2235,-0.2394,-0.2395,-0.2432,-0.245,-0.2375,-0.1402,-0.0856,-0.0613,0.046,0.0988,0.1197,0.1197,0.1197,0.1195,0.1174,0.1154,0.1136,0.1136,0.1123,0.1106,0.1106,0.1106,0.1106,0.1106,0.1106,0.1106,0.1106,0.1106,0.1106,0.1106,0.1106,0.1106,0.1106,0.1106,0.1106,0.1106,0.1106,0.1106,0.1106,0.1106,0.1106,0.1106,0.1089,0.1143,0.1277,0.1817,0.2228,0.2181,0.2774,0.3181,0.3103,0.3223,0.3285,0.3316,0.332,0.332,0.332,0.332,0.332,0.332,0.3522,0.3998,0.495,0.4884,0.5426,0.6578,0.7194,0.7229,0.6693,0.0,0.0,0.0,0.0,0.0,0.0,0.0,0.0,0.0,0.0,0.0,0.0,0.0,0.0,0.0,0.0,0.0,0.0,0.0,0.0,0.0,0.0,0.0,-0.1767,-0.1809,-0.1923,-0.2206,-0.1492,-0.1164,-0.1663,-0.1347,-0.1078,-0.1078,-0.1488,-0.1678,-0.1679,-0.1899,-0.1973,-0.1974,-0.2099,-0.2126,-0.2125,-0.233,-0.2512,-0.2511,-0.2511,-0.251,-0.2431,-0.1882,-0.1176,-0.055,0.0079,0.0707,0.1335,0.1335,0.1335,0.133,0.1192,0.1168,0.1168,0.1168,0.1167,0.1166,0.1166,0.1166,0.1166,0.1166,0.1166,0.1166,0.1166,0.1166,0.1166,0.1166,0.1166,0.1166,0.1166,0.1166,0.1166,0.1166,0.1166,0.1166,0.1166,0.1166,0.1166,0.1166,0.1119,0.1213,0.1551,0.1955,0.2177,0.2169,0.2744,0.0,0.2966,0.3207,0.3403,0.3493,0.3503,0.3503,0.3503,0.3503,0.3501,0.3499,0.4073,0.4718,0.5284,0.5147,0.5646,0.6928,0.7393,0.7709,0.7836,0.0,0.0,0.0,0.0,0.0,0.0,0.0,0.0,0.0,0.0,0.0,0.0,0.0,0.0,0.0,0.0,0.0,0.0,0.0,0.0,0.0,0.0,-0.1841,-0.1667,-0.1393,-0.1266,-0.1408,-0.1193,-0.1158,-0.131,-0.1268,-0.1142,-0.1142,-0.1374,-0.1544,-0.1798,-0.18,-0.1891,-0.1926,-0.2128,-0.2136,-0.1946,-0.2389,-0.2555,-0.2511,-0.2511,-0.2275,-0.1803,-0.1177,-0.0549,0.0079,0.0707,0.11,0.1335,0.1335,0.1335,0.1334,0.1316,0.1219,0.1199,0.1199,0.1185,0.1166,0.1166,0.1166,0.1166,0.1166,0.1166,0.1166,0.1166,0.1166,0.1166,0.1166,0.1166,0.1166,0.1166,0.1166,0.1166,0.1166,0.1166,0.1166,0.1166,0.1166,0.1166,0.1166,0.1153,0.1213,0.1284,0.1826,0.224,0.2297,0.2936,0.3371,0.3346,0.3405,0.3495,0.3581,0.3591,0.3591,0.3591,0.3591,0.371,0.415,0.4573,0.515,0.5936,0.6144,0.6785,0.7797,0.7953,0.8065,0.0,0.0,0.0,0.0,0.0,0.0,0.0,0.0,0.0,0.0,0.0,0.0,0.0,0.0,0.0,0.0,0.0,0.0,0.0,0.0,0.0,0.0,-0.2009,-0.1855,-0.1462,-0.1178,-0.1081,-0.111,-0.1129,-0.1147,-0.1165,-0.1178,-0.1185,-0.1185,-0.136,-0.1615,-0.1872,-0.1891,-0.1914,-0.1941,-0.2129,-0.213,-0.1942,-0.2294,-0.254,-0.2587,-0.2587,-0.2262,-0.1614,-0.096,-0.0319,0.0398,0.1026,0.1264,0.1276,0.1276,0.1284,0.1293,0.0,0.0,0.0,0.0,0.1219,0.1204,0.1204,0.1204,0.1204,0.1204,0.1204,0.1204,0.1204,0.1204,0.1204,0.1204,0.1204,0.1204,0.1204,0.1204,0.1204,0.1204,0.1204,0.1204,0.1204,0.1204,0.1204,0.1204,0.1194,0.0,0.1202,0.1826,0.2228,0.2139,0.2862,0.3453,0.3379,0.3428,0.3587,0.3675,0.3683,0.3683,0.3683,0.3683,0.0,0.0,0.0,0.5464,0.6426,0.7228,0.0,0.0,0.0,0.8427,0.8796,0.8695,0.0,0.0,0.7991,0.7856,0.0,0.0,0.0,0.0,0.0,0.0,0.0,0.0,0.0,0.0,0.0,0.0,0.0,0.0,0.0,0.0,-0.2219,-0.1643,-0.1268,-0.1131,-0.1141,-0.1095,-0.1172,-0.1173,-0.1176,-0.1204,-0.1222,-0.1222,-0.1435,-0.1716,-0.1957,0.0,0.0,0.0,0.0,-0.2023,-0.2018,-0.2192,-0.2445,-0.2692,-0.2692,-0.2271,-0.1511,-0.0905,-0.0245,0.0571,0.1039,0.1283,0.1308,0.1308,0.1324,0.1259,0.1288,0.1265,0.1262,0.1262,0.1338,0.1335,0.1335,0.0,0.0,0.1335,0.1335,0.1335,0.1335,0.1335,0.1335,0.1335,0.1335,0.1335,0.1335,0.1335,0.1335,0.1335,0.1335,0.1335,0.1335,0.1335,0.1335,0.1335,0.1236,0.1226,0.1253,0.1888,0.2212,0.1894,0.2835,0.3438,0.3202,0.3463,0.3677,0.3769,0.3779,0.0,0.3779,0.3779,0.3853,0.3921,0.4693,0.5777,0.7015,0.8165,0.878,0.8856,0.8584,0.8861,0.9615,0.9394,0.9287,0.9281,0.8599,0.8297,0.0,0.0,0.0,0.0,0.0,0.0,0.0,0.0,0.0,0.0,0.0,0.0,0.0,0.0,0.0,-0.1713,-0.0939,-0.0566,-0.1113,-0.1194,-0.1196,-0.1202,-0.1203,-0.1213,-0.1237,-0.1267,-0.1285,-0.1285,-0.1319,-0.1505,-0.1753,-0.1511,-0.1599,-0.2018,-0.1882,-0.1884,-0.2018,-0.2226,-0.2398,-0.2355,-0.2608,0.0,-0.084,-0.0753,-0.0,0.1171,0.1249,0.1333,0.1339,0.1339,0.1259,0.1263,0.1335,0.1316,0.1294,0.1294,0.1278,0.1335,0.1335,0.1335,0.1335,0.1335,0.1335,0.1335,0.1335,0.1335,0.0,0.1335,0.1335,0.1335,0.1335,0.1335,0.1335,0.1335,0.1335,0.1335,0.1335,0.1335,0.1335,0.1335,0.1252,0.125,0.1335,0.1915,0.2422,0.2406,0.3181,0.3726,0.3682,0.3748,0.3771,0.3865,0.3873,0.3873,0.3873,0.3873,0.4081,0.4472,0.5619,0.685,0.8318,0.8551,0.9003,0.969,0.9643,0.9697,0.9852,0.9803,0.9782,0.9771,0.9241,0.8996,0.0,0.0,0.0,0.0,0.0,0.0,0.0,0.0,0.0,0.0,0.0,-0.1003,0.0,0.0,-0.1863,-0.0885,-0.0284,-0.0147,-0.0528,-0.0766,-0.1003,-0.1234,-0.1234,-0.1246,-0.1277,-0.1294,-0.1309,-0.1324,-0.1352,-0.1454,-0.1709,-0.1642,-0.174,-0.2086,-0.202,-0.2021,-0.2086,-0.2197,-0.2372,-0.2434,-0.2522,-0.1912,-0.0695,-0.0773,0.0,0.1368,0.1354,0.1356,0.137,0.1385,0.1391,0.1391,0.1391,0.1365,0.1325,0.1325,0.1316,0.1303,0.1303,0.1303,0.13,0.1285,0.128,0.1277,0.1262,0.1335,0.1335,0.1335,0.1335,0.1335,0.1335,0.1335,0.1335,0.1335,0.1335,0.1335,0.1335,0.1335,0.1335,0.1335,0.1335,0.1335,0.157,0.2097,0.2476,0.2506,0.3215,0.3763,0.3763,0.3763,0.3781,0.3826,0.3832,0.3832,0.3832,0.3832,0.4049,0.4545,0.5467,0.6465,0.7395,0.7851,0.8466,0.9311,0.9311,0.9463,0.9922,0.9922,0.9922,0.9916,0.9674,0.9561,0.0,0.0,0.0,0.0,0.0,0.0,0.0,0.0,-0.0478,-0.0285,-0.0464,-0.0657,-0.0517,-0.1448,-0.1761,-0.0145,0.0075,0.0,0.0,-0.031,-0.0786,-0.1257,-0.1335,-0.1269,-0.13,-0.1308,-0.1324,-0.1354,-0.1382,-0.1486,-0.1661,-0.1689,-0.1884,-0.2154,-0.2154,-0.2154,-0.2243,-0.2243,-0.2244,-0.2424,-0.2513,-0.1884,-0.0628,-0.0705,0.0,0.1397,0.1375,0.1378,0.1401,0.1425,0.1436,0.1436,0.1436,0.1406,0.1279,0.1358,0.1352,0.1263,0.1263,0.1263,0.126,0.1319,0.1311,0.1307,0.1282,0.1275,0.1273,0.1268,0.1266,0.1264,0.1337,0.1335,0.1335,0.1335,0.1335,0.1335,0.1335,0.1335,0.1335,0.1335,0.1335,0.1414,0.1803,0.2196,0.2511,0.2589,0.3294,0.3763,0.3763,0.3763,0.3763,0.3763,0.3763,0.3763,0.3763,0.3763,0.3997,0.4384,0.5157,0.5854,0.6395,0.731,0.808,0.8927,0.8932,0.9236,0.9922,0.9922,0.9922,0.9922,0.9922,0.9922,-0.0137,-0.0278,0.0,-0.0207,-0.0263,-0.0054,0.0,0.0,0.0354,0.0754,0.0844,0.0867,0.0897,0.0495,0.0218,0.0375,0.0227,0.0,0.0,-0.0314,-0.0786,-0.1257,-0.1335,-0.1269,-0.13,-0.1327,-0.1354,-0.1383,-0.1413,-0.143,-0.143,-0.1433,-0.1525,-0.1794,-0.1884,-0.1974,-0.2154,-0.2243,-0.2243,-0.2243,-0.2424,-0.1794,-0.0448,-0.0626,0.0089,0.143,0.1427,0.1427,0.143,0.1433,0.1436,0.1436,0.1436,0.1431,0.1423,0.1395,0.1369,0.1263,0.1263,0.1263,0.1263,0.126,0.1259,0.1258,0.1339,0.1338,0.1332,0.1305,0.1297,0.1292,0.1264,0.1335,0.1335,0.1335,0.1335,0.1335,0.1335,0.1335,0.1335,0.1335,0.1335,0.1414,0.1803,0.2196,0.2589,0.2982,0.3452,0.3763,0.3763,0.3763,0.3763,0.3763,0.3763,0.3763,0.3763,0.3763,0.3997,0.4384,0.5157,0.616,0.731,0.8161,0.8927,0.9765,0.9765,0.9841,0.9922,0.9922,0.9922,0.9922,0.9922,0.9922,-0.0299,0.0,0.0,0.0,0.0279,0.0289,0.0873,0.069,0.0572,0.1026,0.112,0.1138,0.1168,0.1036,0.0827,0.0,0.0077,0.0,0.0,-0.0157,-0.055,-0.1178,-0.1335,-0.1276,-0.1324,-0.1341,-0.1367,-0.1413,-0.1428,-0.1436,-0.1436,-0.1436,-0.1525,-0.1794,-0.1794,-0.1885,-0.2154,-0.2243,-0.2243,-0.2243,-0.2424,-0.1794,-0.0448,-0.0628,0.009,0.1436,0.1436,0.1436,0.1436,0.1436,0.1436,0.1436,0.1436,0.1436,0.1433,0.1421,0.1409,0.1399,0.1399,0.1399,0.1396,0.1378,0.1372,0.1369,0.1353,0.1263,0.1261,0.1333,0.1329,0.1326,0.1313,0.1297,0.1284,0.1284,0.127,0.1335,0.1335,0.1335,0.1335,0.1335,0.1335,0.1492,0.2118,0.2353,0.2746,0.3374,0.3686,0.3763,0.3763,0.3763,0.3763,0.3763,0.3763,0.3763,0.3763,0.3763,0.4151,0.5079,0.5389,0.616,0.7464,0.7851,0.8389,0.916,0.9236,0.9463,0.9922,0.9922,0.9922,0.9922,0.9922,0.9922,-0.0466,0.0,0.0,0.0633,0.0598,0.0497,0.0925,0.087,0.0816,0.1153,0.1173,0.1111,0.1208,0.1219,0.1078,0.0313,0.0157,0.0157,0.0,0.0,-0.0236,-0.0864,-0.1027,-0.121,-0.1259,-0.1263,-0.1286,-0.1431,-0.1436,-0.1436,-0.1436,-0.1436,-0.1525,-0.1705,-0.1794,-0.1885,-0.2064,-0.2154,-0.2243,-0.2154,-0.2063,-0.1435,-0.0359,-0.0179,0.0448,0.1436,0.1436,0.1436,0.1436,0.1436,0.1436,0.1436,0.1436,0.1436,0.1436,0.1436,0.1436,0.1436,0.1436,0.1436,0.1431,0.141,0.1402,0.1399,0.1378,0.1286,0.137,0.1362,0.1359,0.1358,0.1266,0.1331,0.1315,0.1315,0.1299,0.1282,0.1282,0.1282,0.1282,0.1282,0.1282,0.1522,0.224,0.2467,0.2773,0.3563,0.37,0.3763,0.3763,0.3763,0.3763,0.3763,0.3763,0.3763,0.3763,0.3763,0.4307,0.5544,0.5774,0.6465,0.7774,0.8075,0.8461,0.9008,0.9008,0.9311,0.9922,0.9922,0.9922,0.9922,0.9922,0.996,0.0,0.0,-0.0716,0.025,0.0394,0.0476,0.1077,0.1162,0.1164,0.1166,0.1189,0.1211,0.1212,0.1236,0.1178,0.0629,0.055,0.0471,0.0079,0.0,-0.0,-0.0,-0.0481,-0.0903,0.0,-0.1263,-0.1286,-0.1431,-0.1436,-0.1436,-0.1436,-0.1436,-0.1436,-0.1436,-0.1705,-0.1794,-0.1794,-0.2064,-0.2243,-0.2154,-0.1254,-0.0627,-0.0359,0.0807,0.1345,0.1436,0.1436,0.1436,0.1436,0.1436,0.1436,0.1436,0.1436,0.1436,0.1436,0.1436,0.1436,0.1436,0.1436,0.1436,0.1436,0.1434,0.1433,0.1433,0.1433,0.1432,0.1427,0.1397,0.1388,0.1382,0.1355,0.1263,0.1262,0.1262,0.1261,0.1261,0.1261,0.1261,0.1261,0.1261,0.1261,0.1429,0.193,0.2307,0.276,0.3162,0.3578,0.3763,0.3763,0.3763,0.3763,0.3763,0.3763,0.3763,0.3763,0.3763,0.4307,0.5544,0.6307,0.7306,0.8623,0.9387,0.9841,0.9846,0.9846,0.9846,0.9922,0.9922,0.9922,0.9922,0.9922,1.0051,-0.0826,0.0,-0.0985,-0.0131,0.0137,0.043,0.1039,0.1181,0.1172,0.1192,0.0953,0.0647,0.0647,0.1029,0.1272,0.1122,0.0769,0.0629,0.0864,0.0393,0.0,0.0,-0.0401,0.0,0.0,0.0,0.0,-0.1432,-0.1436,-0.1436,-0.1436,-0.1436,-0.1436,-0.1436,-0.1525,-0.1615,-0.1794,-0.1885,-0.2064,-0.2154,-0.0717,0.009,0.0179,0.1346,0.1705,0.1436,0.1436,0.1436,0.1436,0.1436,0.1436,0.1436,0.1436,0.1436,0.1436,0.1436,0.1436,0.1436,0.1436,0.1436,0.1436,0.1436,0.1436,0.1436,0.1436,0.1436,0.1433,0.1423,0.142,0.1418,0.1408,0.1391,0.1376,0.1376,0.1361,0.1263,0.1263,0.1263,0.1263,0.1263,0.1599,0.1935,0.2355,0.284,0.324,0.3656,0.3778,0.3763,0.3763,0.3763,0.3763,0.3763,0.3763,0.3763,0.3763,0.4153,0.5004,0.6307,0.708,0.808,0.9463,0.9771,0.9922,0.9922,0.9922,0.9922,0.9922,1.0089,1.0169,1.0175,1.0326,1.0439,-0.1176,-0.1458,-0.1763,-0.0761,-0.0432,-0.0074,0.0679,0.1047,0.1185,0.1194,0.0794,0.042,0.063,0.0853,0.1003,0.1208,0.0963,0.0918,0.1225,0.0848,0.0312,0.0,-0.0244,-0.0665,0.0,0.0,0.0,-0.1344,-0.1436,-0.1436,-0.1436,-0.1436,-0.1436,-0.1436,-0.1436,-0.1525,-0.1615,-0.1794,-0.1615,-0.1256,-0.0269,0.0538,0.1076,0.1884,0.1885,0.1436,0.1436,0.1436,0.1436,0.1436,0.1436,0.1436,0.1436,0.1436,0.1436,0.1436,0.1436,0.1436,0.1436,0.1436,0.1436,0.1436,0.1436,0.1436,0.1436,0.1436,0.1436,0.1436,0.1436,0.1436,0.1436,0.1421,0.1406,0.1406,0.1393,0.1379,0.1379,0.1465,0.1638,0.1638,0.2067,0.2496,0.2755,0.3162,0.3562,0.3956,0.3936,0.3861,0.3861,0.3832,0.3812,0.3812,0.3783,0.3763,0.3763,0.4387,0.5335,0.6854,0.7561,0.8608,1.0092,1.0175,1.0175,1.0175,1.0175,1.0175,1.0175,1.0336,1.0417,1.0417,1.0568,1.0681,-0.1735,-0.2328,-0.2933,-0.1696,-0.1284,-0.0982,0.0076,0.0755,0.1198,0.1168,0.0781,0.0557,0.0,0.0,0.0554,0.1012,0.1127,0.1241,0.1313,0.1269,0.1004,0.0,0.0,0.0,0.0,0.0,0.0,-0.1345,0.0,-0.1346,-0.1345,-0.1345,-0.1436,-0.1436,-0.1436,-0.1436,-0.1436,-0.1615,-0.0987,0.0359,0.0179,0.0806,0.2243,0.2243,0.1885,0.1436,0.1436,0.1436,0.1436,0.1436,0.1436,0.1436,0.1436,0.1436,0.1436,0.1436,0.1436,0.1436,0.1436,0.1436,0.1436,0.1436,0.1436,0.1436,0.1436,0.1436,0.1436,0.1436,0.1436,0.1436,0.1436,0.1436,0.1436,0.1436,0.1436,0.1436,0.1436,0.1884,0.2243,0.2243,0.2601,0.2957,0.2957,0.3262,0.3628,0.3976,0.4048,0.4046,0.4036,0.3961,0.3908,0.3908,0.383,0.3855,0.3855,0.4403,0.5466,0.7183,0.7827,0.8866,1.0546,1.0638,1.0638,1.0638,1.0638,1.0638,1.0638,1.0649,1.0654,1.0654,1.0665,1.0794,-0.2741,-0.308,-0.3441,-0.2856,-0.2267,-0.1511,-0.0303,0.0294,0.0638,0.1036,0.0727,0.038,0.0,0.0,0.0,0.0508,0.0908,0.0,0.1243,0.1288,0.0,0.0487,0.0,-0.0085,-0.0348,-0.0532,0.0,0.0,-0.1166,-0.1076,-0.0359,-0.0987,-0.1436,-0.1436,-0.1436,-0.1436,-0.1436,-0.0987,-0.0448,0.009,0.0985,0.1613,0.2243,0.2243,0.2154,0.1974,0.1615,0.1436,0.1436,0.1436,0.1436,0.1436,0.1436,0.1436,0.1436,0.1436,0.1436,0.1436,0.1436,0.1436,0.1436,0.1436,0.1436,0.1436,0.1436,0.1436,0.1436,0.1436,0.1436,0.1436,0.1436,0.1436,0.1436,0.1436,0.1705,0.1974,0.1974,0.2422,0.2689,0.2689,0.3138,0.3496,0.3851,0.4013,0.4168,0.4236,0.4232,0.4183,0.4053,0.4016,0.4001,0.4001,0.3981,0.4212,0.47,0.5358,0.6348,0.802,0.8671,0.9509,1.0552,1.0638,1.0638,1.0638,1.0638,1.0638,1.0638,1.081,1.0896,1.0902,1.1085,1.1198,-0.3489,-0.3835,-0.4091,-0.3603,-0.2895,-0.2102,-0.0957,-0.0142,0.0339,0.045,0.0248,0.0,0.029,0.0,0.0,0.0,0.0,0.0,0.1129,0.1179,0.1166,0.0,0.0334,0.0,0.0,-0.0267,-0.0449,0.0,-0.1166,-0.1166,-0.0628,-0.1076,-0.1436,-0.1436,-0.1436,-0.1436,-0.1436,-0.0718,-0.0179,0.0359,0.1343,0.206,0.2511,0.2511,0.2422,0.2154,0.1885,0.1615,0.1436,0.1436,0.1436,0.1436,0.1436,0.1436,0.1436,0.1436,0.1436,0.1436,0.1436,0.1436,0.1436,0.1436,0.1436,0.1436,0.1436,0.1436,0.1436,0.1436,0.1436,0.1436,0.1436,0.1436,0.1436,0.1705,0.1974,0.2243,0.2422,0.2869,0.3226,0.3494,0.3764,0.4032,0.43,0.43,0.43,0.43,0.43,0.4263,0.4165,0.412,0.4095,0.4095,0.4061,0.4285,0.503,0.5616,0.6719,0.8455,0.9133,0.9927,1.0861,1.095,1.095,1.095,1.095,1.095,1.095,1.1079,1.1144,1.1149,1.1284,1.1262,-0.413,-0.447,-0.4652,-0.4039,-0.3368,-0.2668,-0.1692,-0.0682,-0.0065,-0.024,0.0,-0.0233,0.0282,0.0,-0.006,0.0741,0.0,0.1073,0.108,0.113,0.1211,0.1333,0.0674,0.0171,0.0,0.0,-0.018,-0.0539,-0.1077,-0.1436,-0.1436,-0.1436,-0.1436,-0.1436,-0.1436,-0.1345,-0.1166,-0.0448,0.0179,0.0896,0.1701,0.2329,0.2867,0.2867,0.2689,0.2333,0.2243,0.1974,0.1525,0.1436,0.1436,0.1436,0.1436,0.1436,0.1436,0.1436,0.1436,0.1436,0.1436,0.1436,0.1436,0.1436,0.1436,0.1436,0.1436,0.1436,0.1436,0.1436,0.1436,0.1436,0.1436,0.1436,0.1615,0.2064,0.2333,0.2512,0.2868,0.3406,0.3855,0.421,0.43,0.43,0.43,0.43,0.43,0.43,0.43,0.43,0.43,0.4234,0.4189,0.4189,0.4203,0.4491,0.5244,0.5832,0.6972,0.8806,0.9427,1.0198,1.1257,1.1262,1.1262,1.1262,1.1262,1.1262,1.1262,1.1262,1.1262,1.1262,1.1262,1.1262,-0.4635,-0.483,-0.4812,-0.428,-0.3957,-0.3469,-0.2121,-0.1588,0.0,0.0,-0.0412,-0.0292,0.0169,0.0232,0.0355,0.082,0.0,0.0,0.0,0.0,0.1211,0.0,0.0,0.0,0.0,0.0,0.0,0.0,-0.0897,-0.1436,-0.1436,-0.1436,-0.1436,-0.1436,-0.1436,-0.0897,0.0179,0.0806,0.1343,0.1971,0.2868,0.3136,0.2867,0.2867,0.2868,0.2778,0.2333,0.2154,0.2064,0.1615,0.1436,0.1436,0.1436,0.1436,0.1436,0.1436,0.1436,0.1436,0.1436,0.1436,0.1436,0.1436,0.1436,0.1436,0.1436,0.1436,0.1436,0.1436,0.1436,0.1436,0.1436,0.1705,0.2064,0.2154,0.2781,0.3408,0.3497,0.3853,0.421,0.43,0.43,0.43,0.43,0.43,0.43,0.43,0.43,0.43,0.43,0.4285,0.4277,0.4277,0.4796,0.5401,0.6098,0.6796,0.7941,0.9716,0.9899,1.0351,1.1262,1.1262,1.1262,1.1262,1.1262,1.1262,1.1262,1.1262,1.1262,1.1262,1.1262,1.1262,-0.48,-0.4876,-0.4757,-0.4324,-0.3969,-0.3449,-0.2465,0.0,0.0,0.0,-0.0909,-0.0679,-0.0429,0.0,0.0,0.0,0.0,0.0,0.0,0.0,0.0,0.0,0.0,0.0,0.0,0.0,0.0,0.0,-0.0628,-0.1076,-0.1076,-0.1076,-0.1166,-0.1436,-0.0628,0.009,0.0538,0.1612,0.2329,0.2597,0.3227,0.3585,0.3583,0.3405,0.3227,0.3227,0.3048,0.2781,0.2511,0.2063,0.1794,0.1794,0.1525,0.1436,0.1436,0.1436,0.1615,0.1794,0.1794,0.1973,0.2152,0.2152,0.1793,0.1436,0.1436,0.1436,0.1436,0.1436,0.1436,0.1436,0.1436,0.1794,0.2243,0.2511,0.3317,0.3942,0.3942,0.4121,0.43,0.43,0.43,0.43,0.43,0.43,0.43,0.43,0.4656,0.4835,0.4835,0.5188,0.5097,0.4389,0.4924,0.5638,0.634,0.6694,0.7837,0.9864,1.0038,1.0391,1.1262,1.1262,1.1262,1.1262,1.1262,1.1262,1.1262,1.1262,1.1262,1.1262,1.1262,1.1262,-0.4749,-0.4795,-0.4715,-0.4321,-0.3953,-0.3423,-0.2847,-0.212,0.0,0.0,-0.1479,-0.1146,-0.098,0.0,0.0,0.0,0.0,0.0,0.0,0.0,0.0,0.0,0.0,0.0,0.0,0.0,0.0,0.0359,-0.0269,-0.0628,-0.0807,-0.0807,-0.0897,-0.1076,0.0269,0.1076,0.1345,0.2418,0.3045,0.3226,0.3585,0.3855,0.4121,0.3855,0.3676,0.3587,0.3587,0.3406,0.3047,0.2511,0.2333,0.2154,0.1705,0.1525,0.1436,0.1436,0.1705,0.2243,0.2243,0.2511,0.2867,0.2867,0.2331,0.1615,0.1615,0.1525,0.1436,0.1436,0.1436,0.1436,0.1436,0.1884,0.2511,0.3047,0.3762,0.43,0.43,0.43,0.43,0.43,0.43,0.43,0.43,0.43,0.43,0.43,0.4924,0.5371,0.5371,0.6166,0.6074,0.4656,0.5191,0.5902,0.6605,0.6694,0.7661,0.9864,1.0125,1.0472,1.1267,1.1262,1.1262,1.1262,1.1262,1.1262,1.1262,1.1262,1.1262,1.1262,1.1262,1.1262,-0.4577,-0.4742,-0.4643,-0.4531,-0.434,-0.3987,-0.3134,0.0,0.0,-0.1915,-0.1695,-0.1496,-0.1062,-0.0519,0.0104,0.0,0.0,0.1628,0.0,0.0,0.0,0.0,0.0,0.0,0.0,0.0,0.0,0.1256,0.0448,-0.0448,-0.1256,-0.1345,-0.0987,-0.0179,0.0627,0.197,0.3948,0.3401,0.3489,0.4208,0.421,0.4032,0.3676,0.4032,0.4032,0.3587,0.3587,0.3587,0.3497,0.3047,0.2601,0.2154,0.2154,0.1794,0.1436,0.1436,0.1705,0.2243,0.2243,0.2511,0.2867,0.2867,0.2511,0.2154,0.2154,0.1794,0.1436,0.1436,0.1436,0.1436,0.1436,0.2152,0.3047,0.3941,0.4208,0.43,0.43,0.43,0.43,0.43,0.43,0.43,0.43,0.43,0.43,0.43,0.4924,0.5371,0.5371,0.6609,0.6871,0.5458,0.5899,0.6605,0.7312,0.7757,0.8636,0.9951,1.0381,1.0727,1.1262,1.1262,1.1262,1.1262,1.1262,1.1262,1.1262,1.1262,1.1262,1.1262,1.1262,1.1262,-0.4535,-0.4613,-0.4515,-0.4398,-0.4143,-0.3737,-0.3095,0.0,-0.2376,-0.1872,-0.1723,-0.1579,-0.1257,-0.0985,-0.0496,0.0418,0.0804,0.0,0.0,0.0,0.0,0.0,0.0,0.0,0.0,0.0,0.1436,0.1436,0.0807,0.0448,0.0537,0.2063,0.2423,0.1254,0.2774,0.4032,0.4935,0.4391,0.4208,0.4569,0.4389,0.421,0.4032,0.421,0.421,0.4032,0.4032,0.4032,0.3942,0.3496,0.3229,0.305,0.269,0.2332,0.1885,0.1885,0.1974,0.2243,0.2511,0.2959,0.3406,0.3673,0.3406,0.296,0.269,0.2242,0.1885,0.1885,0.1615,0.1436,0.1794,0.2601,0.3496,0.4121,0.43,0.43,0.43,0.43,0.43,0.43,0.43,0.43,0.43,0.4656,0.4924,0.4924,0.5899,0.6697,0.6697,0.7136,0.7492,0.7323,0.7139,0.7132,0.7217,0.7841,0.8811,1.0294,1.0549,1.0814,1.1262,1.1262,1.1262,1.1262,1.1262,1.1262,1.1262,1.1262,1.1262,1.1262,1.1262,1.1262,-0.4389,-0.435,-0.43,-0.4257,-0.3844,-0.3376,0.0,0.0,-0.2119,-0.1773,-0.1625,-0.1524,-0.1347,-0.1143,-0.0723,0.01,0.0635,0.1121,0.1724,0.0,0.0,0.0,0.0,0.0,0.0,0.1391,0.1436,0.1436,0.1435,0.1792,0.2597,0.4672,0.4764,0.2418,0.403,0.4928,0.5114,0.502,0.4839,0.4661,0.448,0.4389,0.43,0.43,0.43,0.43,0.43,0.43,0.4297,0.3942,0.3765,0.3587,0.3227,0.278,0.2422,0.2422,0.2512,0.2691,0.2959,0.3406,0.3853,0.421,0.4032,0.3764,0.3405,0.2868,0.2422,0.2422,0.2153,0.1973,0.2512,0.3139,0.3676,0.421,0.43,0.43,0.43,0.43,0.43,0.43,0.4478,0.4656,0.4656,0.5191,0.5725,0.5725,0.6697,0.7489,0.7489,0.7669,0.8025,0.8476,0.8201,0.7929,0.7746,0.8277,0.9152,1.0549,1.0727,1.0992,1.1262,1.1262,1.1262,1.1262,1.1262,1.1262,1.1262,1.1262,1.1262,1.1262,1.1262,1.1262,-0.4047,-0.4031,-0.3969,-0.4088,-0.367,-0.3192,0.0,0.0,-0.2038,-0.1746,-0.151,-0.1287,-0.1285,-0.0714,-0.0193,-0.01,0.1046,0.0,0.1349,0.0,0.0,0.0,0.0,0.0,0.0,0.1536,0.1436,0.1436,0.2599,0.0,0.4218,0.5471,0.5198,0.2957,0.3575,0.4202,0.4839,0.5193,0.5193,0.4661,0.4661,0.4569,0.43,0.43,0.43,0.43,0.43,0.43,0.43,0.43,0.4032,0.3587,0.3587,0.3317,0.2867,0.2867,0.3227,0.3587,0.3587,0.3944,0.43,0.43,0.43,0.43,0.43,0.3673,0.2867,0.2867,0.2867,0.2957,0.3497,0.3587,0.3676,0.421,0.43,0.43,0.43,0.43,0.43,0.43,0.4924,0.5371,0.5371,0.5899,0.6428,0.6428,0.7048,0.7489,0.7489,0.8116,0.8476,0.8201,0.8819,0.9257,0.9257,0.9506,0.9845,1.0549,1.1084,1.1262,1.1262,1.1262,1.1262,1.1262,1.1262,1.1262,1.1262,1.1262,1.1262,1.1262,1.1262,1.1262,-0.4012,-0.3835,-0.3683,-0.364,-0.3319,-0.2967,-0.264,0.0,-0.1955,-0.1536,-0.1357,-0.1238,-0.1047,-0.0857,-0.0535,-0.0104,0.0768,0.0,0.0,0.0,0.0,0.0,0.0,0.0,0.0,0.0,0.1704,0.2331,0.2778,0.3582,0.5008,0.5455,0.5458,0.5198,0.5102,0.5193,0.5377,0.5374,0.5282,0.5193,0.4839,0.4661,0.4569,0.4389,0.43,0.43,0.43,0.43,0.43,0.43,0.421,0.4121,0.4121,0.3764,0.3406,0.3406,0.3227,0.3136,0.3497,0.3676,0.3855,0.421,0.43,0.43,0.43,0.3853,0.3317,0.2957,0.3136,0.3406,0.3587,0.3855,0.4121,0.43,0.43,0.43,0.43,0.43,0.4478,0.4924,0.5282,0.5549,0.5988,0.6694,0.7136,0.7136,0.776,0.8296,0.8296,0.8292,0.8468,0.8907,0.9244,0.9501,0.9501,1.0024,1.0549,1.1084,1.1262,1.1262,1.1262,1.1262,1.1262,1.1262,1.1262,1.1262,1.1262,1.1262,1.1262,1.1262,1.1262,1.1262,0.0,-0.357,-0.3439,-0.33,-0.2965,0.0,0.0,0.0,-0.1732,-0.148,-0.1333,-0.1143,-0.0952,-0.0927,-0.0757,-0.0423,0.0498,0.0,0.0,0.0,0.0,0.0,0.0,0.0,0.0,0.1865,0.224,0.2867,0.3582,0.4383,0.545,0.5808,0.608,0.645,0.6088,0.573,0.5552,0.5552,0.5463,0.5371,0.5104,0.4839,0.4661,0.4569,0.4389,0.43,0.43,0.43,0.0,0.43,0.43,0.43,0.43,0.4121,0.3853,0.3853,0.3674,0.3494,0.3764,0.3853,0.3944,0.421,0.43,0.43,0.43,0.4121,0.3764,0.3494,0.3673,0.3853,0.3853,0.4121,0.43,0.43,0.43,0.43,0.43,0.43,0.4478,0.4924,0.5369,0.5902,0.634,0.7228,0.7937,0.7937,0.8296,0.8656,0.8828,0.8732,0.8903,0.9689,0.9937,1.0019,1.0202,1.0641,1.0992,1.1262,1.1262,1.1262,1.1262,1.1262,1.1262,1.1262,1.1262,1.1262,1.1262,1.1262,1.1262,1.1262,1.1262,1.1262,0.0,-0.3254,0.0,0.0,0.0,0.0,0.0,0.0,0.0,-0.1559,-0.1285,-0.105,-0.1007,-0.0916,-0.0906,-0.0908,0.0338,0.0,0.0,0.0,0.0,0.0,0.0,0.0,0.2167,0.262,0.2956,0.3045,0.4739,0.5719,0.5808,0.6435,0.6795,0.6795,0.6349,0.5905,0.546,0.5644,0.5644,0.546,0.5371,0.5193,0.475,0.475,0.4569,0.43,0.43,0.43,0.43,0.43,0.43,0.43,0.43,0.43,0.43,0.43,0.43,0.43,0.43,0.43,0.43,0.43,0.43,0.43,0.43,0.43,0.43,0.43,0.43,0.4387,0.43,0.43,0.4387,0.43,0.43,0.43,0.43,0.43,0.43,0.4387,0.5542,0.6432,0.6517,0.7764,0.8656,0.8656,0.8656,0.8828,0.9262,0.9345,0.9689,1.0549,1.0636,1.0814,1.1262,1.1262,1.1262,1.1262,1.1262,1.1262,1.1262,1.1262,1.1262,1.1262,1.1262,1.1262,1.1262,1.1262,1.1262,1.1262,1.1283,1.1289,-0.2625,0.0,-0.2912,-0.2655,-0.2397,-0.2104,0.0,0.0,0.0,0.0,0.0,-0.0873,-0.0925,-0.0895,-0.086,-0.0883,0.0,0.0,0.0,0.0,0.0,0.0,0.0,0.2813,0.2454,0.3028,0.3758,0.4474,0.5275,0.5985,0.6697,0.6962,0.6969,0.6795,0.6523,0.6169,0.5905,0.5819,0.5644,0.5644,0.5463,0.5371,0.5193,0.5013,0.4835,0.4569,0.4569,0.448,0.43,0.43,0.43,0.43,0.43,0.43,0.43,0.43,0.43,0.43,0.43,0.43,0.43,0.43,0.43,0.43,0.43,0.43,0.43,0.43,0.4746,0.5015,0.4478,0.4746,0.5015,0.4478,0.43,0.43,0.43,0.43,0.4654,0.5719,0.6163,0.6786,0.7856,0.8648,0.9174,0.9174,0.9432,0.9689,0.9777,1.012,1.0376,1.0549,1.0906,1.1176,1.1262,1.1262,1.1262,1.1262,1.1262,1.1262,1.1262,1.1262,1.1262,1.1262,1.1262,1.1262,1.1262,1.1262,1.1262,1.1267,1.1532,1.1618,-0.2284,-0.2375,-0.2511,-0.2375,-0.2152,-0.1884,0.0,0.0,0.0,0.0,0.0,0.0,-0.0317,-0.0219,0.0,0.0,0.0,0.0,0.0,0.0,0.0,0.0,0.0,0.3212,0.0,0.412,0.4736,0.545,0.6166,0.67,0.7051,0.7139,0.7054,0.6966,0.6609,0.6343,0.6083,0.5822,0.5733,0.5733,0.5552,0.5463,0.5371,0.528,0.5013,0.4835,0.4835,0.4746,0.448,0.448,0.4389,0.43,0.43,0.43,0.43,0.43,0.43,0.43,0.43,0.43,0.43,0.43,0.43,0.43,0.43,0.43,0.43,0.43,0.4835,0.5282,0.4924,0.5104,0.5282,0.4926,0.4567,0.4389,0.4746,0.4835,0.5099,0.6163,0.6874,0.7492,0.8292,0.9082,0.9607,0.9607,0.9868,1.0038,1.0207,1.0463,1.0636,1.0906,1.117,1.1262,1.1262,1.1262,1.1262,1.1262,1.1262,1.1262,1.1262,1.1262,1.1262,1.1262,1.1262,1.1262,1.1262,1.1456,1.151,1.1515,1.1752,1.186,-0.2105,-0.2029,-0.199,-0.2066,-0.1928,-0.1706,-0.1446,0.0,0.0,0.0,0.0,0.0,0.0,0.0,0.0,0.0,0.0,0.0,0.0,0.0,0.0,0.0,0.354,0.0,0.4894,0.5333,0.5716,0.6245,0.7054,0.7415,0.7143,0.7143,0.7143,0.7139,0.6609,0.6343,0.6169,0.5819,0.5733,0.5733,0.5733,0.5644,0.546,0.546,0.5282,0.5099,0.5099,0.4924,0.475,0.475,0.4569,0.4389,0.43,0.43,0.43,0.43,0.43,0.43,0.43,0.43,0.43,0.43,0.43,0.43,0.43,0.43,0.43,0.4478,0.5013,0.5549,0.5549,0.5549,0.5549,0.546,0.4924,0.4567,0.5104,0.546,0.5813,0.6428,0.7489,0.8372,0.846,0.9336,1.0125,1.0125,1.0125,1.0299,1.0641,1.0722,1.0901,1.1262,1.1262,1.1262,1.1262,1.1262,1.1262,1.1262,1.1262,1.1262,1.1262,1.1262,1.1262,1.1262,1.13,1.1402,1.1321,1.1639,1.1752,1.1758,1.1995,1.2102,-0.1775,-0.1609,-0.1497,-0.1855,-0.1839,-0.1629,0.0,0.0,0.0,0.0,0.0,0.0,0.0,0.0,0.0,0.0,0.0,0.0,0.0,0.0,0.0,0.4123,0.0,0.4369,0.5181,0.5717,0.6257,0.6871,0.7496,0.768,0.7415,0.7415,0.7323,0.7139,0.6609,0.634,0.6343,0.5908,0.5733,0.5733,0.5733,0.5644,0.5644,0.5644,0.5552,0.5371,0.5371,0.5191,0.4921,0.4748,0.4661,0.4659,0.4389,0.43,0.43,0.43,0.43,0.43,0.43,0.43,0.43,0.43,0.43,0.43,0.43,0.43,0.4389,0.5013,0.5725,0.6254,0.6254,0.6254,0.6077,0.5549,0.5282,0.5104,0.4567,0.5714,0.6861,0.6949,0.8009,0.8982,0.9598,1.012,1.0549,1.0549,1.0819,1.1089,1.1176,1.1176,1.1262,1.1262,1.1262,1.1262,1.1262,1.1262,1.1262,1.1262,1.1262,1.1262,1.1262,1.1262,1.1262,1.1262,1.1548,1.1645,1.1645,1.1881,1.1995,1.2,1.2248,1.2361,-0.1552,-0.132,-0.1265,-0.1562,-0.1234,-0.0613,0.0,0.0,0.0,0.0,0.0,0.0,0.0,0.0,0.0,0.0,0.0,0.0,0.0,0.4318,0.4375,0.0,0.0,0.5183,0.622,0.6583,0.7051,0.7669,0.7937,0.794,0.7768,0.7595,0.7415,0.7323,0.6881,0.6612,0.6612,0.6174,0.5819,0.5733,0.5733,0.5733,0.5733,0.5733,0.5644,0.5552,0.5552,0.546,0.5191,0.5104,0.5015,0.4835,0.4743,0.4832,0.501,0.4924,0.4924,0.4835,0.4478,0.43,0.43,0.43,0.43,0.43,0.43,0.43,0.4565,0.5633,0.6166,0.6517,0.6871,0.6694,0.6343,0.5988,0.5458,0.5015,0.501,0.6248,0.7394,0.7746,0.8886,0.9937,1.0294,1.0733,1.0992,1.0992,1.117,1.1262,1.1262,1.1262,1.1262,1.1262,1.1262,1.1262,1.1262,1.1262,1.1262,1.1262,1.1262,1.1262,1.1262,1.1262,1.1408,1.1537,1.1645,1.1758,1.1887,1.2129,1.2248,1.2253,1.249,1.2603,-0.1261,-0.1113,-0.1115,-0.1232,0.0,0.0,0.0,0.0,0.0,0.0,0.0,0.0,0.0,0.0,0.0,0.0,0.0,0.4644,0.4739,0.4588,0.4673,0.4969,0.5288,0.5892,0.7014,0.7312,0.7753,0.8292,0.8292,0.8204,0.794,0.7768,0.7573,0.745,0.7011,0.6819,0.6695,0.6259,0.6025,0.5822,0.5733,0.5733,0.5733,0.5733,0.5733,0.5733,0.5733,0.5644,0.5463,0.546,0.528,0.5099,0.501,0.5364,0.5894,0.5897,0.5811,0.5544,0.4921,0.4565,0.4389,0.43,0.43,0.43,0.43,0.43,0.4565,0.5985,0.6428,0.6609,0.7492,0.7224,0.6605,0.6428,0.5722,0.5191,0.5455,0.6514,0.7665,0.8277,0.9501,1.0549,1.0727,1.1084,1.1262,1.1262,1.1262,1.1262,1.1262,1.1262,1.1262,1.1262,1.1262,1.1262,1.1262,1.1262,1.1262,1.1262,1.1262,1.1262,1.1262,1.1402,1.1515,1.1698,1.1811,1.1957,1.2134,1.2377,1.2495,1.2596,1.2775,1.2861,-0.075,-0.0939,-0.1054,-0.0799,-0.0721,0.0,0.2552,0.2635,0.0,0.3066,0.0,0.0,0.0,0.0,0.0,0.0,0.0,0.5084,0.5049,0.0,0.5251,0.5146,0.5541,0.6177,0.7034,0.7312,0.7757,0.8476,0.8568,0.8472,0.8201,0.8201,0.7865,0.7375,0.7028,0.6708,0.6322,0.6148,0.602,0.6083,0.5822,0.5733,0.5733,0.5733,0.5733,0.5733,0.5733,0.5733,0.5644,0.5463,0.5371,0.5371,0.5099,0.5536,0.6413,0.7291,0.7115,0.6328,0.6068,0.5364,0.4659,0.4389,0.43,0.43,0.43,0.43,0.4565,0.5985,0.6428,0.6697,0.812,0.7937,0.7224,0.6605,0.634,0.5988,0.5015,0.6251,0.7661,0.8093,0.9148,1.0207,1.1089,1.1262,1.1262,1.1262,1.1262,1.1262,1.1262,1.1262,1.1262,1.1262,1.1262,1.1262,1.1262,1.1262,1.1262,1.1262,1.1262,1.1262,1.1262,1.1558,1.1682,1.1698,1.214,1.2371,1.2388,1.2624,1.2834,1.3028,1.3044,1.305,-0.0374,-0.0269,-0.0337,-0.065,-0.0493,0.0,0.0,0.3268,0.3482,0.4091,0.3928,0.0,0.0,0.0,0.0,0.0,0.5283,0.5503,0.5473,0.5469,0.5448,0.5416,0.6319,0.7063,0.7126,0.8021,0.8644,0.8568,0.8568,0.8564,0.8472,0.8194,0.7842,0.7521,0.7168,0.684,0.6536,0.6287,0.6173,0.6193,0.5927,0.5744,0.5733,0.5733,0.5733,0.5733,0.5733,0.5733,0.5733,0.5644,0.5552,0.5641,0.5811,0.6422,0.7298,0.7566,0.7742,0.783,0.6681,0.6065,0.5625,0.4919,0.4743,0.4743,0.4743,0.5184,0.58,0.6779,0.7485,0.8017,0.8476,0.8028,0.7401,0.7136,0.6517,0.5899,0.5638,0.6343,0.7132,0.7485,0.8364,0.9157,0.9506,1.0033,1.0472,1.0472,1.0911,1.1262,1.1262,1.1262,1.1262,1.1262,1.1483,1.1569,1.1569,1.1698,1.1785,1.1785,1.1645,1.1569,1.1569,1.179,1.208,1.2422,1.2604,1.2775,1.3109,1.3204,1.3249,1.3346,1.3346,1.3346,-0.0,0.0139,0.0246,0.0155,0.0,0.0,0.3522,0.3942,0.4057,0.4833,0.4747,0.0,0.0,0.0,0.0,0.0,0.5567,0.5775,0.5698,0.5573,0.5608,0.5737,0.6857,0.7588,0.7661,0.8727,0.9196,0.8823,0.8773,0.8649,0.8479,0.8134,0.7838,0.753,0.7173,0.693,0.664,0.64,0.6263,0.6223,0.6065,0.586,0.5761,0.5761,0.5783,0.5733,0.5733,0.5733,0.5733,0.5733,0.5908,0.6171,0.6782,0.7661,0.8448,0.8627,0.889,0.9065,0.7822,0.7031,0.6416,0.5714,0.545,0.545,0.545,0.6062,0.7031,0.7746,0.8364,0.8894,0.8995,0.864,0.8189,0.8017,0.7044,0.6251,0.6343,0.634,0.6529,0.7019,0.7649,0.8375,0.9059,0.9424,0.9691,1.0051,1.0676,1.1035,1.1035,1.1305,1.1569,1.1569,1.1715,1.1811,1.1811,1.1957,1.214,1.2232,1.2064,1.1983,1.1901,1.2221,1.2521,1.288,1.2964,1.3183,1.3539,1.3539,1.3539,1.3642,1.3642,1.3642,0.0382,0.0295,0.0667,0.0,0.0,0.0,0.5218,0.4704,0.4128,0.5178,0.0,0.5135,0.5349,0.0,0.0,0.5597,0.5635,0.5701,0.5619,0.5398,0.5599,0.6291,0.6923,0.7741,0.8763,0.9301,0.9558,0.9327,0.9073,0.8789,0.8288,0.8109,0.7845,0.743,0.719,0.6957,0.6641,0.6412,0.6254,0.6074,0.6074,0.6055,0.5886,0.5886,0.5874,0.573,0.5733,0.5733,0.5733,0.5733,0.626,0.7139,0.8105,0.9069,1.0033,1.0911,1.0738,0.9859,0.9671,0.8352,0.6776,0.6505,0.6413,0.6413,0.6413,0.7115,0.799,0.8711,0.889,0.9065,0.9859,1.0038,0.9859,0.9069,0.8189,0.7401,0.6956,0.6077,0.576,0.7054,0.7262,0.7949,1.0066,0.963,0.9254,1.0288,1.0473,1.0473,1.0477,1.14,1.214,1.214,1.214,1.214,1.214,1.2145,1.2237,1.242,1.2659,1.2686,1.2426,1.2664,1.2886,1.3151,1.3408,1.3539,1.3539,1.3539,1.3636,1.3931,1.3931,1.3931,0.0136,0.0899,0.0,0.0,0.0,0.0,0.0,0.4743,0.0,0.0,0.517,0.5391,0.571,0.0,0.0,0.5751,0.5855,0.5852,0.5844,0.5698,0.5877,0.6513,0.7381,0.8048,0.8569,0.9339,0.9615,0.9252,0.8875,0.8678,0.8512,0.8093,0.7729,0.7426,0.7238,0.6998,0.6641,0.6563,0.6433,0.6247,0.6247,0.6474,0.6836,0.6257,0.6332,0.6893,0.6118,0.5911,0.5997,0.5822,0.5819,0.6171,0.7139,0.8105,0.9069,0.9946,1.0559,1.0651,0.9327,0.889,0.8711,0.7309,0.7305,0.7834,0.7834,0.8536,0.9323,0.9501,1.012,1.0646,1.0824,1.0916,1.0738,0.9859,0.9069,0.8277,0.7658,0.6946,0.6494,0.635,0.6432,0.6692,0.7295,0.7674,0.8326,0.9355,1.0102,1.075,1.1492,1.1865,1.214,1.214,1.2204,1.24,1.2593,1.2742,1.293,1.3121,1.329,1.3216,1.2955,1.3199,1.3431,1.3718,1.3794,1.3829,1.401,1.401,1.4112,1.4208,1.4208,1.4208,0.1411,0.0,0.0,0.0,0.0,0.0,0.0,0.0,0.0,0.0,0.0,0.5851,0.6057,0.6074,0.0,0.6,0.5982,0.5921,0.5928,0.6093,0.6481,0.7133,0.7939,0.8649,0.9266,0.9772,0.9893,0.9481,0.9171,0.8882,0.8559,0.8145,0.7807,0.7481,0.7308,0.7103,0.6872,0.6718,0.6563,0.6412,0.6644,0.7129,0.7793,0.6898,0.6847,0.7246,0.6291,0.5961,0.6083,0.5822,0.5908,0.6349,0.7316,0.8193,0.9157,1.012,1.0824,1.1176,1.0033,0.9767,0.9685,0.8544,0.8632,0.9069,0.9069,0.9685,1.0472,1.0472,1.0824,1.1262,1.1262,1.1262,1.1176,1.0651,0.9859,0.9152,0.8711,0.7875,0.7011,0.6608,0.6355,0.6362,0.6792,0.6991,0.7468,0.8519,0.9188,0.9854,1.0995,1.1472,1.1754,1.1754,1.2268,1.2745,1.2936,1.3165,1.3346,1.3636,1.3642,1.3663,1.3684,1.3646,1.3835,1.4022,1.4022,1.4112,1.4298,1.4298,1.4298,1.4298,1.4298,1.4298,0.3411,0.0,0.0,0.0,0.0,0.0,0.0,0.0,0.0,0.6261,0.0,0.6314,0.6311,0.6338,0.6338,0.6338,0.6099,0.5941,0.5941,0.6556,0.7246,0.8003,0.8694,0.9464,1.0467,1.0417,1.019,0.9913,0.9736,0.9301,0.8436,0.8194,0.7949,0.7484,0.7334,0.718,0.7184,0.6949,0.6791,0.6714,0.7403,0.8093,0.8856,0.7873,0.7335,0.7188,0.6424,0.6135,0.6083,0.5819,0.6349,0.7228,0.8193,0.9157,1.012,1.0997,1.1354,1.1354,1.1176,1.0651,1.0033,0.9946,0.9946,1.0033,1.0033,1.0646,1.1262,1.1262,1.1262,1.1262,1.1262,1.1262,1.1262,1.1262,1.0646,1.0038,0.997,0.8613,0.7509,0.757,0.6867,0.6608,0.7704,0.7033,0.6734,0.7822,0.812,0.8517,0.9509,1.0489,1.117,1.1268,1.2257,1.305,1.3147,1.3443,1.3636,1.3931,1.3931,1.4022,1.4298,1.4118,1.4022,1.4298,1.4298,1.4298,1.4298,1.4298,1.4298,1.4298,1.4298,1.4298,0.0,0.3498,0.0,0.0,0.0,0.0,0.0,0.0,0.6384,0.5835,0.6043,0.6371,0.6479,0.6412,0.6338,0.6338,0.6261,0.618,0.618,0.6868,0.7629,0.8232,0.8841,0.9549,1.022,1.0073,0.9942,0.9919,0.9571,0.9158,0.8693,0.8277,0.7949,0.7484,0.7484,0.7334,0.7184,0.7706,0.7927,0.7778,0.8542,0.9367,1.0045,0.8889,0.8094,0.7514,0.7432,0.6993,0.6343,0.6254,0.6782,0.7746,0.8711,0.9666,1.0534,1.1343,1.1699,1.1693,1.0559,1.0651,1.117,1.0207,1.0386,1.0997,1.0997,1.1176,1.1262,1.1262,1.1262,1.1262,1.1262,1.1262,1.1262,1.1262,1.1176,1.0871,1.0327,0.934,0.8411,0.8108,0.7098,0.6506,0.6933,0.6736,0.6734,0.7822,0.8715,0.9312,0.9608,0.9998,1.0583,1.1463,1.197,1.2662,1.3642,1.3738,1.3925,1.4208,1.4202,1.4202,1.4298,1.4202,1.4202,1.4298,1.4298,1.4298,1.4298,1.4298,1.4298,1.4298,1.4298,1.4298,0.0,0.0,0.0,0.0,0.0,0.0,0.0,0.0,0.6501,0.6286,0.6449,0.6637,0.6714,0.6563,0.6412,0.6412,0.6338,0.6416,0.6795,0.7557,0.8318,0.8998,0.9604,0.9986,1.0293,1.0067,0.9922,0.9922,0.9695,0.9392,0.9013,0.8632,0.8174,0.7791,0.7638,0.7638,0.7944,0.8232,0.8533,0.8841,0.9518,1.0271,1.1025,0.9906,0.9228,0.8978,0.8093,0.7521,0.7217,0.6605,0.6956,0.7921,0.8794,0.9749,1.0702,1.151,1.1871,1.1866,1.1165,1.1343,1.1699,1.1084,1.1257,1.1607,1.1607,1.1607,1.1607,1.1607,1.1607,1.1607,1.1607,1.1607,1.1607,1.1607,1.1527,1.1413,1.1196,1.0586,0.977,0.9208,0.8115,0.7229,0.6842,0.6642,0.6836,0.7531,0.8127,0.8421,0.8421,0.9015,0.9608,1.0194,1.1375,1.2457,1.3141,1.3727,1.4112,1.4298,1.4298,1.4298,1.4298,1.4298,1.4298,1.4298,1.4298,1.4298,1.4298,1.4298,1.4298,1.4298,1.4298,1.4298,0.0,0.0,0.0,0.0,0.0,0.0,0.0,0.0,0.6603,0.6838,0.6881,0.6865,0.6865,0.671,0.6563,0.6563,0.6412,0.6567,0.7407,0.8169,0.9008,0.9765,1.0293,1.0519,1.0513,1.0143,0.9922,0.9922,0.9922,0.9695,0.9322,0.9013,0.8556,0.8106,0.7791,0.794,0.8699,0.8689,0.9064,0.99,1.0496,1.1168,1.1706,1.0887,1.0396,1.0196,0.8565,0.7946,0.7921,0.7132,0.7309,0.8269,0.9231,1.0096,1.1047,1.1768,1.2123,1.2123,1.2043,1.2037,1.2037,1.2043,1.2043,1.2043,1.2043,1.2043,1.2043,1.2043,1.2043,1.2043,1.2043,1.2043,1.2043,1.2043,1.1866,1.1858,1.2148,1.1711,1.1076,1.0487,0.9401,0.8219,0.7042,0.6842,0.6942,0.7138,0.7238,0.7238,0.7238,0.8031,0.8627,0.8825,1.0685,1.2052,1.2441,1.342,1.41,1.4298,1.4298,1.4298,1.4298,1.4298,1.4298,1.4298,1.4298,1.4298,1.4298,1.4298,1.4298,1.4298,1.4298,1.4298,0.0,0.0,0.0,0.0,0.0,0.0,0.0,0.0,0.6495,0.0,0.6805,0.6865,0.6865,0.671,0.6563,0.6563,0.6412,0.6567,0.7407,0.8169,0.9008,0.9765,1.0443,1.0663,1.0513,1.0293,1.0067,0.9922,0.9922,0.9695,0.9322,0.9246,0.8865,0.8102,0.8025,0.825,0.8703,0.9372,1.0121,1.0881,1.17,1.2003,1.1929,1.1632,1.077,0.9552,0.9064,0.8291,0.7312,0.7929,0.8798,0.9749,1.0626,1.158,1.2443,1.2363,1.2454,1.2534,1.2123,1.2118,1.2283,1.2037,1.2043,1.2043,1.2043,1.2043,1.2043,1.2043,1.2043,1.2043,1.2043,1.2043,1.2043,1.2043,1.2118,1.2412,1.2631,1.1914,1.1399,1.1925,1.0467,0.8722,0.7338,0.7138,0.7138,0.7238,0.7238,0.7238,0.7238,0.754,0.8137,0.9019,0.9608,1.0681,1.2533,1.2829,1.3318,1.4196,1.4298,1.4298,1.4298,1.4298,1.4298,1.4298,1.4298,1.4298,1.4298,1.4298,1.4298,1.4298,1.4298,1.4298,0.4123,0.0,0.0,0.0,0.0,0.0,0.0,0.0,0.6547,0.6523,0.6722,0.6916,0.6934,0.6801,0.6714,0.6637,0.6795,0.7253,0.8093,0.8856,0.9685,1.0513,1.0738,1.0738,1.0663,1.0368,1.0143,1.0067,0.9997,0.9846,0.962,0.9397,0.917,0.8789,0.8331,0.8632,0.9685,0.9825,1.0496,1.1781,1.2157,1.2231,1.2157,1.1929,1.1468,1.066,0.9585,0.9151,0.9167,0.8674,0.9323,1.0712,1.1149,1.1843,1.2705,1.2619,1.2619,1.2705,1.2454,1.2454,1.2534,1.2454,1.2369,1.2369,1.2369,1.2369,1.2369,1.2369,1.2369,1.2369,1.2369,1.2369,1.2369,1.2369,1.2573,1.2873,1.3158,1.2865,1.2259,1.1671,1.0293,0.8821,0.764,0.7444,0.7441,0.764,0.7637,0.7637,0.7637,0.7739,0.8038,0.8432,0.9217,0.9998,1.0877,1.2047,1.2926,1.3414,1.4004,1.4298,1.4298,1.4298,1.437,1.4527,1.4377,1.4298,1.4298,1.4298,1.4298,1.4298,1.4461,1.4533,0.0,0.0,0.0,0.0,0.0,0.0,0.0,0.0,0.6587,0.0,0.6763,0.7074,0.7041,0.6958,0.6878,0.6881,0.7298,0.7863,0.8699,0.9387,1.0218,1.1037,1.0962,1.0812,1.0738,1.0443,1.0218,1.0143,0.9992,0.9922,0.9922,0.962,0.9397,0.9322,0.8789,0.916,1.0513,1.0501,1.1099,1.2305,1.2305,1.2305,1.2298,1.2077,1.1977,1.175,0.9917,0.9679,1.0485,0.9329,0.9845,1.1322,1.158,1.21,1.2705,1.2705,1.2705,1.2705,1.2705,1.2705,1.2705,1.2705,1.2705,1.2705,1.2705,1.2705,1.2705,1.2705,1.2705,1.2705,1.2705,1.2705,1.2705,1.2705,1.2922,1.3218,1.3544,1.367,1.317,1.1308,1.0293,0.9316,0.7942,0.7743,0.7743,0.7942,0.8038,0.8038,0.8038,0.8038,0.8038,0.8038,0.8726,0.941,0.9998,1.1463,1.2565,1.3213,1.4007,1.4431,1.4503,1.4503,1.46,1.4811,1.4612,1.4503,1.4503,1.4503,1.4503,1.4509,1.4721,1.4817,0.0,0.0,0.0,0.0,0.0,0.0,0.0,0.0,0.0,0.642,0.6885,0.7277,0.7342,0.7128,0.7076,0.759,0.7744,0.8084,0.8846,0.9539,1.0218,1.1037,1.1111,1.0962,1.0513,1.0513,1.0293,0.9922,0.9922,0.9922,0.9922,0.9846,0.9695,0.9322,0.962,1.0067,1.0513,1.1632,1.2224,1.2305,1.2305,1.2305,1.2298,1.2077,1.2016,1.1906,1.0163,0.9426,0.955,0.9751,1.0448,1.1408,1.2272,1.2619,1.2705,1.2705,1.2705,1.2705,1.2705,1.2705,1.2705,1.2705,1.2705,1.2705,1.2705,1.2705,1.2705,1.2705,1.2705,1.2705,1.2705,1.2705,1.2705,1.2705,1.2922,1.3266,1.3773,1.4081,1.368,1.1556,1.117,1.0391,0.8333,0.7942,0.7939,0.8038,0.8038,0.8038,0.8038,0.8038,0.8038,0.8038,0.8038,0.892,1.0974,1.1175,1.2242,1.4475,1.4696,1.4805,1.5059,1.5065,1.5071,1.5089,1.5071,1.5065,1.5065,1.5065,1.5065,1.5065,1.5083,1.5089,0.0,0.0,0.0,0.0,0.0,0.5998,0.6063,0.6254,0.6515,0.6839,0.7168,0.7584,0.8074,0.7945,0.7929,0.8325,0.8803,0.9278,0.9739,1.0288,1.0812,1.1037,1.1111,1.1037,1.0887,1.0738,1.0663,1.0513,1.0218,1.0067,1.0067,0.9997,0.9846,0.9695,0.9549,0.9846,1.0513,1.1706,1.2305,1.2305,1.2305,1.2305,1.2305,1.2224,1.215,1.1948,1.0855,1.0834,1.1514,1.1324,1.1837,1.2705,1.3052,1.3137,1.3137,1.3137,1.3052,1.2966,1.2966,1.2875,1.2705,1.2705,1.2705,1.2705,1.2705,1.2705,1.2705,1.2705,1.2705,1.2705,1.2705,1.2705,1.2789,1.3139,1.3429,1.3725,1.4081,1.4232,1.3709,1.156,1.117,1.0489,0.8333,0.8038,0.8038,0.8038,0.8038,0.8038,0.8038,0.8038,0.8038,0.8038,0.813,0.8487,0.9287,1.0694,1.1909,1.2806,1.4145,1.501,1.5107,1.5107,1.5185,1.5354,1.536,1.5276,1.5107,1.5107,1.5107,1.5113,1.5282,1.536,0.0,0.0,0.0,0.0,0.0,0.5813,0.6233,0.0,0.6883,0.7511,0.7874,0.8238,0.8798,0.8839,0.8772,0.889,0.939,0.9852,1.0025,1.0487,1.0846,1.0846,1.0846,1.0773,1.0706,1.0633,1.0633,1.0767,1.034,1.0154,1.0456,1.0096,0.9911,1.0067,1.0067,1.0293,1.1037,1.2003,1.2526,1.2526,1.2452,1.2378,1.2378,1.2305,1.2224,1.2096,1.1764,1.1973,1.2523,1.2052,1.2451,1.3398,1.3398,1.3398,1.3398,1.3398,1.3313,1.3228,1.3228,1.3052,1.296,1.296,1.2875,1.279,1.279,1.279,1.2705,1.2705,1.2705,1.2705,1.2705,1.2777,1.2958,1.3405,1.3713,1.3978,1.4339,1.4394,1.3806,1.2047,1.1463,1.0583,0.8825,0.8233,0.8038,0.8038,0.8038,0.8038,0.8038,0.8038,0.8058,0.8113,0.8208,0.8596,0.9358,1.0896,1.2132,1.3039,1.4402,1.5276,1.5366,1.5372,1.5451,1.5626,1.5626,1.5547,1.5372,1.5372,1.5372,1.5372,1.5547,1.5626,0.0,0.0,0.0,0.0,0.0,0.0,0.6852,0.0,0.7443,0.8302,0.8805,0.921,0.9464,0.965,0.959,0.9162,0.9422,0.9689,0.9701,1.0055,1.0327,1.0327,1.0327,1.0194,1.0055,0.9985,1.0188,1.0654,1.0043,1.0084,1.1035,1.028,1.0042,1.0496,1.1105,1.1632,1.2003,1.2599,1.29,1.29,1.2673,1.2599,1.2599,1.2378,1.2305,1.2318,1.2681,1.2758,1.259,1.1934,1.2362,1.3392,1.3392,1.3392,1.3392,1.3392,1.3398,1.3398,1.3398,1.3398,1.3398,1.3398,1.3307,1.3143,1.3143,1.2966,1.2705,1.2705,1.2705,1.2705,1.2711,1.2922,1.32,1.3465,1.3725,1.4084,1.4632,1.4496,1.4004,1.2926,1.195,1.0877,0.9805,0.8726,0.8038,0.8038,0.8038,0.8038,0.8038,0.8041,0.8102,0.8255,0.8279,0.9259,1.1583,1.1808,1.2837,1.5285,1.5511,1.5626,1.5879,1.5891,1.5891,1.5891,1.5891,1.5891,1.5891,1.5891,1.5891,1.5891,1.5891,1.5891,0.4983,0.0,0.0,0.0,0.0,0.0,0.0,0.0,0.7399,0.8147,0.888,0.9499,0.9884,1.0027,1.0053,0.9754,0.9792,1.0025,1.0341,1.0327,1.0327,1.0327,1.0327,1.0263,1.0194,1.0194,1.0257,1.0396,1.0118,1.0014,1.0289,0.9973,1.0036,1.0469,1.1089,1.1632,1.2224,1.2673,1.29,1.29,1.2826,1.2826,1.2826,1.2753,1.2673,1.2532,1.2762,1.2954,1.2988,1.302,1.3393,1.3913,1.3913,1.3913,1.3913,1.3913,1.3743,1.3652,1.3652,1.3483,1.3398,1.3398,1.3392,1.3313,1.3313,1.3307,1.3222,1.3222,1.3222,1.3266,1.3467,1.3718,1.4,1.4276,1.4565,1.4797,1.4968,1.4885,1.4592,1.3511,1.3028,1.2242,1.0194,0.9608,0.9118,0.8137,0.8038,0.8038,0.8038,0.8136,0.8221,0.8265,0.8462,0.9239,1.0759,1.1833,1.322,1.4798,1.5765,1.6337,1.6211,1.6217,1.6105,1.5891,1.5891,1.5891,1.5891,1.5891,1.5891,1.5891,1.5891,1.5891,0.0,0.0,0.0,0.0,0.0,0.0,0.6253,0.6988,0.7854,0.0,0.9542,0.9926,1.0141,1.0155,1.0112,0.9942,0.9968,1.0034,1.034,1.0269,1.0202,1.0202,1.0135,1.0068,1.0068,1.0001,1.0068,1.033,1.0263,1.0178,1.0146,1.0061,1.0136,1.0278,1.1172,1.1827,1.219,1.2837,1.3127,1.3127,1.3046,1.3046,1.3046,1.2973,1.2826,1.2753,1.2753,1.2873,1.3111,1.334,1.3707,1.4088,1.4088,1.4088,1.4088,1.4088,1.3997,1.3913,1.3913,1.3822,1.3659,1.3659,1.3652,1.3568,1.3568,1.3483,1.3398,1.3398,1.3398,1.3461,1.3735,1.4015,1.4288,1.4574,1.4867,1.5178,1.5267,1.5267,1.507,1.4292,1.3806,1.3022,1.156,1.0974,1.0194,0.8821,0.8726,0.8752,0.8327,0.8516,0.8724,0.8855,0.903,0.9804,1.1487,1.245,1.3701,1.5328,1.6299,1.663,1.6324,1.6324,1.6217,1.6105,1.5998,1.5891,1.5891,1.5891,1.5891,1.5891,1.5891,1.5891,0.0,0.0,0.0,0.0,0.0,0.0,0.7506,0.7966,0.8462,0.0,1.0309,1.021,1.021,1.0001,0.9855,0.992,0.9904,0.992,1.0009,0.9989,0.9983,0.9983,0.9862,0.974,0.974,0.9612,0.9798,1.0421,1.0548,1.052,1.0371,1.0331,1.0215,1.0077,1.1307,1.2043,1.2219,1.3006,1.3455,1.3492,1.3346,1.32,1.32,1.3046,1.2973,1.29,1.2746,1.2845,1.3071,1.3236,1.3615,1.4041,1.4075,1.4088,1.4088,1.4088,1.4088,1.4088,1.4088,1.4088,1.4088,1.4088,1.3913,1.3737,1.3737,1.3652,1.3483,1.3483,1.3502,1.3592,1.3867,1.4148,1.443,1.4711,1.498,1.5267,1.5445,1.554,1.5445,1.5172,1.4394,1.3607,1.3216,1.2344,1.1268,0.9899,0.9801,0.9573,0.8856,0.8995,0.9224,0.9533,0.9685,1.0721,1.3058,1.3398,1.4476,1.6624,1.673,1.663,1.643,1.643,1.643,1.6324,1.6105,1.5998,1.5998,1.5891,1.5891,1.5891,1.5891,1.5891,0.0,0.0,0.0,0.0,0.0,0.0,0.7187,0.7812,0.8432,0.0,0.933,0.9794,0.9794,0.963,0.9492,0.9485,0.9706,0.992,1.0009,0.9926,0.9868,0.9868,0.9676,0.9548,0.9548,0.9548,0.9798,1.0421,1.0968,1.0919,1.0098,1.0299,1.039,1.039,1.0878,1.17,1.2791,1.3004,1.3236,1.3492,1.3492,1.3419,1.3419,1.3419,1.3273,1.3127,1.3273,1.3297,1.33,1.3776,1.3808,1.3754,1.3995,1.4088,1.4088,1.4088,1.4088,1.4088,1.4088,1.4088,1.4088,1.4088,1.4088,1.3997,1.3997,1.3997,1.3997,1.3997,1.4084,1.4328,1.4708,1.5,1.52,1.5483,1.5596,1.5642,1.5737,1.573,1.5737,1.5642,1.5445,1.5051,1.3974,1.2915,1.1755,1.0489,0.9509,0.8984,0.9056,0.9198,0.9354,0.9544,1.0542,1.172,1.3176,1.4352,1.5535,1.6955,1.7272,1.7272,1.7067,1.7073,1.6855,1.663,1.6518,1.6518,1.6518,1.6099,1.5891,1.5891,1.5891,1.5891,0.0,0.0,0.0,0.6822,0.0,0.0,0.0,0.8066,0.8533,0.8959,0.9343,0.9563,0.9563,0.9447,0.9389,0.9389,0.9695,0.9884,0.9877,0.9938,0.9989,0.9926,0.974,0.9676,0.9676,0.9548,0.9919,1.0905,1.1274,1.1329,1.1142,1.098,1.0877,1.0884,1.1247,1.1892,1.276,1.2928,1.317,1.3492,1.3492,1.3492,1.3492,1.3492,1.3419,1.3346,1.3346,1.3286,1.3315,1.3783,1.3836,1.3783,1.4234,1.4412,1.4412,1.4328,1.4243,1.4243,1.4166,1.4088,1.4088,1.4088,1.4088,1.4088,1.4088,1.4088,1.4115,1.4262,1.4409,1.4623,1.5064,1.5291,1.5471,1.5758,1.5832,1.5832,1.5832,1.5832,1.5832,1.5832,1.5832,1.5534,1.4854,1.4274,1.3409,1.2145,1.1747,1.1397,1.1096,1.1408,1.1613,1.1804,1.245,1.3275,1.4465,1.5215,1.618,1.7378,1.7483,1.7483,1.7173,1.7179,1.706,1.673,1.6842,1.6849,1.673,1.6418,1.6311,1.6311,1.6311,1.6311,0.0,0.0,0.0,0.0,0.0,0.762,0.0,0.0,0.0,0.9409,0.9398,0.9284,0.9284,0.9284,0.9284,0.9284,0.0,0.0,0.0,0.9873,0.0,0.9888,0.9799,0.9716,0.973,0.9611,1.0108,1.1384,1.1406,1.1637,1.2258,1.1725,1.1365,1.1303,1.161,1.2,1.2519,1.2782,1.3111,1.3492,1.3492,1.3492,1.3492,1.3492,1.3492,1.3492,1.3346,1.3273,1.3316,1.3726,1.3895,1.3959,1.4496,1.4734,1.465,1.4482,1.4398,1.4398,1.4243,1.4166,1.4088,1.4088,1.4166,1.4166,1.4088,1.4166,1.4226,1.4436,1.4563,1.473,1.5257,1.5438,1.5538,1.5772,1.5832,1.5832,1.5832,1.5832,1.5832,1.5832,1.5832,1.5737,1.5635,1.5445,1.4867,1.3806,1.3877,1.3817,1.3185,1.3501,1.3836,1.4105,1.4347,1.4888,1.5861,1.6074,1.6611,1.7582,1.7582,1.7483,1.7279,1.7279,1.7166,1.6836,1.7166,1.7166,1.6836,1.6836,1.6836,1.673,1.673,1.673,0.0,0.0,0.0,0.0,0.8404,0.0,0.0,0.0,0.8758,0.8898,0.0,0.8851,0.8851,0.0,0.0,0.0,0.9097,0.922,0.9075,0.9349,0.9486,0.9486,0.9507,0.9521,0.947,0.9562,1.0198,1.141,1.1588,1.1868,1.2296,1.1958,1.16,1.1303,1.1087,1.1453,1.2519,1.2555,1.2884,1.3492,1.3492,1.3492,1.3492,1.3492,1.3492,1.3492,1.3499,1.3492,1.355,1.4125,1.4387,1.4445,1.4667,1.4734,1.4734,1.465,1.4566,1.4398,1.4398,1.4243,1.4088,1.4088,1.4243,1.4314,1.4166,1.4243,1.4382,1.4436,1.471,1.499,1.5311,1.5585,1.5792,1.5818,1.5832,1.5832,1.5832,1.5832,1.5832,1.5832,1.5832,1.5825,1.5737,1.5064,1.4394,1.4202,1.3437,1.303,1.3282,1.3362,1.3653,1.4089,1.5102,1.5749,1.5861,1.6829,1.7477,1.7582,1.7582,1.7582,1.7582,1.7582,1.7582,1.7477,1.7582,1.7582,1.7477,1.7477,1.7265,1.673,1.673,1.673,0.0,0.0,0.0,0.0,0.0,0.0,0.8944,0.0,0.8804,0.0,0.0,0.0,0.0,0.0,0.0,0.0,0.8692,0.8711,0.0,0.0,0.8901,0.924,0.931,0.9474,0.9938,1.0444,1.1102,1.1989,1.2122,1.233,1.2704,1.2413,1.2042,1.1747,1.1435,1.1589,1.2233,1.2617,1.3089,1.3562,1.3757,1.3848,1.3848,1.3637,1.3492,1.3492,1.3492,1.3492,1.3543,1.4201,1.4472,1.4531,1.4921,1.5082,1.5082,1.4999,1.4915,1.4741,1.465,1.4489,1.4412,1.4412,1.4489,1.4566,1.4489,1.4613,1.4898,1.4953,1.5176,1.5474,1.5571,1.5738,1.5832,1.5832,1.5832,1.5832,1.5832,1.5832,1.5832,1.5832,1.5832,1.5832,1.5832,1.5445,1.5159,1.5159,1.4902,1.4887,1.5016,1.5181,1.5426,1.5903,1.6371,1.6755,1.6922,1.7364,1.7582,1.7582,1.7582,1.7582,1.7582,1.7582,1.7582,1.7582,1.7582,1.7582,1.7582,1.7582,1.7477,1.7265,1.7265,1.7265,1.0008,0.0,0.0,0.0,0.0,0.0,0.0,0.0,0.0,0.0,0.0,0.0,0.0,0.0,0.8711,0.0,0.0,0.8357,0.0,0.8091,0.0,0.8931,0.9067,0.933,0.9967,1.0395,1.1013,1.2042,1.204,1.2321,1.3086,1.2797,1.2552,1.2367,1.1996,1.1966,1.2288,1.2882,1.3421,1.3762,1.3968,1.4129,1.4057,1.371,1.3492,1.3492,1.3492,1.3492,1.3543,1.4201,1.4472,1.4531,1.5174,1.5431,1.5347,1.5257,1.5173,1.509,1.4915,1.4734,1.4734,1.4734,1.4741,1.4838,1.4839,1.5021,1.5373,1.5514,1.5693,1.5934,1.6041,1.6021,1.6021,1.6021,1.6021,1.6021,1.6021,1.6021,1.6021,1.6021,1.5927,1.5927,1.5927,1.5832,1.5832,1.5832,1.6012,1.6179,1.6259,1.646,1.67,1.7001,1.7027,1.7148,1.7442,1.7462,1.7502,1.7582,1.7582,1.7582,1.7582,1.7582,1.7582,1.7582,1.7582,1.7582,1.7582,1.7582,1.7582,1.7582,1.7582,1.7582,0.0,0.0,0.0,0.9459,0.0,0.0,0.0,0.0,0.8804,0.0,0.0,0.0,0.8804,0.8804,0.8711,0.0,0.0,0.0,0.0,0.0,0.8021,0.8377,0.8637,0.8852,0.902,0.8643,0.9157,1.1011,1.0886,1.1573,1.3408,1.3164,1.2989,1.2981,1.2674,1.2656,1.294,1.341,1.3759,1.4047,1.4111,1.4129,1.4057,1.371,1.3492,1.3492,1.3492,1.3492,1.3543,1.4201,1.4472,1.4531,1.5174,1.5431,1.5431,1.5431,1.5257,1.509,1.509,1.4915,1.4734,1.4734,1.4915,1.5056,1.5183,1.5375,1.5691,1.6035,1.612,1.619,1.6504,1.6581,1.6581,1.6581,1.6581,1.6581,1.6581,1.6581,1.6581,1.6581,1.64,1.6224,1.6224,1.5933,1.5832,1.5832,1.5838,1.5945,1.6239,1.6279,1.64,1.6687,1.672,1.684,1.7134,1.7161,1.7281,1.7562,1.7582,1.7582,1.7582,1.7582,1.7582,1.7582,1.7582,1.7582,1.7582,1.7582,1.7582,1.7582,1.7582,1.7582,1.2142,1.237,1.2264,1.0328,1.0334,1.0468,0.0,0.0,0.0,0.0,0.0,0.0,0.0,0.0,0.0,0.0,0.0,0.0,0.0,0.7756,0.7922,0.807,0.0,0.0,0.0,1.0265,1.088,1.2406,1.2107,1.2274,1.3147,1.3042,1.292,1.2674,1.2552,1.2538,1.2664,1.3567,1.4056,1.4187,1.4636,1.4848,1.4848,1.4425,1.4209,1.4209,1.3992,1.392,1.39,1.4347,1.4472,1.4531,1.5174,1.5431,1.5431,1.5431,1.5347,1.5257,1.5257,1.5257,1.5173,1.5173,1.5257,1.5322,1.5555,1.5872,1.6125,1.6385,1.6558,1.6699,1.6908,1.6742,1.6637,1.6847,1.6735,1.6588,1.6588,1.6588,1.6588,1.6588,1.6407,1.6224,1.6224,1.6028,1.5832,1.5832,1.5832,1.5865,1.5965,1.5979,1.6092,1.6386,1.642,1.654,1.6834,1.7034,1.7275,1.7562,1.7582,1.7582,1.7582,1.7582,1.7582,1.7582,1.7582,1.7582,1.7582,1.7582,1.7582,1.7582,1.7582,1.7582,1.3067,1.327,1.3175,1.1431,1.1456,1.1439,0.9807,0.9425,0.9372,0.0,0.0,0.0,0.0,0.0,0.0,0.0,0.0,0.0,0.0,0.7848,0.809,0.809,0.0,0.0,0.0,0.0,1.1092,1.2697,1.2386,1.2438,1.3147,1.3155,1.3094,1.285,1.285,1.285,1.285,1.3905,1.4412,1.4354,1.4935,1.5204,1.5204,1.4776,1.4569,1.4569,1.4346,1.4274,1.4328,1.4721,1.4925,1.4993,1.5657,1.5839,1.5831,1.5514,1.5431,1.5431,1.5431,1.5431,1.5431,1.5431,1.5431,1.5511,1.5943,1.6213,1.6462,1.6726,1.6908,1.7138,1.7352,1.7106,1.6942,1.7262,1.7092,1.6864,1.6864,1.6864,1.6864,1.6864,1.6683,1.6508,1.6508,1.6218,1.6021,1.5832,1.5832,1.5832,1.5832,1.5832,1.5905,1.6092,1.6112,1.6273,1.6673,1.6981,1.7275,1.7562,1.7582,1.7582,1.7582,1.7582,1.7582,1.7582,1.7582,1.7582,1.7582,1.7582,1.7582,1.7582,1.7582,1.7582]}]]